GFSCGP_850_spd_000.txt.gz
Wind_Speed
16 9 12 13 13 4 6 4 7 4 4 2 7 8 15 14 11 7 8 8 10 14 14 12 12 12 12 13 12 14 13 12 7 5 5 9 11 12 13 14 15 15 16 17
8 16 14 7 7 4 3 3 5 6 1 3 7 10 12 7 7 4 13 12 10 15 13 12 12 12 13 14 15 14 14 13 11 8 6 5 5 6 7 8 10 11 12 13
11 4 15 13 6 10 3 5 4 5 7 4 6 7 6 2 2 8 12 11 11 12 14 14 14 14 14 16 16 16 16 15 14 13 9 7 5 5 4 7 8 9 11 12
6 5 13 16 11 6 9 6 3 3 4 3 5 6 6 5 4 6 12 13 13 13 13 16 15 15 14 16 14 14 14 15 16 14 13 11 10 10 12 10 10 10 11 13
7 14 11 15 17 9 4 5 6 2 3 3 1 2 7 2 5 6 9 14 13 13 13 16 16 14 14 12 12 12 12 14 14 14 14 13 12 11 9 8 10 13 16 18
3 9 10 7 4 11 6 5 2 3 2 2 6 7 6 4 6 4 6 16 16 16 16 15 14 12 12 11 9 10 11 12 12 12 12 12 11 11 12 14 17 20 22 25
1 4 3 8 6 3 4 7 2 1 1 6 1 2 8 4 5 9 14 21 19 18 17 15 13 11 11 9 9 9 10 11 12 12 12 13 13 14 16 18 22 25 28 31
7 5 8 6 6 6 7 8 5 6 4 4 2 6 5 3 9 10 25 28 22 19 16 14 12 10 9 7 6 7 9 10 11 12 13 13 14 17 20 23 26 28 30 31
8 5 2 5 5 11 6 8 4 5 1 1 3 7 8 4 6 4 23 29 24 20 17 14 12 9 7 5 5 5 7 8 10 12 13 15 18 21 25 27 29 29 29 30
7 5 0 2 7 3 7 8 2 2 3 4 4 5 5 5 2 3 8 23 23 19 17 15 12 10 8 5 3 2 3 7 10 11 13 18 21 24 25 26 26 27 27 29
6 4 2 6 6 8 2 4 4 4 3 4 1 6 5 5 4 8 8 21 22 19 17 16 13 11 8 6 4 1 3 6 9 12 16 19 22 24 24 24 25 26 26 27
4 6 6 3 1 5 4 7 6 5 4 1 3 6 2 5 4 10 9 15 17 16 17 17 14 12 11 8 5 2 3 7 10 14 19 23 24 24 23 24 26 27 27 27
8 2 5 2 1 2 4 4 4 5 3 6 6 5 3 6 6 9 12 13 15 16 19 18 16 15 12 8 5 3 5 9 13 19 23 23 23 23 25 26 25 25 26 27
8 3 6 9 4 6 5 5 5 6 4 5 6 5 3 3 5 5 5 4 10 17 19 18 18 15 12 8 5 4 6 10 16 20 21 21 23 25 26 25 26 26 27 29
4 4 3 3 4 4 6 9 11 9 9 7 5 8 3 2 4 4 6 2 6 13 18 19 18 15 12 8 4 3 7 13 19 20 21 23 25 25 25 25 26 27 28 30
3 2 3 2 3 3 2 4 8 4 4 2 5 4 2 3 4 3 3 3 1 8 15 17 18 15 12 8 5 5 11 17 21 22 24 25 24 25 25 26 27 29 31 34
5 5 3 3 2 2 4 8 8 5 4 7 7 6 4 3 6 5 5 3 3 7 12 18 18 15 12 8 3 8 14 19 20 23 24 24 24 24 25 27 29 32 35 37
5 5 3 3 1 1 3 1 6 7 2 5 6 6 5 7 4 3 3 4 7 11 13 18 19 15 10 5 6 11 15 19 21 20 21 23 23 24 26 29 32 34 36 38
3 5 3 5 4 3 0 4 7 6 3 1 7 5 5 5 2 1 5 6 10 11 12 15 14 11 9 7 7 12 17 18 18 19 20 22 24 26 28 32 33 34 37 38
5 6 4 2 4 7 1 2 8 4 2 7 8 6 6 5 2 4 6 5 4 5 8 12 12 11 9 6 10 15 17 18 18 19 21 23 24 27 30 31 34 36 36 39
3 3 4 2 2 5 3 4 5 5 3 10 12 11 9 4 5 3 4 2 2 5 9 12 11 9 6 8 14 18 16 17 19 20 22 23 25 28 31 34 34 36 39 41
6 6 4 3 2 6 4 4 6 5 14 16 12 8 5 3 1 2 2 2 4 7 10 10 8 8 9 12 14 13 15 18 20 22 23 25 27 30 32 34 37 38 40 42
1 4 4 6 4 0 2 3 19 18 19 12 7 6 4 3 1 3 6 8 8 9 9 10 10 10 10 11 13 14 17 20 22 24 25 27 30 32 34 36 38 40 41 40
1 2 3 3 2 3 14 18 14 13 10 8 6 5 3 3 4 6 9 9 10 11 11 11 10 10 9 11 13 16 19 21 24 26 27 30 34 37 36 37 37 38 38 37
3 5 4 1 2 3 7 9 11 10 7 5 2 3 5 7 9 11 10 10 10 10 11 10 10 9 10 12 15 17 20 22 24 27 30 34 36 37 39 38 38 36 33 28
5 6 5 5 11 5 10 11 9 8 5 5 4 4 7 10 12 12 11 9 8 7 8 10 10 11 11 14 16 18 20 23 26 30 34 35 37 38 38 40 42 37 30 26

GFSCGP_850_spd_003.txt.gz
Wind_Speed
22 11 15 17 12 5 7 7 11 2 2 1 4 6 13 10 8 8 7 11 11 12 12 13 13 13 14 15 14 15 15 15 11 8 6 4 2 3 4 6 8 9 10 11
11 14 12 9 8 7 5 5 5 3 1 3 5 13 12 3 5 6 15 15 14 15 13 13 14 14 15 16 17 16 16 14 13 10 10 9 9 9 8 8 7 9 10 11
17 7 15 12 7 9 4 6 4 4 3 1 5 6 4 2 2 5 16 18 15 16 15 14 14 15 14 16 17 16 16 16 16 16 14 12 10 11 9 9 9 10 10 12
11 6 16 14 12 9 9 4 2 2 4 2 3 5 5 4 1 4 13 19 18 17 15 14 14 14 15 16 15 15 15 16 17 15 13 11 11 10 11 9 10 11 14 17
6 14 18 16 15 9 4 5 3 0 3 1 2 2 6 2 3 6 11 15 17 17 15 15 14 14 15 13 12 13 13 14 14 13 12 11 11 11 9 9 12 16 20 23
3 7 9 8 8 9 9 7 5 3 3 3 5 5 5 3 4 5 7 16 19 20 18 15 15 14 13 12 11 11 11 13 12 11 11 11 11 11 12 15 19 23 27 30
3 3 4 6 9 3 4 6 2 1 4 4 2 2 8 3 4 9 17 25 23 23 21 18 16 14 13 11 10 10 9 12 11 11 12 13 14 15 18 21 24 26 28 30
5 5 8 6 6 6 5 6 4 5 4 2 3 5 5 3 3 6 20 29 27 26 22 19 16 15 13 11 10 8 8 9 9 10 11 12 14 17 20 23 25 26 26 26
12 3 2 9 4 9 4 5 4 4 2 1 3 5 7 1 3 3 18 30 31 28 24 20 18 16 14 12 9 7 6 5 6 8 9 11 15 19 22 23 24 24 24 23
4 5 4 4 7 4 6 6 3 1 4 3 3 4 4 5 4 3 9 22 29 25 23 21 18 17 15 12 9 6 3 1 3 5 8 12 17 19 21 21 21 21 20 19
6 4 1 6 5 9 4 3 1 3 2 3 1 4 5 4 3 6 11 24 28 25 24 21 19 18 15 13 9 6 3 1 2 4 8 13 17 20 20 20 20 20 20 20
7 5 4 3 1 3 5 8 11 4 3 1 2 5 1 5 5 10 16 25 24 21 20 20 19 19 16 13 10 8 5 3 3 6 11 15 19 20 20 20 20 20 19 21
6 2 6 4 2 4 5 4 4 4 3 6 5 4 1 3 4 8 20 22 20 18 19 21 21 19 16 14 11 9 6 4 4 9 13 17 19 19 20 20 20 20 21 23
5 3 5 8 5 6 5 4 4 6 4 5 6 5 3 1 5 8 11 14 15 18 21 21 21 20 17 15 12 9 6 3 6 11 16 19 21 21 21 20 20 21 23 25
2 3 3 1 2 6 8 10 12 10 11 10 7 9 6 4 6 10 6 6 10 13 18 21 22 21 18 16 12 8 4 4 8 13 16 18 19 20 19 18 20 22 24 27
3 3 2 2 2 4 4 6 11 10 3 8 5 7 5 4 8 8 7 7 7 8 13 17 20 21 20 15 10 7 4 6 11 15 17 19 19 18 18 20 22 25 27 30
4 5 3 2 2 4 3 9 10 7 5 10 11 9 7 4 7 10 10 8 5 2 8 14 20 20 17 13 10 7 5 9 13 16 18 19 17 18 20 22 25 28 31 35
5 5 1 3 2 1 4 1 5 6 3 5 3 6 8 12 11 9 6 4 2 3 5 12 18 19 15 13 10 7 7 11 14 16 18 17 18 20 22 24 27 31 35 38
5 7 2 4 4 4 1 4 6 7 5 6 9 7 12 13 10 5 4 1 3 6 6 7 12 15 14 12 9 6 8 13 15 16 16 17 20 22 24 27 31 34 37 39
4 4 4 1 5 6 1 2 7 4 4 8 8 6 8 9 3 2 0 2 4 5 5 6 12 14 13 11 7 7 10 14 15 15 16 19 21 23 26 29 33 36 38 40
3 3 5 4 2 5 4 3 7 4 3 11 17 15 13 4 4 4 1 2 3 4 5 8 11 12 10 8 7 10 12 14 14 16 17 18 20 24 28 33 35 38 39 41
6 6 4 3 2 7 7 4 7 4 13 19 17 13 9 7 5 2 2 3 5 7 8 10 12 11 9 8 9 10 12 14 15 16 18 20 23 27 31 35 37 38 40 41
2 4 4 6 4 0 3 1 11 26 26 17 14 10 8 7 5 4 4 6 8 10 11 12 12 11 9 8 9 11 14 15 16 18 21 23 26 30 33 36 37 39 39 39
2 2 3 3 1 2 10 21 17 19 16 14 10 9 7 6 6 7 7 8 9 11 12 11 11 9 9 10 11 13 13 15 18 21 23 26 31 35 35 35 36 37 37 36
3 5 5 2 2 7 9 14 18 16 13 11 9 8 8 8 10 11 11 10 9 10 11 10 10 9 9 11 10 11 14 16 19 22 26 31 34 35 36 37 36 35 32 26
6 6 4 4 14 6 15 17 16 15 12 10 8 7 7 8 10 12 12 11 10 9 10 10 10 9 10 9 9 12 15 18 21 25 30 32 34 35 36 38 40 34 28 24

GFSCGP_850_spd_006.txt.gz
Wind_Speed
24 12 19 28 17 16 18 18 14 13 7 6 13 16 14 19 11 11 9 10 10 9 10 13 15 16 15 16 16 17 16 15 11 10 9 8 9 9 8 7 7 7 8 9
16 23 24 15 19 19 20 16 16 12 6 6 13 16 16 15 12 10 13 15 15 13 11 14 16 18 18 19 19 17 16 15 13 12 11 10 10 11 9 9 9 9 10 11
23 17 18 18 22 22 15 17 15 9 5 6 9 18 11 5 5 4 11 15 16 16 15 14 17 19 19 19 18 17 16 14 15 15 13 13 12 12 10 9 8 10 12 14
19 21 23 18 21 23 18 11 9 8 1 5 3 5 8 9 5 7 15 17 17 18 15 15 16 18 18 18 17 16 15 15 16 14 13 11 10 9 10 10 11 12 15 18
14 13 17 20 24 26 11 12 9 3 5 6 9 6 4 3 7 11 16 18 17 16 16 16 17 19 18 16 15 14 13 14 13 11 10 10 10 10 10 11 13 16 19 21
12 7 20 18 24 20 15 14 8 4 1 7 11 9 5 4 1 12 16 18 19 18 17 17 19 18 17 14 13 12 11 12 12 10 10 10 10 10 11 14 17 20 23 25
10 15 5 17 16 3 16 15 3 5 4 6 3 6 10 3 3 10 18 22 21 20 18 18 19 18 16 14 12 12 11 11 10 8 8 9 10 12 14 17 19 21 23 23
8 5 11 13 20 9 16 14 4 5 6 5 4 6 2 5 2 7 19 24 22 21 19 18 18 17 16 14 13 11 10 10 8 6 5 6 7 10 13 16 18 20 20 20
9 4 7 12 5 11 4 6 2 3 1 3 5 4 4 2 2 7 16 24 23 22 20 19 19 18 17 15 14 12 10 8 6 4 2 3 7 10 14 16 18 19 19 18
12 4 6 6 8 4 10 10 4 2 5 5 4 3 2 3 1 6 14 25 24 22 20 18 18 18 18 16 14 12 10 7 5 2 0 4 7 11 14 16 18 18 17 17
3 7 2 13 6 12 10 6 4 2 3 3 3 4 3 2 3 5 12 24 24 23 22 19 18 19 19 17 15 13 10 7 5 2 2 6 9 13 15 17 18 17 17 17
8 3 6 3 3 9 10 11 12 6 5 1 3 3 4 3 4 5 13 22 21 22 21 19 19 21 20 18 16 14 11 8 6 3 4 7 10 14 17 18 18 16 16 16
11 7 8 5 2 3 7 11 17 10 1 10 8 3 2 2 2 4 14 21 21 21 20 19 20 21 21 19 17 15 12 9 6 4 5 8 11 15 17 18 16 15 16 17
4 5 13 11 9 12 14 19 19 17 10 9 11 6 6 5 5 8 14 19 19 19 20 19 19 20 20 19 18 16 12 9 7 5 7 10 13 17 18 17 15 16 18 20
5 4 9 3 2 15 17 19 19 20 19 13 14 18 16 9 10 12 15 17 18 18 18 20 20 19 20 20 19 15 12 10 7 6 9 12 16 18 17 15 16 18 20 23
11 3 2 3 4 10 14 19 22 23 21 23 17 17 5 5 11 14 14 14 14 15 16 18 20 20 20 20 17 14 12 9 6 8 11 15 17 17 15 16 18 20 23 26
12 5 3 3 4 5 9 18 20 18 20 21 19 19 10 8 11 15 13 11 11 10 12 15 17 19 19 18 16 14 11 8 7 10 13 16 16 15 16 18 20 23 27 30
13 4 1 3 2 5 1 3 16 21 18 20 17 4 13 13 13 12 10 11 8 7 7 10 14 18 18 18 15 14 11 7 8 12 15 16 14 15 17 20 23 27 30 32
10 3 3 4 7 6 4 5 7 11 13 15 16 9 12 18 17 8 7 8 5 3 4 8 11 15 17 16 15 12 9 8 9 13 16 15 15 17 20 23 27 30 32 32
5 7 3 1 4 4 3 3 6 5 7 11 14 15 16 18 10 6 7 5 3 2 3 6 10 13 15 15 13 10 9 10 12 14 15 15 17 19 22 26 29 31 31 30
4 5 12 9 2 7 2 6 6 6 1 11 16 19 19 9 3 14 8 4 3 3 3 5 8 10 12 12 10 9 9 10 12 14 15 16 18 22 25 29 31 30 30 29
12 9 5 5 3 9 8 5 6 4 12 17 18 17 13 14 12 9 7 5 4 3 4 5 7 9 10 11 10 9 9 11 12 14 16 18 20 24 28 29 30 30 26 26
5 3 4 7 3 2 2 1 3 12 21 14 17 15 15 13 10 8 7 4 4 6 7 8 9 10 11 11 10 10 11 11 13 15 18 20 23 26 27 28 28 27 25 25
2 2 2 3 2 1 3 7 12 16 20 18 16 15 11 10 9 7 6 6 7 9 10 11 11 12 12 12 10 9 11 12 15 17 19 22 25 28 27 26 24 26 24 23
1 8 7 2 2 6 4 9 21 20 19 17 15 12 11 9 8 7 8 9 10 11 12 13 13 12 12 11 9 9 11 13 16 18 20 23 25 25 26 27 26 25 22 20
7 6 5 3 16 3 18 20 21 22 18 15 13 11 9 7 7 8 10 11 12 12 12 12 12 12 11 9 8 11 12 14 16 19 22 24 26 25 27 26 25 21 21 21

GFSCGP_850_spd_009.txt.gz
Wind_Speed
26 12 18 28 27 20 23 18 24 19 22 22 17 20 19 20 18 14 13 13 12 10 8 8 10 11 13 14 15 15 15 14 13 13 12 11 10 9 8 8 8 8 8 10
17 19 27 28 22 27 23 22 23 13 14 11 14 18 19 15 19 20 17 16 16 14 12 12 12 14 14 16 16 16 15 14 13 13 14 13 12 12 11 10 8 9 9 11
23 20 27 27 22 26 26 20 19 14 13 11 12 17 20 19 18 10 15 18 18 18 17 16 15 15 15 18 18 17 16 16 15 15 15 15 13 12 10 8 8 9 11 14
17 21 23 29 28 22 27 19 17 13 12 9 14 7 16 14 13 11 14 20 21 20 18 17 17 16 17 19 18 16 15 15 15 14 14 12 10 10 9 8 9 11 14 17
13 13 24 29 25 21 16 25 16 14 11 2 12 6 15 12 15 11 14 21 22 21 20 19 17 17 18 18 17 16 15 15 15 13 12 11 10 9 8 8 10 13 17 21
21 21 25 23 20 22 9 17 10 12 5 7 13 12 10 12 13 16 16 22 23 22 20 18 17 17 18 18 17 16 15 15 13 12 11 10 9 8 7 9 12 15 18 21
11 17 3 10 14 21 15 16 6 5 5 7 7 10 13 9 5 9 16 23 24 23 22 20 19 17 17 17 16 15 14 14 12 10 9 7 5 5 7 9 12 16 19 22
7 7 9 9 11 9 18 16 7 7 9 13 7 7 5 7 3 10 20 24 25 23 21 20 18 17 16 16 15 14 13 12 11 8 6 4 3 3 6 9 13 16 19 20
6 6 2 16 13 16 9 19 2 4 5 10 8 9 7 5 7 9 19 25 26 25 22 21 18 16 15 15 14 13 12 11 9 7 5 2 1 4 8 11 14 17 19 20
5 4 1 5 13 3 6 11 6 3 7 6 8 8 6 10 8 11 15 25 26 24 22 21 19 17 15 15 15 13 12 11 9 6 4 1 2 6 9 13 16 18 19 19
9 1 3 11 5 11 3 7 5 3 3 4 7 5 10 6 5 9 14 25 27 26 24 22 19 17 15 15 15 14 12 11 9 6 4 3 5 7 11 14 17 18 18 18
9 5 2 8 4 14 12 9 12 6 5 4 4 5 7 4 4 6 14 22 25 24 23 21 19 18 16 15 15 14 12 11 10 7 5 5 7 9 13 16 18 17 17 17
13 3 3 5 8 3 2 11 17 11 3 11 7 5 5 5 6 6 12 20 24 23 22 21 20 18 16 15 14 13 12 12 10 8 6 6 9 12 15 17 17 17 16 18
5 8 6 4 7 12 11 15 17 15 9 10 11 7 10 7 7 8 13 18 22 23 23 21 20 17 16 14 14 13 12 12 11 9 7 8 11 14 17 17 17 16 18 21
4 6 6 2 4 14 14 19 18 18 17 11 12 14 9 10 8 10 15 20 22 22 22 21 19 17 16 15 13 13 13 12 11 9 8 9 12 15 16 16 16 18 21 23
13 4 4 4 2 6 13 16 20 22 22 21 17 15 2 2 10 10 15 20 21 21 20 19 17 16 16 15 14 14 13 12 10 9 8 11 14 16 16 16 18 20 22 24
9 6 3 2 6 5 9 18 19 20 21 20 20 18 11 7 8 12 13 15 16 16 16 16 16 15 15 15 14 13 12 12 9 7 8 11 14 16 17 18 20 21 23 25
13 9 3 2 5 6 2 3 17 21 19 20 20 14 5 9 9 8 7 10 11 11 11 11 13 13 14 14 13 13 12 10 8 7 9 12 15 16 17 19 20 22 23 26
9 7 2 3 4 9 8 3 6 16 17 19 18 17 8 11 17 9 8 10 11 10 9 9 11 12 13 14 14 12 10 8 6 7 10 12 16 17 18 20 22 25 27 30
6 8 4 1 3 4 4 2 1 6 10 4 16 13 14 19 8 7 12 10 10 8 8 9 10 11 11 12 11 10 8 6 7 9 11 14 16 18 19 22 25 26 28 30
3 2 4 3 4 7 5 6 6 6 2 3 7 15 20 12 5 22 16 11 9 7 7 7 8 9 10 10 9 8 7 6 8 10 14 15 16 19 20 24 26 29 29 30
8 7 4 4 5 8 10 6 4 3 6 8 13 16 17 17 17 16 14 11 9 7 7 7 8 9 8 9 9 8 6 7 10 13 14 15 17 19 23 27 30 30 27 27
8 8 7 9 5 4 8 3 2 6 12 13 16 15 18 18 15 13 12 9 6 5 5 6 7 7 7 7 7 6 7 9 12 13 14 16 19 21 24 28 28 27 24 25
3 2 3 4 4 3 7 3 5 11 13 15 16 17 15 15 13 11 9 6 4 3 4 5 6 7 7 7 6 7 8 11 11 12 14 17 21 24 26 24 22 24 25 26
1 9 7 2 2 4 6 6 12 15 17 18 16 13 12 12 10 8 6 4 4 4 5 6 7 8 9 6 8 9 10 9 11 13 17 20 22 24 24 23 23 24 24 23
7 5 5 3 13 4 11 17 17 18 18 16 15 13 11 9 7 5 3 3 5 6 7 7 9 9 9 8 8 9 8 9 12 16 19 21 23 23 22 24 29 24 22 23

GFSCGP_850_spd_012.txt.gz
Wind_Speed
15 9 17 22 22 18 15 17 16 17 17 21 20 19 15 18 21 18 14 14 18 16 9 10 10 13 16 14 15 16 17 16 18 20 20 17 14 11 10 9 9 7 7 8
10 21 25 14 17 18 21 18 17 15 20 20 19 17 16 10 17 24 19 18 22 20 13 15 14 14 16 19 20 22 22 22 21 19 15 13 12 13 12 10 8 7 8 10
19 20 16 18 18 20 22 23 16 15 15 9 8 12 10 12 22 21 24 22 27 24 20 18 18 18 18 18 18 19 18 18 17 15 15 17 15 13 10 8 7 8 10 13
15 19 20 19 23 19 22 23 22 19 17 11 11 4 15 21 16 10 13 13 31 28 23 20 19 18 19 20 19 19 20 19 17 15 15 13 12 12 9 7 7 8 11 16
10 11 18 22 21 20 19 17 22 27 11 4 6 5 9 10 19 9 10 21 32 30 27 24 21 19 20 21 20 20 19 20 19 17 14 13 12 10 7 5 6 10 15 19
13 14 12 16 21 20 22 15 20 18 11 8 13 9 6 6 13 13 11 22 31 31 28 24 21 21 22 20 20 19 19 19 18 16 15 12 10 8 6 5 6 9 14 18
7 19 8 5 12 20 22 14 8 7 6 4 16 8 6 4 8 14 14 26 32 31 29 27 24 22 22 21 20 19 19 19 18 16 14 11 8 6 3 3 6 10 14 19
9 8 14 14 11 15 24 22 3 5 5 6 15 6 5 7 10 23 26 31 32 31 28 26 24 22 22 21 20 19 18 18 17 14 12 9 6 3 1 4 8 12 16 19
3 9 5 10 15 16 10 9 17 6 10 6 4 4 4 8 6 10 21 29 31 31 30 27 24 22 22 21 19 19 18 16 15 12 10 7 4 2 3 6 10 14 17 20
3 6 6 12 8 9 7 8 10 4 7 7 6 8 5 10 9 8 13 22 29 30 30 28 26 23 21 20 20 18 16 15 13 11 8 6 4 3 5 8 12 16 18 20
5 3 1 1 8 13 8 6 9 4 5 5 5 1 10 9 12 11 11 26 31 32 31 30 27 23 22 22 20 18 17 14 13 11 9 6 4 5 7 10 14 17 19 19
9 4 4 6 4 12 10 8 11 3 2 1 4 2 6 9 8 10 14 28 32 32 30 29 27 25 24 22 21 18 16 15 13 11 9 7 6 6 9 13 16 18 18 17
12 5 2 5 8 1 4 7 5 5 3 3 3 3 7 8 8 7 16 27 31 30 28 28 27 27 24 21 20 18 16 15 13 11 9 8 7 7 11 14 17 18 18 18
9 6 6 5 6 11 6 7 6 5 1 2 2 6 6 7 9 7 17 24 30 31 29 29 28 26 22 20 19 17 16 15 13 11 9 8 6 9 13 16 17 18 19 20
4 4 13 10 18 17 14 9 8 9 7 1 3 7 9 10 10 12 19 25 29 28 29 29 28 24 21 20 18 17 16 15 12 11 9 6 7 10 14 17 18 18 19 21
12 6 12 10 6 12 13 13 12 10 7 7 9 5 7 11 22 17 20 23 26 29 30 27 26 22 23 22 20 18 17 15 12 10 7 6 8 11 15 18 18 18 20 24
6 4 5 4 4 5 4 8 14 9 8 8 10 7 4 6 7 15 22 24 23 23 24 24 23 22 22 21 20 18 16 13 11 8 6 6 9 13 16 17 17 20 23 27
7 3 3 2 2 1 2 1 5 11 8 10 9 5 4 9 12 15 8 19 16 21 23 22 20 20 20 20 17 15 14 11 10 7 6 7 11 13 15 17 19 22 26 29
9 2 1 1 3 6 1 1 1 6 9 8 8 9 10 23 18 12 14 16 16 15 15 17 19 21 21 18 17 14 12 10 7 5 6 8 11 13 15 18 21 25 28 30
6 6 3 4 1 3 2 2 7 3 2 6 6 8 14 14 5 4 13 18 18 18 18 19 19 18 16 16 13 12 10 8 6 4 6 10 12 14 17 20 24 27 28 30
4 3 5 4 2 6 2 3 4 4 3 7 9 16 19 5 3 26 20 17 16 16 16 14 13 13 12 11 11 10 8 6 4 5 8 10 12 15 19 22 25 27 29 31
6 5 3 3 2 6 8 4 2 2 3 5 18 23 29 29 29 25 21 19 16 16 15 13 12 11 10 10 11 8 7 4 4 6 8 10 13 17 20 23 26 27 30 32
7 6 5 7 5 1 5 4 5 5 8 14 21 24 26 27 23 21 20 17 15 13 12 11 9 10 10 10 9 7 5 3 5 7 8 11 15 18 20 24 27 28 30 31
4 6 2 5 4 4 6 5 8 11 16 18 19 22 23 25 21 19 17 14 12 10 10 8 8 8 9 8 7 5 2 3 5 7 10 13 16 19 23 25 27 29 30 30
2 7 6 2 2 3 4 8 17 20 19 21 20 19 21 21 19 16 14 11 8 7 8 7 7 7 6 7 6 3 2 4 6 8 11 14 18 22 26 26 27 28 26 24
5 6 5 4 13 5 9 21 21 24 25 24 24 23 18 16 18 14 12 8 6 6 6 8 9 8 6 6 3 2 3 4 7 10 13 16 21 25 26 28 31 29 29 25

GFSCGP_850_spd_015.txt.gz
Wind_Speed
12 7 12 13 14 6 8 10 12 8 10 11 20 16 17 20 22 18 20 18 28 23 17 10 11 12 11 11 14 16 23 26 27 27 27 25 21 16 16 10 9 8 6 4
7 17 14 9 11 10 12 13 20 14 15 11 14 22 20 15 17 23 25 18 31 27 19 16 17 17 16 17 19 22 25 25 25 23 21 19 17 15 13 12 9 6 4 5
17 4 17 14 13 13 16 16 16 16 16 17 10 15 22 13 26 30 31 25 37 35 28 24 21 22 22 21 20 21 22 22 21 18 18 19 19 17 14 11 7 5 4 7
14 21 12 14 17 13 16 16 16 16 11 11 4 9 16 18 14 13 23 22 40 35 31 30 27 23 23 24 23 22 22 20 16 14 16 16 17 16 13 9 5 3 4 9
8 9 16 19 21 14 15 10 12 12 16 14 19 7 8 11 19 15 12 30 40 39 36 34 29 25 24 24 24 24 23 22 20 19 17 17 16 13 11 7 3 1 6 10
17 2 4 11 15 14 2 4 9 9 11 12 18 11 5 9 17 21 9 28 38 39 37 33 29 27 27 26 25 23 22 21 19 18 16 16 14 12 10 7 2 3 8 12
4 11 3 2 3 4 6 5 5 5 8 13 15 9 16 7 12 18 18 31 38 43 41 37 33 31 29 28 26 25 23 24 22 20 19 17 14 11 9 5 1 3 8 13
5 5 12 9 15 7 11 13 6 8 7 8 10 10 10 15 10 19 30 40 43 43 42 37 33 31 30 28 27 26 25 24 22 21 19 16 13 10 7 3 1 6 11 14
6 6 3 5 8 17 7 10 21 6 4 2 6 9 3 2 8 16 25 32 35 42 41 36 32 31 30 28 27 26 25 23 22 20 18 15 12 8 5 2 4 9 13 16
2 5 3 12 13 13 11 10 9 4 5 7 7 5 5 5 12 16 19 26 31 39 39 34 32 31 30 28 26 24 22 20 20 18 16 13 10 7 5 4 7 11 15 17
7 5 3 2 8 17 9 10 8 5 7 2 5 5 6 11 14 17 17 29 34 41 39 35 32 30 29 28 26 24 22 21 19 17 15 12 10 7 6 6 10 13 16 17
10 4 5 14 11 10 15 11 9 5 6 10 4 4 2 10 10 14 20 29 34 40 38 34 33 31 30 29 26 24 22 20 19 16 14 12 10 8 6 8 11 14 16 17
8 4 4 4 6 5 16 15 14 15 11 8 4 3 3 8 8 15 20 26 30 37 37 35 34 33 31 29 27 24 22 20 19 16 14 12 9 7 6 9 12 15 16 16
15 6 7 3 2 5 8 19 12 10 5 3 2 6 3 5 8 8 22 30 36 39 39 39 36 33 30 28 26 24 22 19 17 16 14 11 8 6 7 10 13 15 16 17
4 5 5 13 17 12 11 13 17 22 12 4 4 6 8 9 9 11 25 29 32 35 39 41 39 35 30 26 24 22 20 18 16 15 13 9 6 5 7 11 15 16 15 16
9 4 8 7 8 14 11 13 17 10 5 3 5 3 4 5 12 13 28 31 31 33 36 39 37 33 29 26 25 23 20 17 15 14 11 8 5 5 8 13 15 14 16 19
6 3 5 3 11 7 1 18 9 5 1 4 3 5 4 5 9 14 24 30 32 35 37 36 35 31 26 25 24 23 19 16 14 12 9 6 5 7 10 13 13 15 18 21
6 1 3 4 4 1 4 2 6 8 4 6 3 5 2 10 14 9 25 32 33 33 33 33 30 26 24 25 22 19 17 14 12 11 8 6 5 8 11 12 13 16 20 23
5 3 2 1 2 5 3 2 4 7 7 6 9 5 12 20 24 15 12 25 27 29 30 28 26 25 26 24 22 18 14 12 12 10 6 4 6 9 10 12 15 19 23 24
6 4 3 3 1 3 3 3 2 1 3 3 2 8 13 10 5 4 19 23 25 26 26 26 25 24 23 22 17 14 13 12 10 7 4 4 7 8 10 14 18 21 23 25
4 2 4 1 2 7 5 3 4 3 4 5 4 14 16 5 4 28 23 23 21 21 22 21 21 20 17 16 14 13 12 11 8 4 3 5 6 8 12 16 20 23 25 27
4 5 3 3 2 6 4 2 3 3 3 7 12 20 25 28 34 31 25 24 23 23 20 17 17 16 15 14 13 13 11 8 5 3 3 3 6 9 13 18 21 23 25 27
4 6 5 7 5 2 2 3 6 5 12 13 24 25 30 33 31 28 26 23 20 18 17 15 15 16 14 13 10 9 8 6 4 2 1 4 7 11 16 20 22 24 25 27
3 3 3 3 4 3 4 5 6 10 14 20 24 27 28 33 29 27 24 22 20 17 16 15 14 14 14 13 10 8 6 4 3 1 2 5 9 14 18 20 22 25 26 27
4 8 6 2 2 2 3 6 14 20 21 23 23 25 28 29 26 24 22 20 18 16 14 12 12 12 11 11 10 7 5 4 2 1 4 8 13 17 19 21 23 24 24 22
5 6 5 5 11 7 7 17 25 25 25 25 28 26 23 23 24 21 20 17 15 14 13 12 11 10 10 10 8 7 5 3 1 4 7 11 15 18 21 23 24 23 24 24

GFSCGP_850_spd_018.txt.gz
Wind_Speed
3 3 10 13 13 7 5 6 7 4 4 7 13 18 17 18 23 20 31 32 25 27 27 21 17 15 16 17 18 22 28 30 31 32 28 26 22 19 18 13 11 9 7 4
4 12 12 8 10 9 11 12 15 8 9 10 10 16 16 16 21 23 28 29 26 28 25 22 18 17 17 16 17 19 22 31 32 29 28 29 25 19 16 12 13 10 6 1
17 6 12 13 12 10 15 17 11 9 10 18 13 21 14 16 24 26 29 32 32 35 33 26 23 21 19 18 19 20 23 26 27 28 28 26 23 18 16 17 13 9 4 1
13 17 8 12 15 11 16 10 13 11 7 7 2 11 9 12 18 14 27 24 30 40 35 31 28 26 23 22 24 24 25 26 25 24 23 23 21 21 20 16 12 7 2 2
8 8 19 20 17 14 9 8 9 8 8 8 18 10 10 12 13 18 23 26 35 43 42 37 34 30 27 25 26 25 25 23 21 19 18 19 22 20 19 14 10 6 2 4
8 1 8 9 14 14 3 7 5 3 4 9 19 12 13 13 15 12 13 27 36 41 42 39 35 33 31 29 28 27 27 25 22 21 22 21 21 20 16 12 9 5 2 6
5 16 5 3 5 11 11 4 3 3 6 10 6 12 20 9 11 15 18 25 34 41 46 42 39 36 35 33 31 29 28 27 25 23 22 21 19 15 13 10 7 4 4 7
8 4 16 9 11 5 15 14 4 6 3 5 8 10 6 16 28 27 22 32 37 41 46 46 42 39 37 35 33 31 30 28 26 24 23 22 18 15 13 10 7 4 5 9
5 4 4 7 9 12 4 9 20 6 5 5 6 4 8 13 10 9 20 30 36 41 48 47 42 39 38 36 34 31 30 28 26 25 24 22 18 15 12 9 6 4 7 11
6 3 5 5 8 8 8 5 5 4 6 5 4 5 10 13 13 8 15 22 31 36 42 45 41 39 36 35 33 30 28 27 27 25 22 20 17 15 12 8 5 6 9 12
6 5 2 4 9 12 6 11 7 7 7 3 4 6 9 13 10 14 14 27 36 40 45 44 41 38 36 34 32 30 29 28 26 24 22 19 16 13 10 6 5 8 11 13
11 4 8 18 4 10 19 20 19 6 7 9 6 7 3 9 13 16 18 26 29 36 44 43 39 38 36 34 31 30 28 26 23 22 20 17 14 11 8 6 6 9 12 14
10 5 4 4 8 12 11 19 20 15 5 6 4 6 7 6 8 14 20 24 28 35 39 39 38 38 37 34 31 29 26 24 22 20 18 15 13 10 7 6 7 10 13 14
14 3 6 9 3 9 8 23 22 21 10 8 9 17 22 6 10 8 16 26 33 38 40 39 38 38 35 33 31 28 25 22 21 18 16 13 11 9 7 6 8 10 13 13
8 6 9 15 18 12 17 24 22 22 6 8 9 14 15 9 11 13 22 27 29 33 37 39 39 37 35 32 30 27 24 22 19 16 14 12 11 9 7 7 8 11 12 13
4 5 4 6 10 16 16 20 17 14 5 5 21 27 5 4 12 14 25 29 28 32 37 38 37 36 35 33 31 27 24 21 17 14 13 12 10 8 7 7 10 11 12 15
4 3 4 6 5 8 6 18 20 14 12 15 14 23 5 4 6 10 23 28 33 37 38 38 38 36 34 32 28 26 23 19 15 14 13 12 9 7 7 9 11 11 13 17
6 6 4 1 1 3 3 19 24 22 21 25 23 1 3 5 9 11 20 30 32 35 36 36 35 34 32 28 25 22 20 17 14 13 13 11 8 6 7 10 10 12 16 19
8 3 3 2 2 5 2 5 8 15 10 7 7 4 5 15 8 7 11 24 29 32 32 31 31 30 29 26 24 22 19 16 14 13 11 8 6 6 8 8 11 14 17 19
2 3 2 3 2 2 3 1 1 3 3 3 6 9 9 9 4 3 9 17 22 25 26 27 28 28 25 25 24 21 17 15 14 12 9 6 5 6 7 9 12 16 19 21
3 2 4 2 3 7 5 3 1 3 4 2 1 13 14 6 3 20 17 20 22 22 24 26 26 25 25 25 22 18 15 14 13 10 7 5 5 5 7 10 15 18 20 22
5 5 3 2 1 6 4 4 2 3 1 2 2 11 14 20 31 29 26 27 26 27 26 24 25 24 23 20 17 15 15 14 11 8 6 4 4 5 8 12 16 18 21 24
3 5 5 7 5 2 3 2 2 0 4 3 13 20 28 34 33 30 29 27 26 26 25 23 22 23 20 15 12 15 14 12 9 6 5 4 4 6 11 14 17 21 23 25
3 2 3 1 1 2 4 2 1 5 8 12 20 27 30 36 32 30 28 27 25 23 22 21 20 20 20 17 14 11 11 9 7 6 4 3 5 8 12 15 19 22 23 24
4 6 5 5 3 1 7 6 8 12 16 19 21 24 30 33 32 30 28 25 24 22 20 17 16 17 17 15 13 12 9 8 6 5 3 4 7 11 14 17 20 22 22 22
5 6 5 6 9 6 3 16 18 20 22 22 25 27 28 29 30 27 25 22 20 20 18 17 15 14 15 14 13 11 9 7 5 3 3 6 10 14 17 20 21 20 21 21

GFSCGP_850_spd_021.txt.gz
Wind_Speed
3 5 9 13 8 5 5 6 7 4 7 5 9 15 13 14 20 24 26 31 31 34 30 26 25 25 23 22 21 21 27 32 32 33 32 26 24 21 19 14 11 10 9 8
2 12 8 6 7 9 12 16 16 7 8 8 11 21 16 14 18 21 25 30 37 37 32 21 24 24 22 21 21 25 27 30 34 35 32 27 26 19 17 14 11 10 10 6
12 3 10 8 9 10 11 14 14 13 7 11 11 28 21 17 23 29 32 33 37 38 35 26 29 27 23 22 20 22 26 30 32 34 32 28 25 23 18 15 13 14 10 5
11 15 13 11 12 10 18 9 13 11 5 6 3 10 8 5 15 18 26 28 36 36 33 31 33 30 26 22 19 19 21 24 31 33 30 27 25 24 19 18 17 14 9 5
7 5 12 18 13 10 9 6 8 8 7 7 13 8 5 10 18 17 9 24 33 34 34 30 36 33 27 22 21 20 21 25 29 29 26 25 25 23 21 21 17 13 8 5
8 6 6 8 15 13 2 7 6 4 5 12 11 11 16 11 15 10 8 27 33 37 33 33 38 32 28 25 24 24 25 26 26 23 22 21 23 24 25 22 17 12 7 6
3 13 3 4 6 9 13 6 3 5 7 8 4 11 20 8 7 13 15 25 33 33 36 38 39 35 31 30 30 28 28 27 25 23 22 21 22 23 21 18 14 10 7 6
6 6 14 10 9 6 18 14 4 6 5 4 14 12 10 15 22 30 29 27 20 31 38 41 43 40 36 34 33 33 31 29 26 24 25 25 23 22 19 15 12 9 7 7
2 5 5 10 6 11 5 12 17 5 3 4 5 8 8 10 12 13 20 23 28 31 38 43 47 43 39 36 35 35 33 29 28 28 27 26 23 20 16 14 12 9 7 8
5 5 4 5 7 10 8 5 5 6 4 6 6 6 11 5 13 16 10 14 24 31 36 43 49 46 40 37 35 33 30 30 29 27 26 24 22 18 16 14 11 8 8 9
6 4 2 4 11 13 11 10 4 2 4 4 4 6 6 12 12 10 10 18 30 36 41 44 48 43 39 36 34 33 31 30 29 27 25 23 21 19 16 12 9 8 8 10
9 3 7 15 4 12 16 15 16 5 6 6 5 9 5 8 11 8 6 17 22 28 32 41 47 43 39 36 34 33 31 30 28 26 24 22 19 17 14 10 8 8 8 11
10 5 4 3 7 14 8 13 15 16 4 12 7 11 6 15 19 7 13 20 24 28 33 40 42 40 39 37 35 33 31 28 27 25 22 20 17 14 11 10 8 7 9 12
14 4 8 9 3 4 10 16 20 17 11 13 15 21 22 18 18 7 5 21 26 30 37 41 40 39 37 36 35 33 30 27 25 22 20 17 15 13 11 9 8 8 10 13
8 6 10 17 20 13 7 19 20 23 27 17 15 14 11 17 15 7 7 20 28 31 35 39 39 39 38 36 34 31 28 26 23 20 17 15 14 12 10 9 8 9 12 14
5 4 3 17 21 20 12 17 20 23 21 22 14 16 13 25 15 3 15 20 24 28 35 37 37 38 38 36 34 31 28 24 20 17 15 14 13 12 10 8 8 11 13 14
4 3 3 5 4 8 7 18 23 21 20 18 12 12 12 24 16 13 18 24 29 34 37 38 37 36 37 36 33 30 26 22 19 16 15 13 13 11 9 8 10 12 12 14
6 4 2 4 3 2 4 5 14 18 12 8 5 10 14 16 24 14 22 23 27 32 35 35 34 34 33 32 29 26 23 21 18 15 14 13 12 9 8 9 10 10 13 16
7 2 3 3 3 2 4 6 9 11 13 12 14 17 18 18 6 11 14 19 22 27 29 31 30 30 30 30 28 26 23 20 17 15 14 12 10 8 8 8 9 11 14 17
4 6 2 3 4 3 2 5 13 8 6 18 23 22 21 10 7 4 10 14 16 18 21 25 25 27 27 28 26 25 22 19 16 14 13 11 10 8 7 8 9 13 16 19
3 2 3 2 3 7 3 2 17 6 5 2 21 26 22 14 2 10 14 17 17 18 20 21 24 26 27 27 25 23 20 17 14 14 12 10 8 7 6 8 11 15 18 21
5 4 3 3 1 5 4 1 3 2 1 3 7 17 18 14 18 19 19 21 21 23 23 23 25 26 25 24 23 21 17 15 15 13 11 8 6 5 6 9 13 17 20 22
3 5 3 6 5 3 4 2 2 3 1 1 7 13 23 25 24 24 26 25 25 25 26 25 25 26 25 22 18 16 16 16 14 12 9 6 4 5 8 12 15 19 21 23
4 3 2 1 2 4 4 2 2 3 4 6 12 22 26 31 29 30 30 29 28 26 26 25 26 26 25 19 15 13 16 15 11 8 6 4 4 6 10 14 17 20 22 23
4 5 4 4 5 5 7 5 3 8 11 14 17 21 31 33 31 31 30 28 27 25 24 22 22 22 22 20 18 15 13 10 8 6 5 4 5 9 12 15 18 20 21 22
5 6 4 5 4 1 1 11 9 12 15 16 21 26 27 29 31 29 28 25 25 24 23 21 20 20 20 18 16 14 11 8 7 5 4 5 8 11 14 17 18 19 20 22

GFSCGP_850_spd_024.txt.gz
Wind_Speed
3 5 7 10 7 3 1 5 11 6 8 8 13 18 17 16 19 20 26 28 33 35 28 28 27 23 26 23 21 21 22 24 30 34 32 31 24 22 22 20 17 14 9 10
1 10 7 5 5 7 8 10 13 13 13 11 12 24 18 15 21 26 24 30 28 35 37 35 25 27 24 24 21 21 20 24 32 35 34 32 27 24 23 21 17 12 9 9
7 3 7 10 5 7 9 10 8 12 8 13 14 28 19 21 29 34 34 37 38 33 36 37 31 25 23 25 23 21 21 24 31 33 33 32 28 27 24 19 15 13 12 11
9 12 7 5 6 8 14 8 13 13 6 7 3 10 8 9 16 12 25 27 31 36 37 37 29 26 27 26 23 20 22 27 29 32 34 32 30 24 24 18 16 16 15 11
6 5 7 15 16 7 5 6 9 10 8 8 9 6 5 5 8 8 9 25 28 30 35 38 32 28 29 28 24 21 21 26 30 33 33 32 28 24 22 19 17 18 15 11
11 5 4 6 8 11 3 5 4 3 7 10 13 10 15 8 13 8 16 29 31 31 32 34 32 29 30 28 23 21 22 25 28 32 33 29 24 23 23 21 21 19 14 9
4 15 4 4 4 7 10 2 2 5 6 8 7 11 23 5 8 9 13 23 30 32 30 33 32 31 32 30 26 24 24 26 28 31 29 26 23 21 21 22 21 17 13 8
4 5 12 11 14 7 15 11 5 4 4 4 6 8 8 11 20 31 30 29 27 25 27 30 35 33 34 33 30 28 28 28 30 29 27 24 20 20 22 21 19 15 10 7
3 4 2 7 8 8 5 10 13 6 4 4 5 8 9 11 9 11 17 25 29 28 20 27 31 36 38 37 34 32 32 31 30 28 27 25 24 24 23 20 16 12 9 7
2 6 6 4 9 10 7 1 3 5 4 4 6 7 11 10 11 12 13 11 26 28 27 25 30 38 41 38 36 34 32 31 29 27 26 26 26 23 21 17 14 10 8 8
5 4 1 5 10 12 8 5 6 2 4 4 4 6 5 7 3 14 19 22 26 30 30 33 33 40 42 39 37 36 34 31 29 27 27 27 25 22 19 15 12 10 8 9
9 3 6 14 5 14 14 10 15 6 5 4 4 13 5 2 7 14 20 21 16 25 28 31 35 41 42 38 36 36 35 31 29 28 27 25 23 20 17 14 12 10 9 9
10 5 4 4 1 6 10 16 18 15 1 10 5 8 9 2 12 15 15 9 3 12 21 30 33 40 42 40 37 36 34 32 30 28 26 23 20 18 15 13 11 9 9 10
15 4 9 12 13 4 7 16 17 16 9 19 21 15 19 13 12 10 18 4 8 14 20 25 32 40 40 37 35 35 33 30 29 27 24 21 18 16 14 12 10 8 9 11
8 8 13 22 22 13 11 13 15 19 22 11 16 21 16 6 8 7 20 9 12 17 22 28 35 40 39 37 34 33 31 29 27 24 21 19 17 15 12 10 9 9 10 11
4 6 7 19 18 18 16 15 17 24 21 21 22 24 5 4 12 15 25 12 15 19 22 27 36 38 37 36 35 33 30 27 24 21 19 18 16 13 11 10 9 9 10 12
4 3 3 8 6 5 3 16 19 16 21 19 18 23 13 17 12 17 19 18 18 20 26 33 36 36 35 35 33 31 27 24 22 19 18 16 14 12 10 9 8 9 10 12
5 3 3 5 7 3 5 5 15 19 13 18 20 11 8 11 14 20 24 17 24 23 28 32 33 34 33 32 29 26 25 23 21 19 17 14 12 11 10 8 7 8 10 13
13 4 4 3 5 5 6 1 4 8 10 17 20 19 15 4 13 15 5 10 17 20 24 28 30 30 30 29 27 26 25 23 20 18 15 13 11 10 9 7 6 8 11 14
3 2 3 3 4 4 3 5 7 5 4 13 14 15 7 4 3 3 10 5 9 9 16 25 27 26 26 28 27 26 25 23 20 16 13 12 11 9 6 5 7 9 13 16
3 3 7 4 3 7 4 3 10 2 3 6 18 21 8 4 2 6 3 4 7 13 20 23 24 25 26 28 28 26 23 21 17 15 14 12 9 5 4 6 7 11 15 19
6 4 3 2 2 4 3 2 1 3 4 5 5 19 16 12 5 2 6 12 14 22 25 24 26 27 27 27 26 25 22 19 17 15 13 9 6 5 4 6 10 14 17 20
3 5 3 6 5 4 3 5 10 10 9 5 6 9 20 16 8 11 17 22 25 24 25 24 26 28 27 25 23 23 21 19 16 13 10 6 4 4 4 8 12 15 19 22
3 3 2 3 3 5 6 7 5 6 5 4 6 12 18 21 19 21 23 24 24 24 25 26 28 29 29 25 21 16 17 16 13 10 7 5 4 4 7 11 15 18 21 22
4 4 3 5 7 8 12 6 2 6 9 12 15 17 22 27 28 28 28 27 27 28 28 28 29 29 28 23 19 16 15 12 10 8 6 4 3 6 9 13 17 19 20 21
5 6 4 4 4 2 1 7 8 10 12 14 20 25 25 29 32 30 29 28 29 29 28 27 25 24 24 20 19 16 13 9 7 6 4 2 5 9 12 16 17 17 18 20

GFSCGP_850_spd_027.txt.gz
Wind_Speed
4 5 8 11 6 4 1 3 11 7 8 11 15 22 19 24 24 25 27 28 29 35 32 26 25 28 28 26 25 25 24 25 25 26 34 35 33 30 26 24 24 22 18 10
3 10 9 8 5 10 11 13 15 11 9 11 14 27 18 19 24 28 31 30 32 38 36 35 31 28 25 24 24 24 25 24 23 27 35 38 36 30 27 27 26 22 17 11
6 4 5 8 5 12 10 13 12 17 9 14 17 24 16 16 27 31 34 36 35 35 37 40 36 33 28 25 26 25 26 23 23 27 34 37 33 31 32 30 26 21 16 13
6 9 4 4 8 10 16 6 10 11 6 7 2 10 8 7 14 13 17 25 32 38 39 41 40 34 30 26 25 25 25 23 23 27 34 38 35 33 33 30 25 18 14 15
4 5 5 12 12 9 7 5 6 8 8 11 14 7 7 1 5 8 11 25 29 34 36 36 39 35 30 28 26 26 25 23 24 28 34 37 34 32 33 30 25 22 19 17
7 4 5 8 7 14 1 3 4 3 5 9 11 11 20 7 8 5 9 20 26 28 29 28 32 34 33 30 28 27 26 26 27 30 34 36 33 30 32 29 24 21 19 18
3 15 6 5 5 3 12 2 3 4 6 7 5 11 19 9 16 15 13 19 29 27 25 30 34 30 35 32 30 29 27 27 29 31 33 34 32 30 26 23 24 24 22 17
4 4 11 9 13 6 14 11 5 5 5 3 2 9 8 14 18 21 22 28 33 32 28 24 25 28 34 34 32 31 28 28 29 32 34 35 35 28 27 26 23 23 20 15
3 4 2 7 3 11 5 10 10 9 13 9 9 12 10 13 9 3 10 16 21 28 28 27 24 26 34 36 34 33 31 29 30 31 33 35 30 26 27 25 25 22 18 13
1 5 3 1 6 10 9 1 4 5 5 9 6 6 10 5 5 3 9 16 22 25 21 25 22 25 33 37 37 34 30 31 31 32 32 30 27 28 27 26 24 19 14 10
4 4 3 4 9 10 8 7 7 3 4 5 7 8 7 6 6 3 9 20 24 31 20 24 27 27 33 38 39 36 34 34 35 33 31 30 30 29 27 24 20 15 12 9
7 3 5 11 10 15 19 19 17 7 11 5 4 18 4 6 4 5 11 19 27 28 17 17 26 28 33 38 38 37 36 36 34 33 31 31 31 29 25 21 17 13 10 7
8 4 5 6 2 6 10 18 19 12 4 13 6 11 4 2 5 9 10 18 26 21 10 13 22 27 32 37 38 38 37 35 34 32 32 32 30 26 22 18 14 12 8 7
13 4 7 9 15 9 8 14 19 18 7 17 19 21 15 15 13 10 9 18 22 16 8 11 18 25 32 38 40 40 38 34 33 32 31 29 27 23 19 15 13 9 7 6
9 7 10 19 26 23 24 25 17 20 24 11 19 21 16 13 12 2 8 15 19 16 10 13 20 27 34 38 38 37 35 33 31 31 28 26 23 20 16 14 11 8 6 6
5 5 4 21 21 22 19 16 15 20 21 23 23 26 12 7 7 3 9 16 21 18 15 15 20 29 36 38 38 36 34 33 31 29 26 23 20 18 15 12 9 7 5 5
4 3 3 13 10 17 5 5 9 11 16 14 17 17 2 5 10 13 16 23 26 22 18 19 23 33 37 37 35 35 34 32 29 26 24 21 18 15 12 10 7 5 4 7
6 2 3 8 9 4 3 2 8 15 14 17 18 13 6 7 14 26 31 28 19 17 19 21 27 34 35 34 33 32 31 30 27 25 22 19 16 13 11 8 5 3 5 7
13 6 4 4 7 8 1 6 1 4 6 18 18 17 16 17 9 15 11 7 3 13 17 21 29 32 32 31 31 31 30 27 26 23 19 16 13 11 9 5 3 4 6 8
5 11 3 3 4 4 3 4 2 5 3 5 12 12 7 7 2 2 6 3 8 12 17 23 27 30 30 31 30 29 29 27 23 20 17 14 12 9 6 4 3 4 7 10
4 3 8 7 4 7 5 5 2 2 4 6 4 9 8 3 3 3 6 11 12 15 19 23 26 28 29 29 29 28 27 24 21 18 15 13 10 7 4 3 3 6 9 12
6 5 4 2 3 6 1 2 2 3 10 8 8 2 13 11 11 10 13 16 19 21 23 24 27 29 30 29 29 27 25 22 19 16 13 11 8 5 3 2 5 8 12 15
2 5 3 6 5 4 4 7 8 9 11 11 8 2 16 16 12 15 19 19 21 22 24 25 28 31 30 28 25 26 23 20 17 14 11 9 6 3 2 3 7 11 14 17
3 3 2 3 4 5 9 5 7 11 7 7 1 6 12 12 12 16 18 20 20 20 22 25 29 31 30 26 23 19 20 17 13 12 10 7 5 3 3 6 10 13 16 18
3 3 3 5 7 10 14 12 5 4 6 8 10 12 15 17 19 20 21 21 22 23 25 27 30 30 29 25 22 18 16 15 13 10 8 6 4 2 5 8 12 15 17 18
5 6 4 5 4 2 3 2 2 2 6 10 15 21 18 20 25 23 24 23 25 27 28 29 28 28 28 24 20 18 15 11 8 8 7 5 2 4 7 10 12 14 15 17

GFSCGP_850_spd_030.txt.gz
Wind_Speed
9 6 11 14 13 12 4 7 10 9 9 18 21 24 22 26 30 30 31 31 32 31 27 24 23 22 21 29 31 27 25 24 25 25 25 30 36 35 33 29 28 26 25 23
6 11 12 8 10 12 14 16 17 15 13 12 20 33 25 27 32 35 33 34 35 35 33 31 28 26 24 24 27 30 27 27 27 26 27 25 35 38 36 34 30 27 26 23
8 2 4 13 12 13 15 16 15 18 17 18 21 27 16 8 12 19 28 34 35 34 33 33 33 33 28 25 26 28 29 27 28 26 27 34 39 38 36 32 30 30 27 24
9 11 6 9 12 12 15 8 13 14 11 8 2 11 17 15 13 12 15 18 23 24 30 34 33 33 34 29 30 29 30 30 29 30 29 33 39 39 34 32 32 31 25 22
3 6 11 13 15 10 7 6 7 9 12 14 17 7 11 3 11 10 14 18 18 19 24 28 30 32 31 32 37 33 31 30 30 28 29 30 36 38 37 36 35 31 26 22
10 2 5 8 10 13 0 7 10 11 8 9 18 15 20 14 10 8 7 13 16 16 17 21 25 24 27 27 35 36 34 32 31 29 29 32 37 41 35 38 35 31 27 25
5 16 8 8 7 7 11 3 3 4 6 8 2 11 22 6 6 13 21 18 18 21 24 22 20 22 23 26 33 35 35 34 32 30 30 34 37 36 32 36 34 30 26 24
3 3 13 12 15 5 13 13 6 6 6 8 2 12 8 9 11 15 9 12 14 18 18 21 21 21 23 27 32 35 36 35 32 31 32 32 34 35 34 36 32 30 27 24
5 5 2 11 7 12 5 10 13 13 21 13 13 22 25 25 22 14 10 6 13 15 18 16 19 19 21 25 32 36 36 34 33 31 33 32 34 36 36 35 32 29 25 22
2 4 6 2 8 11 10 0 4 6 6 11 14 17 13 9 3 9 2 7 15 17 19 15 13 17 19 22 30 32 32 33 32 33 32 33 32 34 35 32 30 27 23 20
7 5 3 4 13 14 9 6 6 8 9 7 14 12 2 11 12 5 2 7 11 16 19 17 9 11 15 20 25 31 31 32 33 33 33 33 33 33 32 30 29 26 22 18
11 4 8 14 10 13 15 16 20 9 12 10 17 20 6 3 8 4 7 10 13 13 16 15 6 9 14 20 24 28 31 32 33 34 34 33 31 30 32 30 28 24 19 15
11 6 4 4 3 6 9 16 23 19 13 19 10 14 3 8 13 9 7 12 14 13 14 12 4 7 13 19 23 28 31 33 34 34 33 32 32 33 32 29 25 21 16 12
13 5 8 9 11 4 10 18 13 17 12 22 21 33 23 15 15 14 21 16 12 9 10 9 3 7 13 19 24 28 33 34 36 34 34 34 34 33 30 26 22 17 14 11
8 5 10 18 24 21 23 26 25 18 24 16 29 23 25 17 18 18 21 11 12 8 8 10 4 9 15 20 27 31 33 35 35 35 35 34 33 30 26 23 19 15 11 8
7 5 5 15 22 21 20 21 20 17 18 19 27 28 25 23 26 17 15 15 17 10 11 6 7 12 18 25 30 35 35 35 35 35 34 33 30 27 23 19 16 12 8 5
5 3 3 7 15 24 6 5 8 7 9 10 15 20 14 13 8 11 14 17 14 14 13 10 12 15 21 28 33 36 37 35 33 33 31 30 27 23 20 16 12 9 6 4
5 4 2 7 15 4 2 11 12 10 14 12 18 18 15 12 10 16 20 19 23 17 9 13 16 20 27 30 35 36 35 34 34 31 28 25 23 20 17 13 10 7 4 3
14 9 4 4 5 12 7 8 5 2 6 12 9 13 10 12 11 16 8 8 6 6 14 17 19 25 28 32 34 35 35 33 30 28 26 22 19 16 13 10 8 5 3 4
11 13 7 3 4 4 2 5 6 2 3 11 9 9 9 3 4 4 11 9 12 15 19 22 23 27 28 30 32 32 33 31 28 25 22 19 16 12 10 9 6 4 3 5
4 3 9 7 4 8 4 5 1 5 7 14 11 8 4 1 3 4 7 11 14 17 20 24 25 27 29 31 32 32 31 28 25 21 19 17 14 11 9 7 5 3 4 7
7 6 5 5 5 5 2 3 3 3 10 14 7 3 7 9 8 9 10 14 17 22 23 26 28 28 29 30 30 30 28 24 22 20 17 15 13 11 8 5 3 3 7 10
4 5 2 5 4 1 3 10 8 8 10 8 7 2 13 13 11 9 13 16 18 22 25 25 27 29 28 28 27 27 26 24 21 18 16 14 12 9 6 2 3 6 10 12
5 5 4 3 3 5 4 4 4 6 4 4 4 7 14 16 14 15 16 17 20 22 24 26 28 29 28 27 25 22 24 21 18 17 16 13 9 6 2 2 6 9 12 13
2 5 4 6 11 9 4 2 1 3 5 4 7 11 13 15 17 19 20 22 23 24 25 27 29 29 28 26 24 22 21 19 18 16 13 9 6 3 2 5 8 11 13 13
7 5 4 4 3 3 3 2 3 2 6 9 13 16 16 18 22 23 24 24 25 27 28 29 30 30 30 26 25 22 19 16 13 11 9 7 4 1 4 8 10 12 13 14

GFSCGP_850_spd_033.txt.gz
Wind_Speed
10 8 13 17 17 15 9 9 11 10 8 16 21 22 20 23 27 27 28 29 31 31 28 27 26 28 33 35 33 30 28 25 23 24 26 27 31 29 29 28 32 27 26 24
5 12 15 11 10 11 13 13 15 14 11 12 18 28 25 27 29 31 32 34 35 34 33 33 32 31 32 34 34 32 30 27 26 26 27 27 30 34 37 38 32 32 31 26
11 2 4 14 11 12 13 12 11 14 17 18 21 25 17 10 14 22 30 34 37 38 35 35 36 37 34 35 36 34 32 29 29 27 25 29 32 40 43 40 36 35 31 27
10 8 5 9 13 11 12 8 8 10 8 6 4 11 15 16 16 13 15 18 20 23 27 32 35 34 37 37 36 34 32 32 31 30 32 36 38 39 40 39 38 36 29 28
4 6 12 12 12 8 7 3 6 8 10 13 14 7 13 5 9 11 13 17 16 17 20 23 24 31 34 32 35 34 31 30 30 33 31 35 32 28 32 36 37 32 30 29
10 4 5 9 7 10 4 4 7 9 5 8 14 16 19 11 16 16 12 21 7 12 12 15 19 21 26 31 30 34 34 31 30 31 34 32 28 31 33 37 37 33 33 30
10 16 8 10 8 6 7 1 2 3 4 7 6 9 18 17 16 7 6 12 16 13 16 18 22 23 22 27 32 29 33 32 32 33 30 28 29 31 31 34 37 37 35 32
8 6 17 12 14 5 12 9 4 5 7 11 11 10 8 8 6 8 14 18 15 16 13 14 18 22 21 24 28 31 30 31 31 31 29 26 32 31 34 35 35 35 33 29
6 3 1 10 7 11 5 8 10 13 18 11 9 20 22 24 23 20 20 19 16 11 13 13 17 17 21 22 25 30 30 31 31 28 27 29 32 30 35 31 35 34 32 29
2 3 6 6 6 9 11 3 2 4 5 11 11 19 14 13 16 11 5 6 10 10 13 14 16 14 17 19 24 28 28 29 28 27 29 30 30 34 34 29 35 35 32 26
7 4 5 3 11 13 10 7 6 6 7 6 14 11 8 12 8 12 11 9 8 12 14 16 15 11 13 16 21 25 27 26 28 29 30 32 31 33 32 30 35 32 26 24
8 3 6 12 9 9 13 13 17 7 8 6 11 19 16 12 14 4 7 11 8 11 13 14 12 5 7 13 19 23 26 26 29 29 29 30 31 32 32 33 31 27 24 22
10 5 3 2 3 12 11 16 17 18 14 20 15 16 2 6 10 20 17 16 14 9 13 12 9 2 7 12 18 21 24 26 27 31 29 30 32 32 31 32 28 25 23 20
6 5 8 7 6 5 6 15 16 12 8 17 22 31 27 24 20 20 20 26 25 15 11 9 5 3 9 13 18 21 23 26 29 30 29 32 33 33 33 30 28 25 20 15
5 4 11 16 20 18 19 22 22 18 19 14 28 26 28 23 22 13 22 19 16 12 9 5 3 5 11 16 19 23 23 26 29 32 32 33 33 32 31 29 26 22 17 13
5 4 4 12 19 16 16 22 16 15 17 16 21 26 24 22 21 14 19 18 16 15 13 5 6 10 14 18 20 22 25 30 33 35 35 35 33 30 28 25 21 17 12 10
5 3 3 6 12 20 7 2 8 11 13 11 10 18 15 14 13 11 9 11 15 14 9 7 8 13 16 19 24 27 31 35 38 38 37 33 31 29 22 19 17 14 11 8
5 6 3 6 12 3 1 5 8 8 12 8 16 16 13 11 17 16 16 15 20 19 15 12 14 17 19 22 27 32 36 36 36 34 31 26 26 24 21 18 15 10 8 7
12 6 3 3 6 15 8 5 4 2 5 7 10 11 8 8 10 7 12 9 8 9 15 15 18 20 21 25 31 36 36 34 31 29 27 27 23 23 20 16 11 8 7 4
10 12 5 3 4 4 4 5 2 2 2 10 11 11 8 2 3 3 13 12 15 16 18 20 21 23 23 28 32 34 33 30 28 28 26 23 20 17 15 10 9 8 5 4
4 2 8 8 5 9 9 5 1 5 7 14 13 10 8 5 4 3 9 13 15 18 19 25 23 24 25 28 30 30 27 27 26 24 22 19 16 13 11 11 8 5 3 4
8 7 4 4 4 7 3 5 4 8 14 10 6 4 5 7 8 10 13 14 17 21 23 23 27 26 24 23 27 28 28 27 25 22 20 17 14 13 11 7 5 2 3 6
5 7 1 8 5 6 9 11 14 9 11 8 5 3 7 7 8 11 13 15 16 18 20 22 26 27 25 25 23 26 25 23 21 19 17 15 13 10 7 4 2 2 5 8
6 7 4 3 3 7 15 11 7 7 6 5 2 4 9 7 8 11 13 15 17 18 19 22 25 26 24 22 20 18 20 19 18 17 15 12 10 7 4 1 2 5 8 9
3 4 5 9 14 7 2 7 4 4 5 4 3 7 8 11 10 11 14 15 17 20 23 23 24 24 25 23 21 21 20 18 16 14 12 10 7 4 1 2 5 7 10 11
9 9 8 6 6 5 5 5 4 4 4 5 7 11 9 11 13 14 15 16 18 21 22 23 24 25 26 24 23 21 18 14 12 11 9 7 5 2 1 5 9 10 11 13

GFSCGP_850_spd_036.txt.gz
Wind_Speed
13 4 7 12 10 13 12 8 8 11 9 6 9 15 15 20 23 25 26 27 29 33 29 28 28 30 32 36 36 36 36 36 36 34 35 34 33 31 29 26 27 33 32 27
3 7 10 11 11 10 8 7 10 9 9 10 10 21 18 21 24 29 29 30 31 31 31 35 33 31 35 35 36 36 34 34 35 38 36 36 35 34 31 30 33 35 34 32
8 2 13 11 7 4 6 6 7 9 11 10 15 18 13 10 23 32 36 37 34 34 35 36 36 35 34 38 39 35 35 34 33 34 35 35 34 36 36 35 39 42 39 33
7 7 5 4 9 7 6 3 6 5 6 4 9 7 7 10 9 7 15 15 23 30 34 36 37 35 33 37 37 41 35 38 37 36 37 41 42 43 42 42 44 43 36 35
4 4 5 5 6 6 3 7 5 5 6 9 4 4 6 6 6 6 8 13 12 17 20 23 25 28 35 30 30 38 40 35 38 39 40 43 44 44 41 43 43 39 34 33
5 4 1 4 3 4 6 2 4 6 4 5 12 9 6 0 2 6 7 16 23 4 1 7 11 14 18 22 34 25 36 41 36 38 42 45 45 43 40 40 41 39 37 35
4 8 3 4 4 5 3 2 2 2 3 6 3 8 12 15 15 16 8 10 4 3 5 11 13 16 20 25 28 30 30 38 41 35 42 42 43 41 36 36 37 38 39 36
6 4 15 9 9 4 7 4 3 5 3 3 6 7 6 8 10 7 7 11 17 4 5 7 13 18 24 23 26 29 32 31 38 37 39 40 39 34 33 29 31 38 37 37
6 3 3 11 6 9 5 6 2 3 5 2 5 6 9 13 14 11 13 20 18 11 3 6 14 20 22 23 24 28 30 32 34 37 38 37 33 33 30 28 31 36 37 36
4 3 3 8 6 10 6 3 1 1 3 6 6 8 9 7 8 6 9 5 6 7 1 6 14 23 20 20 22 25 29 34 34 37 36 35 34 34 27 27 34 37 36 34
3 2 2 5 8 9 6 5 4 3 3 4 5 4 2 6 7 8 8 1 3 3 6 9 14 22 17 16 17 22 28 30 32 32 36 36 37 32 28 30 33 35 36 34
5 3 3 8 7 12 8 8 9 3 5 4 5 12 22 16 3 8 14 9 14 14 13 11 11 19 16 15 15 23 26 28 34 37 38 38 34 29 31 32 33 36 34 30
7 3 2 2 3 8 5 7 11 11 7 13 9 10 4 15 22 25 17 21 26 10 15 8 8 14 12 11 12 19 24 32 35 37 38 33 30 32 31 31 34 33 31 27
11 3 5 3 2 4 4 5 8 7 6 12 21 31 25 23 22 18 22 24 28 22 17 7 5 9 5 10 11 19 27 31 32 35 32 30 33 34 33 32 32 30 26 26
2 2 4 7 11 9 11 15 17 16 18 14 24 25 28 23 24 22 24 22 16 17 7 6 3 4 8 9 16 23 28 30 31 28 27 31 33 32 34 33 31 27 24 21
3 3 3 5 13 16 18 17 17 15 16 15 18 24 19 20 24 14 13 17 14 9 10 7 4 7 9 12 22 27 28 27 25 25 30 35 35 35 34 32 30 24 22 19
5 2 1 4 7 10 7 5 6 8 11 10 9 15 20 17 10 5 5 11 14 17 11 5 7 11 15 18 22 23 23 23 26 33 36 37 36 33 32 27 24 22 17 12
3 4 2 4 8 2 3 9 9 8 11 10 14 15 15 13 10 7 10 11 23 23 18 11 13 19 19 17 18 21 27 31 35 38 39 36 33 30 25 25 21 16 12 10
8 1 2 2 3 8 7 3 2 4 4 8 8 8 10 12 12 7 16 20 10 9 10 17 21 21 20 21 23 28 34 36 35 34 31 29 27 25 20 16 18 15 11 7
10 9 3 3 3 3 1 4 4 5 2 2 3 6 9 12 5 4 15 16 18 22 21 21 19 18 20 24 26 30 31 30 28 27 28 25 21 17 22 19 13 11 7 1
3 4 8 7 3 7 7 3 8 2 4 6 5 4 7 3 2 5 10 13 14 16 16 16 21 24 24 25 27 32 33 32 28 27 22 19 18 19 15 14 11 5 3 2
6 6 4 3 4 7 2 1 3 3 6 9 5 1 5 7 6 10 13 17 18 18 17 17 20 23 23 26 28 30 29 27 25 21 22 23 19 14 13 9 7 5 2 2
4 6 4 6 5 7 17 4 7 6 8 6 8 3 5 8 9 12 16 16 21 20 23 27 28 29 26 26 27 26 25 26 26 25 22 20 18 15 10 7 5 3 1 4
5 8 2 1 4 5 3 7 8 9 7 8 4 2 6 8 9 13 15 17 18 19 23 26 28 29 27 22 24 26 27 25 22 22 20 17 13 10 7 5 2 3 5 7
1 3 3 5 9 13 3 7 7 8 7 5 4 5 7 8 10 11 15 17 20 22 21 20 24 26 26 24 26 26 24 22 20 17 15 13 9 7 5 3 3 5 7 8
5 5 4 4 3 1 2 6 7 5 4 3 6 7 8 8 11 13 16 18 20 20 19 20 23 26 27 26 26 23 19 15 14 14 12 9 7 5 3 3 4 7 9 11

GFSCGP_850_spd_039.txt.gz
Wind_Speed
7 3 5 9 6 4 5 6 5 4 5 2 6 9 10 17 23 26 29 30 37 36 34 28 25 28 36 39 37 38 36 40 41 40 37 35 37 35 34 33 30 29 31 27
3 2 5 8 9 10 5 7 5 6 5 4 11 20 17 17 22 29 31 27 36 37 41 40 35 31 29 29 34 38 39 38 37 42 39 36 36 38 36 34 33 31 33 34
5 2 7 5 2 7 2 4 3 5 7 6 7 9 8 7 20 30 33 37 35 41 43 39 37 33 34 33 32 35 32 29 38 41 41 40 37 38 39 38 36 36 35 35
1 1 3 4 3 3 0 4 5 4 4 4 6 6 7 9 10 5 19 27 33 37 38 40 37 35 34 34 31 33 37 36 30 41 46 45 43 45 43 42 42 39 37 39
6 3 5 3 2 5 3 6 5 4 3 5 3 2 8 6 6 6 7 15 22 22 22 24 24 23 25 27 37 24 37 38 38 33 46 46 49 44 44 43 44 42 41 42
4 6 3 6 2 4 5 4 3 3 2 2 8 7 4 3 3 3 3 12 12 13 12 9 7 5 4 10 21 27 33 30 39 41 41 48 50 47 45 45 45 43 44 41
2 2 3 3 4 2 4 5 2 2 2 6 2 4 7 9 10 6 9 11 5 6 6 7 8 9 11 11 13 18 26 30 31 42 43 48 49 48 45 45 46 46 43 40
5 3 8 5 5 6 6 5 4 5 3 4 1 7 6 9 17 16 15 12 16 11 12 11 11 10 9 17 22 25 27 32 33 35 45 42 47 47 43 42 46 45 41 37
4 3 4 9 3 5 3 3 4 1 2 2 5 7 8 8 8 8 9 10 15 18 11 11 9 8 5 12 16 21 28 30 30 34 39 45 46 43 40 41 40 38 37 36
1 4 5 4 5 5 5 4 2 2 2 5 6 5 8 4 5 7 9 14 5 8 6 4 6 8 14 19 19 17 20 26 31 33 39 43 44 39 38 37 36 34 35 37
1 2 2 2 5 6 4 5 4 2 3 3 4 5 5 6 2 4 7 12 10 13 13 12 15 15 15 17 18 17 18 24 29 34 39 39 38 36 35 34 30 31 36 39
3 4 3 8 6 8 5 6 6 4 4 4 3 7 12 17 14 11 22 30 36 35 23 17 14 12 13 18 19 19 15 24 31 33 33 35 33 32 32 29 28 32 38 36
6 1 2 1 3 1 5 6 8 3 2 8 3 7 5 15 22 35 31 31 34 30 27 18 16 10 12 13 18 16 15 25 28 31 31 30 33 32 30 28 31 34 36 36
9 4 5 5 3 3 3 3 6 9 4 8 15 23 26 23 23 24 28 29 31 29 27 19 14 7 5 6 13 15 17 23 28 30 31 32 31 31 30 30 32 32 32 32
4 2 1 5 6 4 6 9 9 10 15 10 25 21 25 26 19 25 26 13 12 13 10 15 10 4 3 5 10 12 19 27 30 32 29 28 30 29 29 30 31 32 32 29
2 2 2 5 9 10 9 13 13 15 18 19 23 25 19 21 25 19 6 10 18 13 12 7 6 6 2 5 10 15 22 27 28 28 27 26 27 29 31 34 34 30 27 25
5 3 1 4 5 6 5 7 12 5 5 6 9 14 15 18 13 10 14 17 16 23 18 9 2 5 4 5 12 17 19 20 20 21 23 26 29 32 33 33 28 23 21 19
5 3 1 3 4 1 4 5 6 10 7 10 11 15 12 15 12 13 18 18 21 17 22 10 9 10 10 11 16 17 16 16 19 23 27 30 32 33 32 27 25 23 19 13
4 3 1 1 2 6 3 2 2 6 6 5 7 7 13 15 7 6 19 16 16 8 1 8 14 15 15 15 17 16 18 20 24 28 30 29 27 24 26 25 21 15 12 12
5 3 1 2 2 3 2 2 1 4 4 4 4 6 6 9 5 3 14 13 13 11 13 16 15 13 12 14 16 16 19 20 19 20 21 23 24 24 20 17 16 14 12 12
4 3 5 5 4 6 8 6 6 3 5 2 4 5 6 2 2 2 6 8 8 10 9 10 11 11 11 11 12 19 20 22 25 26 26 25 19 19 17 17 16 15 10 6
6 5 3 5 4 6 5 3 3 4 6 7 4 2 4 7 7 5 8 8 9 10 10 9 12 13 13 12 16 22 24 27 28 26 23 23 22 19 16 16 10 8 7 3
3 6 4 7 6 7 5 4 5 6 9 6 6 3 6 9 9 10 12 13 13 14 15 15 17 18 18 20 21 23 26 26 25 22 20 20 20 18 13 8 8 6 4 2
4 6 3 2 4 6 12 2 5 7 8 8 4 5 9 9 13 14 14 15 17 18 19 20 20 18 18 19 23 22 21 20 20 21 21 18 13 13 11 8 6 2 2 4
4 6 2 4 8 6 2 4 7 8 7 4 1 7 9 11 14 14 16 18 18 17 18 18 19 19 19 20 21 21 20 20 20 19 17 15 12 10 8 5 2 1 2 4
7 6 3 4 5 3 5 7 8 9 6 1 4 8 8 9 13 16 19 22 21 19 18 19 21 22 22 23 23 22 20 17 16 16 14 12 10 9 6 2 1 3 4 7

GFSCGP_850_spd_042.txt.gz
Wind_Speed
8 3 4 8 4 3 4 1 2 4 3 5 7 5 12 19 17 20 28 31 37 39 37 30 25 25 28 36 41 39 37 34 40 44 40 37 37 33 33 30 28 30 30 28
3 2 8 14 11 7 2 3 4 6 1 3 7 16 16 15 16 25 33 34 35 41 42 39 35 32 30 24 30 38 39 34 37 44 44 44 40 38 37 35 33 34 34 33
5 3 6 6 7 7 4 4 2 5 5 1 7 10 6 6 12 20 30 33 34 40 42 42 42 39 38 37 32 26 29 34 39 40 45 47 43 40 38 38 38 39 38 36
4 1 6 6 2 3 2 3 2 2 4 4 5 6 6 8 10 7 14 15 23 26 27 28 30 31 35 34 32 30 30 28 30 25 44 46 47 44 43 42 42 42 42 40
4 5 6 4 4 4 4 5 4 2 3 4 2 2 8 4 6 5 4 3 11 18 24 25 22 23 21 27 31 32 33 33 31 31 33 39 47 49 46 46 44 43 43 41
3 4 3 5 4 4 7 5 6 4 3 2 4 4 6 3 4 1 4 15 18 15 15 18 18 11 10 16 19 24 28 34 32 30 36 38 40 50 49 48 47 44 43 42
2 2 2 5 6 3 5 6 2 4 3 6 1 3 9 9 11 4 8 22 12 1 4 7 10 11 11 11 12 16 18 24 29 30 32 35 42 40 48 49 46 44 44 44
4 2 6 2 4 6 3 5 4 5 2 4 2 5 6 6 11 8 6 10 8 12 12 11 13 15 14 14 16 20 22 26 29 30 31 35 38 41 44 47 45 43 42 42
4 2 2 5 3 6 3 2 3 3 3 3 4 7 9 3 5 6 13 19 20 18 10 11 10 11 11 9 8 11 15 17 25 33 37 32 38 40 39 43 46 41 39 39
5 3 2 2 5 2 4 6 3 3 1 4 5 5 6 4 4 5 7 12 17 18 18 18 18 19 13 14 16 19 20 22 23 26 33 32 33 36 37 44 44 41 38 38
0 4 2 4 3 6 4 2 2 3 3 3 4 6 6 4 2 7 7 17 22 26 30 31 29 28 20 14 12 16 21 23 24 24 28 30 29 35 43 41 38 38 35 35
1 4 3 7 2 3 4 5 5 4 3 2 2 8 7 4 2 10 25 27 36 36 36 39 41 29 23 17 16 19 22 25 26 26 28 29 26 31 38 35 35 32 31 31
4 2 2 3 5 3 3 5 4 4 2 6 1 6 1 8 20 28 25 30 31 29 34 38 25 22 21 15 16 22 25 24 23 25 28 27 25 29 30 30 28 27 27 29
7 3 4 5 5 3 3 5 6 8 3 3 9 17 22 17 21 22 30 27 22 15 23 22 17 15 16 11 12 17 20 19 18 22 24 24 25 26 24 23 23 23 26 30
4 3 3 5 6 2 5 5 6 8 17 6 14 16 25 22 22 23 24 16 17 18 20 19 7 11 11 8 11 16 17 15 19 22 26 25 26 25 26 26 24 26 28 28
2 1 2 4 4 7 7 10 11 12 15 17 21 23 23 28 19 17 14 16 17 19 16 14 4 5 6 7 10 11 11 13 18 21 22 23 24 24 25 24 25 26 25 27
4 3 2 4 2 4 5 10 12 6 6 8 7 10 9 13 12 6 12 15 19 24 19 20 11 6 8 8 7 4 5 10 15 20 21 22 23 22 22 22 21 22 25 25
5 4 3 3 3 1 4 0 6 11 9 11 10 11 12 10 13 1 15 16 21 22 9 8 10 9 7 5 5 6 9 11 12 15 17 19 20 20 22 24 22 21 21 20
4 3 1 1 2 5 5 3 3 5 8 5 7 9 11 12 8 4 17 13 14 13 6 7 10 10 10 8 8 7 9 9 10 14 14 14 16 21 20 21 22 22 20 15
3 3 2 2 2 2 3 0 3 4 4 4 6 7 6 8 4 2 15 11 9 8 5 6 8 9 8 7 6 4 7 9 11 14 15 14 18 21 23 23 24 18 16 13
3 3 5 4 2 6 9 5 6 3 4 4 6 8 4 2 1 5 8 7 6 5 6 5 5 5 6 7 8 11 14 14 15 16 18 21 21 23 20 18 15 14 14 12
6 6 4 3 3 7 4 3 2 3 10 8 7 6 6 5 4 0 2 5 6 5 6 5 8 10 9 8 12 13 14 19 20 22 24 22 18 19 19 17 16 12 10 9
4 5 3 6 5 5 6 6 10 11 13 8 8 7 10 9 8 5 4 4 7 10 12 11 14 15 14 15 13 18 21 19 20 20 20 20 20 18 16 9 11 10 7 4
3 4 3 0 3 8 21 21 12 10 12 12 8 7 13 11 11 9 8 7 9 11 15 16 17 19 19 19 18 17 18 17 18 18 19 18 16 15 12 10 8 5 3 2
4 3 3 5 10 8 5 5 7 11 11 10 6 8 12 12 13 11 11 10 10 11 12 14 15 16 17 17 17 16 17 17 17 16 16 15 14 12 10 8 5 3 2 3
4 4 3 5 8 6 14 15 12 12 11 7 4 8 12 13 13 13 13 12 12 12 12 13 15 16 17 16 16 17 15 14 14 15 15 13 11 9 5 2 2 3 5 6

GFSCGP_850_spd_045.txt.gz
Wind_Speed
8 4 9 13 8 3 5 4 3 3 2 3 6 5 12 16 17 20 29 35 39 41 38 35 33 29 26 25 36 44 40 33 29 32 40 42 41 37 38 35 31 30 33 29
4 4 4 4 2 3 0 2 2 4 0 2 6 12 16 16 14 24 30 35 39 42 43 40 37 34 32 28 25 25 38 39 33 34 34 44 46 43 38 37 36 34 33 32
6 4 13 10 6 5 4 4 3 4 4 2 7 8 5 5 8 14 26 31 35 37 40 42 42 41 39 38 34 31 25 25 33 35 33 41 46 48 44 42 40 39 38 33
4 4 12 9 7 6 4 1 3 3 4 3 5 6 6 6 11 6 19 22 19 19 21 23 23 21 21 24 32 34 28 27 27 25 32 40 43 47 50 46 41 41 41 37
2 4 6 5 3 4 4 5 5 3 3 3 2 1 8 5 6 5 4 8 13 22 15 17 16 17 15 13 16 24 27 28 27 26 26 29 37 43 46 48 46 44 43 41
3 3 3 3 4 2 8 5 6 4 2 2 2 3 6 3 1 7 7 29 23 19 14 13 13 12 13 14 13 14 22 28 28 29 29 28 32 37 41 43 45 44 44 42
4 3 2 5 7 6 5 5 2 4 3 4 3 2 9 8 7 4 9 19 22 18 14 11 7 6 7 9 11 14 17 20 23 27 32 33 30 33 38 37 40 46 47 46
4 1 3 1 4 5 1 5 4 4 1 4 1 5 6 3 7 5 10 15 23 27 26 20 13 12 12 13 15 17 19 21 22 23 26 27 28 31 30 35 39 39 45 48
4 2 1 2 3 5 4 1 2 5 3 3 3 6 9 4 7 9 15 20 27 29 26 26 26 23 24 20 16 18 20 19 19 20 25 32 36 34 32 31 34 38 41 44
3 4 2 2 5 5 3 7 3 3 2 3 3 5 4 2 3 4 7 15 22 22 31 32 30 27 25 24 24 21 19 19 21 24 27 29 32 34 33 30 31 38 39 43
4 3 1 5 3 6 3 1 4 4 3 3 3 6 6 3 1 6 9 22 21 28 30 32 33 37 31 30 26 23 18 20 21 24 26 29 31 28 28 28 32 35 42 42
1 4 3 2 1 1 3 5 5 4 3 2 1 7 3 5 2 10 22 23 27 30 27 35 29 34 31 21 19 19 19 21 23 26 26 26 25 24 25 27 32 36 38 34
4 2 3 5 4 3 2 3 4 4 3 5 3 5 1 7 17 25 24 28 28 25 29 29 33 33 17 13 9 14 18 21 25 25 23 19 19 20 23 25 26 29 29 29
6 3 4 5 4 3 2 4 6 6 3 3 7 9 17 17 16 22 25 19 18 20 22 25 26 16 7 11 8 17 20 23 24 22 18 14 16 18 19 20 23 25 25 25
4 3 2 4 5 3 4 4 7 7 10 5 2 6 18 18 18 21 14 17 19 21 22 21 21 14 8 7 11 15 19 20 18 16 13 11 14 15 17 19 21 22 23 21
2 1 2 4 3 6 4 7 8 8 9 12 18 22 23 29 20 13 11 14 18 21 23 20 13 16 8 9 12 15 16 16 12 9 7 10 14 17 18 20 21 21 20 19
3 4 2 4 3 4 5 10 11 5 5 9 12 14 12 8 11 11 11 15 16 20 23 19 10 12 11 13 13 13 13 9 6 4 8 10 13 18 21 20 21 19 19 21
5 4 2 3 3 1 5 3 7 12 10 13 11 12 13 10 13 8 8 15 16 17 18 12 5 7 10 11 9 9 7 4 3 3 1 5 10 11 15 17 17 19 19 18
3 3 1 1 2 6 2 2 4 5 6 6 11 11 11 14 10 5 9 11 11 12 11 7 3 5 5 5 5 4 3 4 5 8 8 8 11 15 16 19 22 22 21 21
4 4 2 0 2 3 1 3 3 4 3 2 6 6 5 9 3 0 9 10 8 8 6 3 2 2 2 2 1 1 5 8 10 12 13 18 22 22 22 23 23 23 20 17
3 2 4 5 3 6 7 5 6 2 3 6 7 10 9 3 4 4 5 8 8 4 3 2 1 1 1 1 1 4 7 9 13 15 18 18 18 19 20 20 18 17 15 12
6 5 3 3 3 6 4 3 1 3 5 10 13 9 11 10 7 2 1 5 8 4 3 2 2 4 3 4 3 5 8 11 13 16 20 21 18 17 17 17 17 14 11 10
4 6 4 7 5 4 2 9 14 10 10 11 13 12 10 11 9 4 2 3 7 7 7 6 9 10 12 10 12 19 20 19 20 18 18 18 18 18 15 12 12 10 7 4
3 8 3 1 3 3 16 17 9 7 12 13 13 12 9 12 10 7 5 6 9 8 10 12 14 16 17 16 16 16 17 15 16 18 19 17 15 14 12 9 8 5 3 1
4 3 3 5 7 14 5 5 11 13 14 13 12 11 8 11 11 10 9 8 10 11 11 12 14 15 17 16 16 15 15 14 15 16 15 13 11 9 8 6 5 2 1 2
4 2 2 4 10 9 12 16 17 14 14 13 11 9 9 12 11 12 11 10 10 12 12 11 13 13 15 14 13 13 12 11 10 12 11 9 7 7 5 3 2 3 4 7

GFSCGP_850_spd_048.txt.gz
Wind_Speed
19 8 13 17 7 5 5 4 4 2 2 3 6 5 12 18 15 20 26 29 34 36 35 33 30 29 29 26 26 31 35 37 33 33 32 31 39 39 37 36 34 32 30 28
1 6 4 11 7 6 5 5 2 2 1 2 6 10 15 14 10 22 26 32 35 36 37 39 38 35 31 30 27 25 28 29 33 37 36 36 34 36 38 40 35 34 35 32
5 5 12 5 6 8 3 3 3 3 3 2 7 6 5 4 5 9 15 19 22 21 24 24 21 21 22 27 33 31 28 28 23 27 35 39 38 40 40 40 41 39 36 36
4 5 12 12 6 3 3 4 3 4 3 3 4 5 7 5 9 4 13 19 10 13 16 16 15 13 10 10 14 25 33 34 30 27 27 36 39 40 38 39 39 41 40 37
1 8 10 4 6 9 3 5 5 3 4 2 3 3 8 4 5 6 10 25 26 19 19 21 18 10 7 6 8 12 17 27 32 26 26 26 30 35 37 39 40 44 46 42
4 4 2 3 5 2 10 5 6 4 2 2 2 3 6 2 2 5 6 21 27 29 28 22 18 15 11 8 7 8 10 14 20 24 25 26 28 29 31 32 35 37 43 46
4 3 2 5 7 5 3 4 2 4 3 3 1 1 7 4 4 1 3 13 24 23 24 25 24 21 18 16 15 12 11 10 12 17 22 25 27 30 33 34 35 35 37 43
4 1 1 1 3 6 3 4 4 4 1 2 1 5 4 4 4 7 9 19 23 22 24 26 25 25 23 21 20 18 16 15 14 17 18 19 20 22 28 33 35 38 37 36
4 2 1 3 2 3 3 2 2 6 2 2 3 6 5 4 2 2 15 24 27 23 29 31 28 26 26 26 26 22 22 20 17 17 19 21 22 23 25 27 31 35 36 38
2 4 1 2 5 8 3 7 3 3 1 2 4 5 3 3 4 8 13 25 26 26 31 31 27 30 29 26 29 26 24 24 21 18 18 22 25 29 30 28 28 33 34 36
3 3 1 4 1 6 2 1 5 4 2 2 2 4 5 5 3 6 10 21 20 25 27 26 28 28 30 26 20 20 22 23 21 18 19 22 23 27 28 26 26 29 32 34
2 3 3 1 1 1 2 5 4 4 3 2 1 6 2 4 2 6 15 22 18 23 23 23 24 25 24 17 15 11 8 10 13 18 20 22 23 24 22 20 21 25 27 28
5 1 3 2 0 3 3 4 4 4 3 5 4 5 1 6 9 19 17 19 19 22 23 21 23 22 18 14 11 8 8 12 18 24 24 23 22 19 17 16 17 19 21 21
5 3 4 5 4 3 2 4 5 5 3 3 5 7 12 12 10 17 19 15 22 19 21 23 21 16 18 15 13 14 12 13 17 20 19 19 15 12 11 11 11 12 16 20
3 2 2 3 3 3 3 4 8 7 6 6 4 7 12 14 14 20 20 18 18 21 24 22 19 12 15 12 14 16 19 21 21 16 16 12 9 8 8 9 10 12 16 19
1 3 2 3 2 6 4 7 8 9 5 9 13 19 20 25 17 14 11 15 19 19 21 20 14 8 10 12 16 19 20 21 18 14 10 7 4 4 6 8 10 14 17 18
3 4 2 3 3 4 5 9 12 6 6 8 7 12 8 8 9 11 12 12 15 15 17 17 11 7 8 12 16 15 16 15 12 10 8 4 2 5 8 8 9 11 13 17
5 4 2 2 3 1 5 3 7 12 6 11 10 12 13 11 17 9 7 12 13 13 14 13 10 8 9 11 11 11 10 9 7 6 5 3 4 7 8 11 13 14 18 21
3 4 2 1 1 6 3 4 6 6 3 6 10 11 13 12 11 3 6 11 12 11 10 8 8 8 7 7 8 8 6 6 5 6 7 7 8 10 13 14 17 19 19 19
4 5 3 2 2 3 2 1 4 3 0 0 6 7 6 7 3 2 7 9 11 8 7 7 7 6 7 8 8 8 5 5 5 6 6 9 14 15 16 18 18 18 17 18
3 2 4 4 3 7 7 5 3 3 2 3 4 9 8 2 4 4 4 7 9 8 6 5 5 6 6 6 7 6 6 8 10 11 12 11 11 15 16 19 18 17 15 15
6 6 3 3 3 6 5 4 1 3 6 9 12 12 10 8 7 5 2 4 7 9 9 6 4 4 4 6 5 5 8 9 9 11 13 16 16 17 16 15 16 15 13 12
4 5 4 6 5 5 2 8 21 11 8 8 14 15 13 9 8 7 3 1 4 8 11 9 8 9 9 10 12 14 16 15 17 18 17 16 16 16 16 14 13 11 9 7
3 6 2 1 2 4 9 17 4 4 7 11 13 15 12 10 8 9 6 5 4 7 8 10 12 13 14 13 14 15 15 14 15 16 17 15 13 13 12 9 8 6 5 4
3 2 3 4 6 13 7 2 10 17 14 12 12 12 11 8 10 10 9 9 9 9 8 9 10 11 12 12 12 13 13 12 13 13 13 11 10 9 8 6 5 4 4 4
6 4 3 4 3 3 12 19 23 21 14 13 12 12 9 7 9 11 11 9 11 11 10 9 10 11 12 13 12 12 11 10 8 9 9 7 6 5 4 3 3 3 5 8

GFSCGP_850_spd_051.txt.gz
Wind_Speed
17 6 16 17 5 4 8 5 4 3 1 2 4 4 10 16 17 19 24 27 27 27 25 24 24 25 25 24 25 26 27 31 33 34 35 34 34 33 38 35 33 31 29 30
7 12 9 12 8 6 6 6 4 1 2 1 4 9 15 10 7 14 16 19 19 19 18 15 17 19 24 27 26 25 28 27 30 37 38 38 37 37 34 36 39 35 32 33
1 1 15 13 9 9 2 5 3 2 1 2 6 5 4 3 5 13 14 4 4 6 11 12 9 8 8 13 19 25 28 28 29 29 31 38 39 39 38 37 38 36 37 38
3 3 8 13 15 8 5 3 3 4 2 1 4 4 4 3 5 7 18 25 21 18 17 19 17 13 7 4 8 12 19 28 32 29 30 31 36 41 43 42 39 38 38 38
1 9 16 9 2 8 2 4 4 3 4 1 2 2 4 1 4 5 7 17 18 18 20 21 20 17 14 11 9 7 9 13 20 31 33 33 34 32 31 36 39 38 37 38
4 3 4 3 5 5 9 5 5 3 2 1 1 2 2 1 2 1 4 15 16 18 20 18 17 14 10 9 9 8 8 8 10 15 24 27 30 31 32 30 30 32 35 38
4 4 4 12 8 4 1 3 1 2 2 2 2 1 5 3 2 5 1 14 15 16 22 23 21 18 16 15 14 12 11 8 7 8 13 20 24 27 30 30 31 33 34 34
3 4 4 1 4 7 1 1 3 3 3 1 2 5 2 4 6 4 10 12 14 16 22 23 23 21 21 19 18 18 18 16 13 12 12 14 16 19 23 24 26 29 34 34
5 3 1 5 3 1 3 2 1 6 2 1 2 5 6 2 3 3 13 19 21 20 24 24 24 23 24 25 22 20 22 21 20 18 16 16 16 17 18 20 22 26 28 30
1 5 3 2 4 10 3 6 2 2 3 3 3 4 3 4 5 4 9 16 19 18 23 23 24 23 24 24 19 16 18 20 21 21 19 19 18 17 19 21 23 25 26 28
3 3 2 3 1 5 2 1 4 4 1 2 2 3 4 6 5 4 12 19 19 17 21 22 19 20 21 18 17 13 12 10 8 12 14 15 15 17 21 24 26 27 27 28
1 4 3 1 1 1 2 4 3 3 3 1 1 5 2 5 4 8 16 18 17 21 22 21 18 18 16 13 13 12 8 9 11 12 13 16 17 19 21 24 26 27 27 26
5 2 3 1 1 2 2 4 4 4 3 4 4 3 1 2 7 14 11 19 15 19 21 18 17 13 13 12 12 10 12 14 15 16 18 23 27 28 23 21 20 20 17 17
6 3 4 5 4 3 3 3 4 5 3 4 5 5 8 7 6 14 19 15 14 15 17 16 15 7 9 10 10 14 15 17 18 20 17 18 20 23 19 15 10 8 10 10
3 3 2 2 1 3 3 4 8 6 5 5 2 6 8 10 8 15 15 10 13 14 14 15 13 6 7 9 14 17 18 18 17 15 14 14 12 12 9 10 8 6 8 11
2 3 2 3 0 5 4 7 9 8 3 8 7 17 14 21 13 10 6 10 11 13 13 13 10 6 7 9 13 16 15 14 15 12 9 9 10 8 5 4 5 6 7 9
4 5 2 3 2 2 5 9 12 5 5 9 7 10 3 7 7 11 8 6 10 11 10 11 9 7 7 10 12 12 12 12 11 13 12 10 8 5 3 1 3 5 7 9
5 4 2 1 2 1 4 3 8 14 3 11 7 9 12 10 14 6 3 7 9 10 8 7 7 7 8 9 10 11 10 9 9 10 9 8 7 4 5 7 10 15 15 18
3 4 3 0 2 5 0 3 6 6 4 9 11 11 11 9 5 3 2 5 9 8 6 5 5 6 6 8 9 9 8 8 9 9 9 7 6 6 8 12 15 17 17 17
4 4 3 2 2 3 3 1 4 3 2 5 7 6 5 5 1 3 1 5 8 6 5 4 4 4 6 6 7 7 6 7 10 12 13 13 11 12 14 15 16 19 19 21
2 1 4 3 3 6 6 5 0 2 2 2 3 4 4 3 5 3 1 4 6 7 7 4 2 3 5 6 7 7 9 12 13 13 14 14 14 16 16 18 16 15 15 14
6 5 3 3 3 6 4 4 1 2 9 8 5 4 5 5 7 6 4 1 4 8 9 6 4 6 7 7 8 12 13 13 14 15 16 17 16 15 14 14 15 14 13 12
4 5 4 6 5 4 2 5 14 9 6 7 9 8 9 7 6 9 7 4 3 7 10 10 11 13 13 13 13 15 16 15 15 15 16 16 16 16 16 14 14 12 10 9
3 7 3 0 2 5 9 8 4 4 12 14 12 12 11 9 6 10 10 8 6 8 10 8 11 13 14 14 14 13 13 14 13 15 16 15 13 13 12 10 10 8 7 6
4 7 4 4 6 8 1 4 11 16 17 11 10 11 11 10 9 11 12 12 10 9 12 11 9 12 13 13 12 13 13 13 13 12 12 11 10 9 8 7 6 5 4 4
7 6 4 5 5 3 8 12 18 14 12 10 11 11 12 11 9 11 13 13 13 13 13 14 14 11 13 13 12 12 12 11 8 8 9 8 7 6 5 5 5 4 5 6

GFSCGP_850_spd_054.txt.gz
Wind_Speed
25 6 18 24 19 3 10 16 9 8 5 6 11 10 11 14 16 18 20 20 18 17 14 15 18 20 22 23 24 25 25 28 27 27 33 34 37 37 37 37 36 34 33 30
8 13 15 16 13 7 14 14 10 6 5 5 4 8 13 13 14 11 13 15 13 10 7 7 13 17 19 22 25 27 27 27 28 27 30 37 36 41 40 39 38 38 37 36
5 7 15 18 16 13 9 12 11 4 6 2 5 6 5 4 6 4 3 2 3 5 5 7 7 1 4 10 16 24 28 30 30 32 27 27 29 33 38 41 40 38 37 40
1 3 18 19 18 16 12 5 8 7 5 3 3 3 3 9 9 9 11 11 11 10 9 10 10 10 8 5 3 5 14 22 30 32 33 29 29 32 38 43 43 42 43 44
4 6 15 20 20 15 6 9 8 5 3 2 4 4 7 10 8 7 9 9 8 8 8 9 9 9 8 6 5 4 3 6 13 22 31 30 26 27 27 27 31 33 39 43
7 6 4 2 7 6 15 10 8 4 1 3 3 4 7 9 10 7 7 7 6 7 9 9 9 8 7 7 7 7 6 6 7 9 15 22 30 26 26 26 27 30 32 36
5 4 6 5 9 3 8 12 4 3 4 2 2 4 3 9 10 8 5 6 5 7 10 12 13 14 13 13 12 12 13 12 12 11 11 12 18 24 23 24 24 24 27 33
2 4 2 3 2 9 10 3 2 4 4 3 2 5 3 9 9 4 3 2 3 5 9 10 13 16 17 17 16 16 17 17 17 17 15 14 14 16 20 22 23 22 23 26
4 4 2 3 4 6 4 4 2 4 2 1 3 3 4 5 9 6 3 3 5 5 7 9 10 13 15 16 15 14 14 16 17 19 19 18 16 16 18 19 21 22 23 25
3 6 3 4 1 11 1 8 2 0 4 4 4 3 3 14 13 3 5 6 7 5 9 9 9 10 11 12 12 11 10 10 11 12 13 15 16 16 17 18 19 21 23 25
5 3 3 2 1 7 4 3 2 2 1 2 1 3 0 15 12 2 7 7 8 8 9 10 9 9 9 8 10 10 7 7 6 6 6 7 8 11 14 17 19 21 24 26
1 4 4 2 2 2 1 2 4 2 4 0 3 3 3 7 5 5 8 7 6 6 8 8 8 9 7 7 7 7 8 9 10 11 12 14 16 18 20 21 23 23 25 27
6 4 5 5 3 1 4 4 2 5 2 5 3 4 3 5 3 6 8 9 6 7 8 8 7 6 5 6 6 7 9 11 13 15 15 16 17 19 22 24 26 23 23 24
3 2 1 2 3 3 4 8 9 4 3 4 4 0 6 4 5 8 9 7 8 7 8 9 7 4 3 4 7 9 13 14 14 15 15 14 14 16 20 19 18 18 18 16
1 3 2 1 3 2 1 5 11 7 4 5 2 6 5 10 8 10 11 6 6 6 7 7 7 4 3 4 6 11 12 12 12 14 12 11 10 11 11 10 10 9 9 10
2 3 2 1 1 4 5 8 10 14 14 13 12 17 13 5 6 9 6 5 4 6 7 5 4 2 2 4 8 9 10 10 10 12 14 11 11 10 8 7 6 6 5 5
3 5 2 1 0 3 7 15 16 9 9 13 10 8 4 9 8 7 4 2 4 5 5 4 4 3 3 5 7 8 8 9 9 10 11 11 11 10 8 7 5 4 5 6
6 5 1 0 2 4 3 2 5 17 10 13 8 11 12 10 9 3 2 2 3 6 3 4 4 3 4 5 5 6 6 7 7 7 8 8 10 11 10 9 7 7 8 11
2 4 2 2 3 5 2 4 6 8 7 16 14 12 10 6 5 6 7 2 3 4 4 3 3 2 2 4 4 4 5 5 5 6 7 10 11 11 12 12 13 15 15 15
4 3 2 2 3 3 3 3 4 4 3 4 9 7 5 3 3 2 6 3 2 5 5 2 3 2 2 2 2 3 4 6 9 10 11 12 13 13 15 15 14 14 14 14
4 2 7 6 4 5 5 4 1 2 3 1 5 5 4 4 3 3 4 4 1 3 3 1 1 1 1 2 4 6 8 11 12 12 14 15 15 16 16 16 15 13 12 11
8 5 4 4 4 6 3 4 3 4 5 6 4 4 6 8 7 7 7 6 3 2 4 3 3 4 6 7 9 12 14 14 15 15 16 16 15 14 14 13 13 12 11 10
5 4 2 5 3 1 2 2 5 2 1 3 6 7 8 8 6 8 11 9 5 3 7 7 7 9 11 11 12 14 17 15 14 14 14 14 13 13 13 11 10 9 8 7
5 7 3 2 5 10 8 1 3 1 7 10 8 8 8 7 6 7 11 11 9 7 9 10 10 12 12 12 13 14 14 14 13 13 14 13 12 11 10 8 7 6 6 5
2 9 8 8 9 7 3 8 2 8 8 8 7 8 8 9 8 7 12 14 13 12 12 12 11 11 11 12 12 12 13 14 13 12 12 11 9 8 6 5 4 4 3 2
8 8 6 5 6 4 5 4 9 10 8 8 10 10 10 11 9 9 13 16 17 16 16 16 15 14 13 13 13 13 13 13 10 10 10 8 7 5 4 3 2 1 2 3

GFSCGP_850_spd_057.txt.gz
Wind_Speed
17 7 15 27 25 18 15 19 14 13 8 10 16 14 17 13 16 17 17 17 18 18 15 12 12 13 15 16 17 18 19 21 21 23 24 30 34 29 30 32 27 24 25 25
9 7 17 21 19 14 9 16 14 5 10 8 12 12 9 13 17 19 16 16 16 14 12 11 11 11 13 13 15 16 18 20 23 26 25 28 34 35 36 36 37 36 32 33
12 8 10 11 17 14 12 14 14 8 8 8 3 12 13 3 5 6 8 11 7 6 5 2 0 1 0 5 14 19 23 25 24 25 24 26 25 26 26 30 35 38 40 39
1 6 18 13 17 15 13 10 9 7 12 5 8 3 10 10 7 6 7 8 9 8 6 4 4 4 3 1 3 5 10 17 24 27 27 26 25 27 28 28 28 28 35 37
4 12 13 19 15 16 6 9 10 7 6 1 8 5 9 12 10 8 8 9 8 6 4 3 3 3 4 3 3 3 4 6 9 15 22 27 29 29 26 26 27 27 28 32
5 5 4 2 7 4 14 14 8 4 1 5 9 8 10 11 11 9 9 9 6 4 3 3 3 4 5 7 7 7 7 6 9 10 11 15 22 25 23 23 24 24 24 26
2 3 3 6 9 3 10 13 4 4 4 3 4 5 6 10 14 10 9 8 5 2 2 3 5 7 7 9 10 10 10 10 10 11 12 12 13 15 21 24 24 24 25 28
3 5 1 1 3 6 13 13 3 6 6 6 4 6 2 12 15 9 5 3 1 1 2 4 6 7 9 10 10 11 11 12 12 11 12 11 10 12 13 15 18 22 23 24
2 5 4 1 4 2 5 5 2 1 3 2 6 4 3 8 11 6 4 3 1 1 3 4 6 7 8 8 9 9 8 8 8 9 9 8 9 11 13 13 14 15 16 19
4 5 5 8 11 5 4 7 3 1 5 5 5 5 3 16 16 8 5 2 1 2 3 5 6 7 7 7 7 8 7 7 7 6 6 6 8 10 12 14 16 17 18 19
7 2 3 2 3 4 3 3 1 3 2 3 4 3 5 15 16 7 2 1 2 2 3 5 5 6 5 5 5 6 6 6 7 7 8 8 9 10 11 12 14 16 18 21
2 5 5 2 2 5 5 4 8 3 4 1 4 4 3 15 15 4 1 1 2 2 3 4 4 4 3 3 4 5 6 7 9 10 10 11 12 13 15 16 18 19 21 22
5 5 4 2 2 2 5 7 4 2 3 4 3 5 5 11 6 4 2 3 2 3 3 4 4 3 2 3 3 4 6 8 10 11 11 12 12 13 16 18 19 19 19 19
2 2 2 0 3 3 4 8 8 4 2 3 5 8 11 10 5 3 2 3 3 3 3 4 4 2 2 2 2 5 7 9 9 10 12 12 13 12 13 16 16 13 11 12
1 2 3 3 4 3 3 7 11 6 8 3 3 6 13 0 4 3 5 2 4 3 5 5 3 2 2 2 3 5 7 7 7 8 11 13 13 12 12 12 12 10 8 8
1 2 2 1 1 5 6 9 11 14 15 13 11 9 8 1 2 4 4 2 2 5 5 3 2 1 1 1 3 5 7 7 6 7 10 12 13 11 10 8 8 8 7 6
5 5 4 3 3 5 9 16 16 11 9 16 11 8 4 4 4 4 3 3 2 3 3 3 1 1 1 2 4 4 6 6 6 6 8 8 9 9 9 10 10 9 10 9
5 5 2 1 3 4 3 3 2 16 8 11 8 7 5 7 6 4 4 4 3 3 2 2 1 1 2 2 3 5 6 5 5 5 5 6 7 9 9 10 12 13 13 14
4 4 2 3 4 7 5 3 4 8 9 13 14 9 6 4 5 8 8 5 2 1 2 2 4 5 4 3 4 4 4 2 1 4 6 9 11 10 12 14 15 15 14 13
1 3 3 2 3 3 5 3 3 4 3 6 11 6 3 3 3 5 10 6 3 2 2 3 5 3 2 3 2 1 1 3 5 7 9 12 12 12 13 15 15 15 13 13
5 4 7 6 3 5 5 5 2 3 3 4 2 1 2 3 4 0 5 6 4 3 2 3 3 2 2 2 2 4 6 7 9 11 13 14 15 15 15 15 14 12 10 10
7 5 4 5 4 6 4 4 3 2 1 3 2 1 2 4 6 5 6 8 5 4 3 4 3 3 4 5 6 8 9 11 11 13 14 14 14 13 12 11 11 10 9 8
4 4 2 5 2 4 3 5 6 4 5 3 3 2 4 6 6 6 9 9 8 6 5 5 6 6 7 8 9 11 13 13 12 12 13 12 12 11 10 9 8 7 6 5
5 5 4 1 3 9 7 3 4 3 3 5 6 6 6 7 7 7 8 11 11 10 7 7 9 8 9 10 11 11 12 12 10 9 9 10 9 8 6 5 4 4 3 2
2 9 7 10 10 4 7 7 7 2 2 4 6 7 8 8 8 8 9 11 14 13 12 11 10 10 10 11 12 12 12 12 11 10 9 8 7 6 4 3 2 1 1 2
11 8 7 5 6 7 3 8 4 2 3 5 6 7 8 10 10 9 10 12 15 17 16 15 14 13 13 12 12 12 13 12 10 10 9 8 6 5 3 1 1 2 3 4

GFSCGP_850_spd_060.txt.gz
Wind_Speed
23 8 17 27 18 9 8 11 14 13 8 14 15 12 12 10 11 9 14 15 15 15 14 14 15 19 17 18 19 21 21 20 19 22 21 24 28 29 28 26 27 27 25 29
9 14 11 14 14 15 8 11 18 4 10 7 7 11 9 10 12 16 17 19 18 14 12 7 9 11 18 21 18 18 20 21 22 23 25 27 25 31 34 34 33 30 29 29
12 8 12 16 16 17 9 8 10 7 5 2 3 7 10 6 3 7 8 10 9 8 4 2 2 2 4 12 18 22 23 24 25 27 28 29 30 23 27 34 34 32 32 34
5 5 13 9 13 15 10 6 3 11 7 3 8 4 13 9 5 5 9 9 9 7 6 6 4 2 4 5 4 6 9 13 21 27 30 31 30 25 21 25 27 28 29 30
3 12 16 5 9 9 7 7 8 7 6 2 8 2 3 10 7 7 8 10 11 10 9 6 3 2 4 4 3 3 4 5 8 9 15 22 29 31 30 23 21 23 25 28
6 5 4 6 8 9 7 9 9 3 1 2 7 6 5 8 11 8 12 13 11 9 7 5 2 1 3 7 7 7 7 7 7 11 10 9 12 16 23 27 27 23 25 22
3 4 4 3 9 5 10 8 4 3 2 3 1 4 6 11 11 7 10 16 12 8 6 4 1 1 5 8 10 10 10 11 12 11 11 10 11 13 13 15 23 24 21 22
3 2 1 3 2 5 6 7 4 5 4 4 2 4 4 11 18 16 13 10 8 6 4 2 2 4 6 9 10 9 8 8 10 12 13 12 9 9 10 11 12 16 22 22
4 2 1 2 3 3 3 1 2 2 2 4 5 3 5 10 9 11 13 12 10 6 3 2 2 5 6 7 9 7 6 5 7 6 7 9 12 14 16 16 16 17 17 19
3 5 2 2 3 8 3 2 1 1 3 3 4 6 4 10 10 8 10 12 10 6 4 3 3 6 6 6 7 5 4 3 3 3 3 3 5 7 8 10 12 14 16 18
8 2 4 5 3 4 2 2 2 0 2 1 4 4 1 15 10 8 9 8 5 5 4 3 5 7 4 5 5 4 4 4 4 4 4 5 7 8 9 12 14 15 16 17
4 5 3 4 5 6 6 3 3 1 3 1 2 3 4 10 9 12 7 9 6 5 5 5 5 5 4 4 5 5 4 5 6 7 7 9 11 11 11 12 14 16 18 19
4 2 3 2 3 1 1 3 1 6 2 3 1 2 3 12 11 11 8 6 7 6 5 4 3 4 5 5 4 3 4 5 6 7 9 10 9 10 10 10 12 13 15 16
4 2 3 3 3 4 3 5 5 4 2 3 3 5 4 7 6 9 10 6 6 5 5 5 5 4 7 7 6 4 5 6 7 7 8 8 9 9 9 9 7 9 10 9
2 3 3 4 6 4 2 5 7 5 6 4 4 8 8 8 5 7 4 7 4 5 5 5 5 6 5 4 5 5 6 7 6 7 8 9 10 10 9 6 6 7 8 8
2 2 2 1 4 5 3 6 8 9 10 8 6 4 2 8 8 4 3 6 5 4 4 6 4 4 5 6 5 6 7 6 6 6 7 7 7 6 6 6 7 8 8 7
4 4 2 1 1 4 6 12 12 7 7 10 8 6 3 3 3 3 4 6 5 3 3 4 4 5 6 7 6 8 7 7 6 6 5 4 3 4 6 8 9 9 11 10
4 3 2 1 1 1 3 3 2 11 9 7 5 5 3 0 1 2 6 7 5 4 3 3 5 6 6 5 6 7 6 7 5 4 1 2 3 7 10 9 12 14 14 13
3 4 2 2 3 6 6 3 2 6 8 8 6 4 5 3 2 6 8 10 8 5 4 6 9 9 7 7 6 7 6 4 2 2 4 5 8 11 12 13 15 15 14 13
2 2 2 1 2 3 3 4 1 2 1 8 10 8 4 3 0 2 9 7 5 4 4 4 4 4 6 5 5 6 4 4 4 6 7 9 11 12 14 15 15 14 12 12
2 2 4 4 2 5 6 6 5 2 3 7 9 7 7 2 3 4 7 7 6 5 5 4 4 3 6 5 7 5 4 6 7 9 10 12 13 13 13 13 12 10 10 10
5 5 3 3 3 6 8 4 2 4 6 7 8 6 4 1 1 4 5 8 8 8 5 5 4 5 7 6 4 6 8 9 10 12 13 12 11 11 11 9 9 8 7 7
3 3 3 6 3 3 2 12 8 8 10 6 6 2 2 1 2 4 6 10 10 10 7 7 6 7 7 5 6 9 11 12 13 12 11 10 9 8 7 6 5 5 3 3
3 2 1 3 1 8 9 7 6 7 6 4 2 3 3 4 4 5 7 11 11 12 11 9 7 9 8 8 8 9 11 12 11 11 10 9 8 6 5 4 2 2 0 2
1 6 4 5 6 3 9 11 10 6 4 3 4 5 6 8 8 7 7 11 13 12 14 11 10 9 10 10 10 11 12 12 12 10 9 8 7 5 4 2 2 1 2 4
7 5 3 3 5 3 7 12 10 5 4 4 5 5 6 8 9 9 10 10 15 15 15 16 14 13 11 11 12 12 13 13 12 11 10 9 7 6 5 4 4 3 4 6

GFSCGP_850_spd_063.txt.gz
Wind_Speed
21 8 19 26 11 6 7 3 6 7 7 6 11 6 12 13 8 13 16 15 10 9 6 12 16 17 20 21 20 23 25 18 10 14 18 22 23 24 24 23 24 26 27 26
8 15 10 9 8 6 9 9 8 2 6 13 11 11 10 13 12 18 18 16 14 12 9 10 14 16 20 20 19 20 23 24 24 22 18 18 21 23 25 27 28 27 26 29
12 8 12 12 10 11 6 6 5 4 3 4 4 5 7 9 11 21 15 12 9 5 7 7 8 10 12 16 21 23 25 27 29 30 29 29 30 30 27 25 26 28 28 28
6 4 11 12 13 7 6 6 3 13 5 4 5 4 7 12 7 7 10 9 10 10 11 9 6 5 7 9 10 12 15 20 23 27 28 29 32 31 28 22 20 20 20 23
2 5 10 10 3 3 5 1 7 5 6 4 1 1 6 8 6 7 8 9 11 11 9 6 4 4 3 3 4 5 6 7 8 9 11 18 24 28 30 30 25 18 16 20
5 6 4 3 3 3 5 8 7 5 2 1 5 5 4 6 14 6 8 17 15 12 11 6 5 5 5 6 7 7 8 9 10 11 10 10 11 11 13 17 24 28 27 20
4 3 4 2 3 6 2 5 2 2 1 5 3 7 9 7 6 8 12 17 15 12 11 8 6 6 6 7 8 8 9 10 12 14 14 13 13 13 13 13 14 16 22 21
4 5 2 2 4 3 9 4 5 6 4 4 2 7 5 7 16 25 24 22 17 14 11 8 5 4 5 8 9 9 8 9 10 11 12 14 15 14 14 15 14 14 16 20
4 3 1 2 2 2 6 4 3 3 2 4 4 3 4 5 8 15 22 21 17 13 11 8 5 5 6 8 8 7 6 7 7 7 8 11 13 15 17 18 19 19 19 18
6 5 3 5 1 2 3 0 1 3 3 4 4 3 4 7 8 7 10 16 17 15 11 9 7 7 7 7 7 6 6 6 4 4 5 7 8 9 11 13 14 14 16 17
2 4 4 6 4 6 2 1 2 2 4 4 4 5 3 16 13 10 12 17 19 15 14 11 8 7 8 7 7 7 7 6 5 6 6 8 9 10 11 11 13 14 16 17
5 3 3 1 4 7 2 4 4 4 4 2 2 4 4 9 9 14 16 18 14 14 12 10 8 6 7 9 9 8 8 7 7 7 8 9 10 11 11 10 10 12 16 17
3 2 3 2 2 4 4 5 5 3 2 4 4 4 2 9 10 17 14 13 15 14 11 8 7 6 9 11 10 8 6 6 6 6 7 8 8 8 8 8 8 9 10 10
2 2 3 6 4 4 5 12 5 5 3 2 4 3 4 7 8 11 15 16 17 14 10 8 7 8 10 11 10 9 8 6 7 6 6 7 7 7 7 7 6 4 4 7
3 3 2 2 4 3 2 4 8 5 4 5 2 5 10 9 8 13 16 17 15 12 8 8 8 10 10 11 10 9 8 6 8 7 7 7 8 7 6 5 3 3 1 2
2 1 2 3 4 4 3 6 7 6 5 3 3 5 6 11 10 13 13 16 12 10 9 10 9 10 13 12 11 11 9 7 8 8 7 7 7 5 3 2 2 3 5 6
3 4 3 2 1 3 6 10 10 6 5 9 8 7 5 5 8 10 11 13 12 11 11 10 9 10 12 12 12 11 10 8 8 8 7 5 3 2 2 5 6 9 10 11
4 4 2 2 3 1 6 2 8 14 10 8 4 6 8 7 9 8 11 14 13 11 8 7 8 10 11 11 10 9 9 8 7 6 4 1 1 2 6 9 11 11 11 11
3 3 2 3 3 5 1 3 4 7 8 9 8 6 7 10 7 3 9 12 12 9 6 6 7 8 9 9 10 9 9 8 5 4 3 4 5 7 10 12 13 13 13 13
3 2 4 2 1 3 2 2 2 4 4 7 16 8 4 7 2 3 12 10 10 7 5 4 5 7 9 8 8 9 9 7 6 6 7 8 9 11 12 13 12 11 11 9
2 1 4 4 2 5 3 3 4 2 2 2 18 12 12 4 4 8 9 8 8 7 5 5 4 4 5 6 7 8 6 7 8 9 10 11 12 12 12 11 10 9 9 8
5 5 3 3 3 6 6 3 2 3 3 12 14 11 10 7 5 4 5 6 8 9 7 6 5 5 5 5 6 8 8 8 10 11 13 13 12 11 10 9 8 7 5 4
3 5 4 6 5 4 7 4 6 10 10 7 9 7 6 5 4 4 4 5 6 8 9 8 7 6 6 6 6 7 9 11 13 14 13 12 11 10 9 6 4 3 2 2
2 4 2 1 2 7 12 10 9 11 9 10 7 6 5 3 4 4 5 6 7 8 11 11 10 9 9 7 7 8 12 14 14 14 13 11 10 9 7 4 3 2 2 3
5 4 4 3 5 3 13 14 13 12 9 7 6 5 5 7 7 7 7 9 10 9 11 14 13 12 10 10 11 11 13 14 15 14 12 11 10 8 6 5 5 4 4 4
5 6 4 4 2 3 5 17 14 11 8 6 5 4 5 6 7 8 10 10 12 13 12 15 17 15 14 13 13 15 15 15 15 14 13 11 11 9 8 7 6 6 6 6

GFSCGP_850_spd_066.txt.gz
Wind_Speed
13 9 20 21 9 2 10 6 8 3 6 5 7 3 10 11 3 11 19 19 15 10 10 14 15 17 19 21 22 18 18 19 19 19 20 21 21 21 22 26 28 29 28 29
6 16 9 9 9 3 12 6 6 1 4 7 6 13 8 10 8 11 14 19 17 13 10 12 15 17 18 20 22 22 22 19 18 20 22 24 24 24 25 24 24 27 29 30
10 8 11 9 7 6 3 10 4 4 2 2 4 7 5 8 10 19 19 20 20 15 13 13 14 14 15 17 18 20 21 23 23 21 21 21 22 24 26 28 30 28 27 26
1 11 12 8 7 4 2 6 6 6 5 5 4 4 6 9 9 9 23 19 17 15 15 14 14 13 12 12 15 19 21 24 27 28 27 26 26 27 27 26 26 28 29 29
3 14 15 12 8 5 4 4 8 5 6 4 1 0 6 3 9 11 15 20 18 16 18 15 12 10 10 9 10 11 11 12 14 17 21 23 26 30 32 32 31 28 23 20
6 7 5 2 3 3 2 5 7 5 3 1 5 6 4 6 7 10 6 18 19 21 18 14 10 9 9 7 7 7 8 10 12 13 13 13 13 13 14 17 19 22 25 26
6 4 2 3 5 2 1 6 2 2 2 5 3 4 11 5 5 8 12 23 23 23 19 13 10 9 7 7 7 8 9 11 13 15 16 16 16 16 16 16 15 15 16 19
4 5 2 3 3 3 4 4 5 5 3 3 1 7 7 4 14 18 29 29 24 21 17 12 10 8 7 7 6 7 8 9 11 13 14 15 15 16 17 17 17 17 17 17
5 1 0 2 2 1 3 2 2 5 3 3 4 6 7 3 3 16 23 26 24 21 17 13 10 8 7 7 7 7 8 8 8 9 10 11 12 13 14 16 17 18 19 20
4 5 2 4 3 3 3 2 2 2 3 4 4 5 5 3 8 8 11 21 22 19 16 13 11 9 8 8 9 8 8 8 8 7 7 7 7 8 10 11 12 13 14 15
5 4 3 6 7 6 5 4 2 3 4 4 2 6 5 12 13 14 15 25 22 19 17 15 12 10 9 9 9 8 8 8 8 8 8 9 10 11 12 13 13 13 14 15
3 4 4 4 3 7 1 5 4 4 4 1 3 5 4 7 7 13 18 21 20 18 17 15 11 10 10 11 11 10 10 9 9 9 9 9 10 11 12 12 12 12 13 14
5 2 3 2 2 2 4 4 3 3 3 5 5 5 5 4 9 16 17 18 19 18 18 14 12 12 12 12 12 11 11 9 8 7 8 8 9 9 9 10 11 10 9 9
4 3 4 5 4 5 5 8 7 5 3 3 5 3 3 4 9 12 20 20 20 20 17 14 12 12 12 12 12 12 12 10 9 9 9 9 10 10 10 10 9 8 6 4
3 3 3 2 3 3 3 6 9 8 11 7 5 6 7 11 10 18 21 18 19 20 18 14 12 11 13 14 13 12 12 11 10 9 9 10 10 10 9 7 6 4 4 3
2 2 2 3 1 2 2 6 9 9 5 5 3 5 6 13 11 13 17 18 21 21 17 14 11 11 13 15 13 12 11 10 10 10 10 10 10 8 6 4 2 2 3 3
2 4 3 3 1 2 6 10 11 8 6 8 9 7 2 5 9 17 19 21 22 19 16 14 11 11 13 14 13 12 11 12 12 12 11 9 7 5 3 2 4 6 6 7
4 4 2 2 2 1 5 1 6 12 5 8 3 5 6 9 18 16 16 19 18 16 13 12 11 11 12 13 13 13 12 12 12 11 10 7 5 4 4 6 9 10 9 9
3 4 2 3 3 5 2 4 5 7 7 11 9 6 7 10 11 5 11 14 14 14 11 10 9 9 11 13 13 12 12 12 12 10 8 7 6 7 9 10 12 11 11 10
4 5 3 1 1 4 2 1 3 5 5 6 16 9 7 12 4 4 14 13 14 13 10 8 8 9 11 12 12 12 13 13 11 10 9 9 9 11 13 13 12 11 9 8
3 2 4 3 3 6 5 2 5 3 4 4 19 20 13 5 6 4 14 12 11 11 10 9 8 8 9 11 12 10 10 8 9 10 10 11 13 13 13 11 10 9 8 7
5 5 3 3 3 6 3 3 3 3 2 4 11 14 13 9 9 8 10 10 11 13 13 11 9 7 8 10 9 8 8 8 10 11 12 14 14 13 12 10 8 7 6 4
3 5 4 7 5 5 10 4 5 5 6 6 10 10 10 10 8 7 7 8 9 10 12 11 10 9 8 9 9 9 10 10 12 14 15 14 13 12 11 9 7 4 3 1
2 4 2 1 2 6 9 7 7 8 6 7 8 9 8 6 6 5 5 8 9 9 10 12 13 12 10 9 10 10 11 12 14 15 15 14 13 12 11 8 6 4 3 3
5 4 3 3 5 2 8 11 9 10 8 7 6 5 5 6 7 8 9 10 10 10 10 12 14 13 12 11 11 11 13 15 16 16 15 14 13 12 10 8 6 6 6 6
6 6 4 5 6 4 7 13 14 12 10 7 6 5 5 6 6 8 9 10 11 12 13 14 14 17 15 14 13 13 14 16 16 16 16 15 14 13 12 10 8 8 8 8

GFSCGP_850_spd_069.txt.gz
Wind_Speed
12 4 21 22 8 1 7 6 12 1 8 12 11 6 6 11 8 15 21 23 20 16 12 15 17 16 18 18 18 17 17 18 19 23 24 23 25 25 25 24 25 26 26 28
6 12 13 8 8 4 10 5 8 2 4 11 4 7 7 10 9 12 15 21 24 18 13 12 14 17 18 18 18 17 18 21 22 22 23 24 24 24 25 25 25 26 28 31
2 10 11 10 5 6 2 6 5 6 4 3 4 5 6 10 9 17 20 16 17 20 17 14 13 16 17 17 18 18 18 18 19 20 22 23 25 27 28 28 27 27 27 28
1 15 12 12 5 4 4 3 5 7 5 4 4 4 7 7 11 7 27 25 21 16 14 15 16 16 16 17 17 17 17 20 23 24 24 25 26 26 26 26 27 28 28 27
4 18 14 10 6 5 3 2 5 3 3 3 1 1 6 1 8 18 20 27 21 19 20 21 18 16 14 14 15 16 18 20 20 20 20 21 23 25 27 27 28 28 28 30
6 6 5 3 4 3 4 5 6 5 3 2 5 5 5 6 7 4 17 28 25 23 22 20 18 15 14 12 12 13 14 14 14 14 13 13 12 13 13 15 16 17 18 20
12 4 3 3 7 2 3 4 2 2 1 5 2 5 12 6 6 6 9 20 25 24 26 23 18 15 13 11 10 9 10 11 13 14 15 15 16 15 15 16 16 16 16 15
4 5 2 4 3 5 3 4 4 5 4 3 3 8 5 6 7 14 15 18 26 27 24 20 16 13 11 9 8 8 8 9 10 12 13 14 14 15 15 16 16 17 18 18
4 3 2 4 1 2 4 3 3 6 3 3 5 7 8 4 5 4 11 21 28 29 26 20 16 12 10 8 7 7 7 8 9 10 10 11 11 12 13 14 15 16 17 19
3 5 1 1 3 2 2 2 1 3 3 4 4 5 6 4 7 6 10 21 28 26 22 18 14 12 9 7 7 7 8 8 9 9 9 9 9 9 10 11 12 13 14 14
4 3 3 6 6 7 2 2 2 3 4 4 2 5 6 6 7 10 13 24 29 26 21 18 14 12 10 9 9 9 9 9 10 10 10 10 10 11 12 13 14 14 14 14
2 4 5 2 3 3 4 4 6 4 4 1 2 5 2 6 7 13 13 25 25 22 20 17 15 13 11 11 11 10 10 11 11 11 11 11 11 11 12 12 13 13 12 12
5 2 4 1 2 2 6 6 4 3 3 6 4 5 2 4 4 14 19 24 22 21 19 17 16 14 12 11 12 10 10 11 10 10 10 9 10 10 10 10 10 10 10 9
5 3 5 7 5 4 6 9 7 6 4 4 6 5 4 2 6 8 21 23 22 22 20 19 16 14 12 12 12 11 11 11 11 11 10 10 11 11 11 11 10 9 9 8
3 4 3 2 1 3 3 9 17 9 14 9 7 8 6 6 9 17 22 21 21 21 21 20 17 14 13 14 14 13 12 11 11 11 11 11 11 11 11 9 9 7 6 6
2 1 2 2 2 4 4 7 12 16 8 8 11 7 6 7 9 12 22 22 21 23 23 19 16 15 14 14 14 13 12 11 10 11 11 12 12 11 9 7 6 5 4 3
3 5 3 4 3 3 6 8 11 6 6 11 11 15 4 5 9 19 22 22 23 23 21 20 17 15 13 13 13 13 12 12 11 12 13 12 11 9 7 5 3 3 5 5
4 4 2 2 2 1 5 1 4 11 4 11 6 5 6 9 24 27 23 23 23 19 18 17 15 13 12 12 14 14 13 12 12 12 13 12 9 7 6 4 6 7 8 7
3 4 2 3 3 6 3 2 4 5 6 13 14 11 9 5 11 9 15 15 15 15 15 14 11 11 11 11 12 13 13 12 13 14 13 10 8 7 7 8 9 9 9 10
4 5 4 1 1 4 3 2 3 3 5 5 11 8 8 10 5 4 15 13 13 14 14 12 10 9 9 9 11 12 13 14 15 15 12 10 9 9 9 11 11 11 9 8
2 1 4 3 2 6 6 3 6 4 5 9 7 15 12 5 7 10 9 13 11 12 12 11 9 8 7 9 10 11 12 13 13 10 10 10 10 11 13 12 11 10 9 7
5 5 3 3 2 6 3 3 4 4 5 5 2 12 14 12 6 7 9 10 9 10 11 11 10 8 8 8 9 10 11 10 9 10 11 12 14 15 13 11 10 9 8 6
2 6 4 7 5 5 6 5 4 5 2 2 2 7 11 11 9 9 7 5 4 6 8 11 11 10 10 9 9 10 10 10 10 12 14 15 16 14 13 12 10 8 7 6
3 5 3 1 2 5 8 9 7 5 3 2 4 6 6 6 6 5 3 1 4 7 9 10 12 13 12 11 10 10 12 11 13 14 16 17 17 15 15 13 11 9 7 6
4 4 4 4 6 6 8 11 7 6 5 5 5 5 5 5 7 9 10 11 13 13 13 13 13 13 13 13 12 12 12 13 14 16 17 17 16 16 15 13 11 10 9 8
6 6 4 5 7 5 6 7 12 10 8 7 6 5 4 4 5 7 8 9 10 12 13 15 15 14 14 16 15 14 13 14 16 18 19 18 17 17 16 14 12 11 10 10

GFSCGP_850_spd_072.txt.gz
Wind_Speed
18 2 19 18 4 1 8 6 7 3 10 15 15 9 4 18 16 32 34 27 23 17 14 13 14 16 17 17 17 17 17 18 20 20 20 22 22 22 23 22 21 21 21 23
5 3 10 8 5 4 9 6 4 2 10 8 8 4 9 8 16 26 36 35 32 23 20 18 17 18 16 18 19 18 18 18 19 22 22 23 24 24 23 23 24 25 26 27
5 2 10 7 4 5 3 8 5 5 4 3 8 5 8 16 32 29 28 22 20 24 23 18 17 18 19 21 19 17 17 18 20 21 21 22 24 26 26 27 27 27 28 27
2 6 14 11 5 4 4 5 6 8 5 4 5 4 13 19 19 17 33 31 26 16 21 20 18 17 18 17 17 16 16 17 18 19 21 22 23 24 24 24 24 24 25 26
3 15 9 12 8 3 3 5 5 3 4 2 1 2 4 5 15 24 30 28 29 23 19 23 22 20 18 17 16 15 15 16 17 18 19 21 22 23 25 25 25 27 27 28
3 12 1 4 3 3 6 6 7 5 3 1 5 4 5 7 7 4 14 29 32 27 23 23 22 21 19 16 14 14 14 15 16 16 15 14 13 13 14 15 15 16 16 17
7 4 2 4 7 4 5 6 2 2 0 4 2 6 11 3 6 6 9 13 24 28 26 27 26 21 18 15 14 13 14 13 13 12 12 12 13 14 14 15 15 15 15 15
4 6 2 3 4 6 3 3 4 5 4 3 3 6 5 5 9 14 16 14 11 24 27 28 25 21 16 12 10 9 9 9 10 11 11 11 12 12 13 14 15 16 17 17
4 4 2 5 2 2 4 3 3 6 3 3 4 6 8 7 8 9 12 11 17 27 31 29 24 18 14 11 9 8 7 7 8 9 10 11 11 12 12 13 14 15 16 17
1 6 3 3 2 5 3 5 2 3 3 4 4 5 5 5 6 6 7 12 17 26 26 24 20 16 13 11 9 7 7 7 8 9 9 10 10 10 11 11 12 13 14 14
2 3 3 3 3 5 2 2 2 3 4 4 2 5 5 5 7 8 8 12 19 27 27 23 19 15 13 11 9 8 8 8 9 10 10 10 11 11 12 12 13 14 14 14
2 4 3 2 3 3 3 5 5 4 4 1 2 6 2 6 8 8 6 13 20 24 24 20 18 16 14 11 9 9 9 9 10 11 11 11 11 11 11 11 11 12 12 12
6 2 4 1 1 2 4 4 3 4 3 6 4 5 1 6 1 1 8 16 23 23 21 19 18 16 14 12 11 11 10 10 10 11 11 10 10 10 10 10 11 11 10 10
5 3 5 7 5 3 6 8 10 6 6 4 9 6 6 5 3 3 9 18 22 22 21 19 18 18 15 13 12 12 12 11 11 11 11 11 12 11 11 12 12 11 10 9
3 3 3 3 2 3 3 10 14 20 19 10 6 15 13 8 6 12 14 20 24 23 22 21 20 18 16 14 14 14 13 12 11 11 12 11 11 12 12 11 11 9 8 7
2 2 3 2 3 5 5 8 13 18 17 17 21 21 6 9 8 8 16 20 23 23 23 22 20 19 16 14 14 14 13 12 12 12 12 12 11 12 11 10 7 6 5 5
2 4 3 3 3 3 6 9 13 10 13 16 15 25 4 6 8 17 20 25 26 24 22 21 20 17 15 13 13 14 13 13 13 12 12 13 12 11 10 8 6 5 6 6
4 3 2 2 2 1 5 2 4 11 6 14 11 5 7 11 17 16 17 22 23 22 20 19 18 16 15 14 14 14 15 14 13 13 13 13 12 10 9 7 6 7 8 8
2 4 2 2 3 7 1 1 5 5 4 9 15 13 11 10 8 11 15 20 19 18 16 14 14 14 13 13 13 13 15 14 14 13 14 13 11 10 8 7 8 9 9 9
4 4 3 1 1 4 4 3 3 3 4 3 5 9 8 11 4 4 13 17 14 13 13 13 14 13 12 10 11 12 13 13 14 14 15 14 11 10 9 9 10 11 11 10
2 2 4 3 3 7 6 5 4 3 4 10 8 11 10 5 8 7 9 11 10 10 12 13 13 10 9 9 10 11 12 12 12 13 11 11 10 10 10 12 13 12 11 10
6 5 3 3 3 6 4 3 3 4 6 8 9 3 11 9 5 5 6 7 7 8 9 10 10 10 9 9 9 9 10 10 11 10 9 11 11 12 14 14 13 11 10 9
3 6 4 7 5 5 5 9 5 7 7 5 5 1 6 7 5 7 7 6 5 5 6 7 9 11 10 9 9 9 9 10 10 9 11 11 13 15 14 13 13 12 10 9
3 5 3 1 4 8 14 12 12 9 7 4 0 4 5 5 5 6 6 5 3 0 2 5 6 9 11 10 10 9 10 10 11 11 12 14 15 16 15 15 15 12 11 10
3 5 3 5 6 10 15 14 10 9 7 6 6 6 5 4 4 5 5 5 7 9 9 9 11 12 10 11 11 11 11 11 12 12 13 16 17 17 17 16 14 12 11 11
8 6 4 5 7 5 5 5 7 11 9 8 7 6 6 6 6 6 6 7 7 9 11 12 13 14 12 12 13 13 13 13 13 14 16 18 19 19 18 18 16 14 13 12

GFSCGP_850_spd_075.txt.gz
Wind_Speed
14 4 11 10 4 3 7 5 9 5 9 6 12 5 7 8 10 21 17 24 26 25 14 12 12 14 15 14 12 13 13 13 14 14 15 16 16 17 17 17 18 19 19 19
5 2 10 7 5 6 11 8 4 2 7 8 8 12 9 12 6 17 23 28 25 25 21 18 16 17 18 17 16 16 15 15 15 16 18 20 20 20 20 21 21 22 23 24
7 2 12 7 5 8 2 9 5 5 5 3 7 7 7 8 13 11 27 32 31 31 25 24 20 19 20 20 21 20 19 18 17 18 19 21 21 21 22 22 23 24 25 25
3 11 17 10 6 6 4 5 6 9 9 4 5 4 11 14 12 15 24 39 36 34 18 19 25 23 21 22 22 20 19 18 18 18 18 19 19 20 21 21 22 23 23 24
2 11 12 8 8 5 4 5 6 3 4 3 3 2 4 7 16 19 29 35 30 36 31 22 24 23 23 21 20 19 17 17 17 18 19 19 20 21 22 23 24 25 25 25
3 10 2 2 3 1 9 7 7 4 3 3 4 6 4 4 14 14 23 27 32 37 32 27 23 23 22 21 19 18 16 15 15 15 16 17 17 17 16 16 16 16 17 17
7 3 1 1 7 1 4 6 2 1 2 4 2 3 11 6 5 7 15 26 35 38 32 30 28 27 24 21 19 16 14 13 13 13 14 13 14 14 14 15 16 16 16 16
3 3 6 1 2 5 3 4 4 6 4 3 3 5 5 4 6 8 15 14 12 15 26 33 34 31 28 22 17 14 12 11 11 10 10 10 11 12 13 14 15 16 17 17
4 2 3 3 1 2 3 3 3 6 2 2 1 4 10 3 6 7 10 10 15 16 22 32 33 30 27 21 15 12 11 10 9 9 9 9 9 10 11 12 13 14 14 15
2 5 4 2 3 8 2 5 2 3 3 3 3 4 4 3 6 6 7 13 12 13 21 28 30 27 21 16 14 12 10 9 8 8 9 9 10 10 11 11 11 12 13 14
2 2 2 3 1 5 1 2 4 3 2 3 1 4 5 5 4 7 12 10 10 13 19 26 25 21 18 16 13 10 9 8 8 8 9 9 10 11 12 12 13 13 14 14
4 3 3 2 1 2 1 3 3 3 3 1 2 6 4 5 6 6 14 4 6 13 20 22 21 19 17 15 12 11 10 9 9 10 10 10 11 11 11 12 12 12 12 12
6 2 4 2 0 2 3 4 3 4 3 6 4 4 3 4 3 2 4 2 10 18 22 22 21 19 17 15 13 12 11 11 10 11 11 11 10 11 11 11 11 11 12 11
5 3 5 6 5 4 5 6 7 5 4 3 9 4 10 6 4 6 3 5 13 20 24 23 22 21 19 16 13 12 12 12 12 11 11 11 12 12 12 12 12 12 12 11
2 2 3 3 3 4 5 6 12 15 12 12 4 15 18 13 9 10 13 11 17 23 25 25 23 21 18 17 15 14 15 14 13 12 12 12 12 12 12 12 11 11 10 10
2 2 2 2 3 4 3 7 9 15 15 17 17 27 11 14 15 12 12 12 20 26 26 25 22 21 20 18 15 14 15 15 14 13 12 12 12 11 11 11 9 8 6 7
3 4 2 3 2 1 5 10 13 7 7 13 15 25 4 8 10 22 30 20 23 30 29 26 24 22 19 16 15 15 14 16 14 13 13 13 13 12 11 10 8 7 6 7
5 4 2 2 2 1 4 2 4 13 11 13 13 14 8 11 19 23 23 18 21 25 26 23 21 20 18 17 15 15 15 15 15 14 13 13 14 13 11 9 8 8 8 8
2 4 2 2 2 6 1 1 5 5 4 7 13 15 21 23 15 20 16 12 13 21 20 17 15 16 17 15 13 14 14 14 15 14 14 15 14 12 10 9 9 10 10 11
4 4 3 2 1 4 4 2 4 3 4 4 6 9 11 6 5 6 12 13 16 16 16 16 15 15 15 14 12 12 12 14 14 14 14 15 14 12 11 11 11 13 13 13
1 1 4 4 3 7 6 5 6 3 4 5 6 10 10 5 10 6 5 7 11 12 13 13 12 12 12 11 10 11 13 13 12 14 14 14 11 11 11 12 13 14 15 15
6 5 3 2 4 7 6 4 5 4 3 5 8 8 3 7 4 4 5 7 8 8 9 10 10 11 11 10 9 10 10 10 11 11 11 9 10 12 13 14 16 17 16 15
3 6 4 7 6 5 8 10 7 6 7 5 5 4 2 4 2 5 7 8 7 6 6 7 8 9 10 10 10 9 8 10 10 10 9 9 11 13 15 16 18 17 17 15
4 6 3 1 4 11 20 18 19 15 12 7 4 1 1 4 6 5 6 6 6 5 3 0 2 4 6 8 9 9 11 10 10 10 9 11 13 15 17 17 17 17 16 14
3 7 4 5 7 13 18 18 16 10 10 7 5 5 6 6 7 5 5 4 4 4 4 7 7 5 5 8 10 11 12 12 11 10 10 13 14 17 18 18 17 16 14 14
8 6 5 5 5 4 5 5 5 9 9 8 7 6 6 6 6 5 5 4 5 6 7 8 9 11 12 13 12 13 13 13 13 13 13 14 16 18 19 19 19 19 17 16

GFSCGP_850_spd_078.txt.gz
Wind_Speed
8 1 8 16 15 5 14 10 11 9 8 12 12 13 13 9 11 20 25 21 19 13 12 9 9 14 20 20 20 18 17 17 17 17 17 17 17 15 15 16 16 17 18 19
3 2 9 10 10 11 14 13 13 8 12 12 10 14 13 15 17 17 20 27 24 18 18 10 10 13 17 19 18 17 18 18 17 17 17 17 17 17 16 17 18 20 20 21
7 3 13 13 13 13 14 16 12 10 10 11 5 12 16 17 20 18 19 26 27 27 19 17 12 15 18 20 20 19 19 19 19 19 19 19 19 20 19 19 20 21 22 23
5 8 12 11 15 14 13 10 13 11 12 5 11 4 10 18 17 21 26 25 32 26 20 19 11 17 19 21 21 21 20 20 20 20 19 18 19 18 19 20 20 22 23 24
3 10 12 16 15 10 5 12 10 9 10 4 7 5 3 6 20 20 22 26 26 28 23 22 19 17 23 23 22 21 21 20 19 18 17 17 18 19 20 21 22 23 24 25
5 14 4 9 5 3 13 13 9 5 3 6 11 11 4 5 11 12 21 26 22 22 20 22 20 21 22 24 23 22 20 18 17 17 17 18 18 19 20 20 20 20 20 20
5 6 1 4 10 10 9 17 5 4 5 5 1 9 11 10 9 7 11 23 26 24 29 21 24 25 25 24 24 22 20 18 17 16 16 17 18 19 18 18 18 17 18 18
3 4 5 3 5 7 15 10 3 6 5 5 3 6 2 2 2 2 8 9 14 24 32 26 24 28 29 27 26 23 20 17 15 15 15 15 15 15 16 16 17 18 19 19
3 3 2 6 2 2 4 6 2 4 1 2 3 4 9 5 3 4 6 7 13 14 22 31 23 26 30 30 27 22 18 15 14 13 13 13 13 13 14 15 16 17 17 18
2 5 1 4 1 4 2 9 3 0 5 4 3 4 3 5 7 6 3 7 9 11 16 19 21 23 24 25 22 18 15 13 12 12 11 12 12 12 13 14 15 15 16 16
2 2 4 8 3 8 4 4 1 1 2 2 2 3 5 4 4 7 7 5 5 8 10 13 17 22 24 22 20 17 14 13 12 12 12 12 13 13 14 14 14 15 15 15
3 4 4 2 1 1 1 3 11 6 5 0 3 4 6 3 2 4 7 5 2 3 9 14 19 24 23 21 18 16 15 13 12 12 12 12 13 14 14 14 14 14 14 14
5 3 6 4 3 2 5 8 4 3 2 7 6 3 2 2 3 1 5 4 3 5 10 15 21 24 22 20 19 16 14 13 12 12 12 13 13 13 12 13 13 14 14 14
3 3 3 6 2 4 7 14 14 10 5 11 15 13 7 9 10 7 14 7 5 10 16 17 19 21 22 20 18 17 16 15 14 13 13 13 13 13 14 14 14 15 15 14
3 1 1 1 2 2 3 9 16 14 18 15 12 19 18 18 18 18 9 8 9 13 17 19 21 21 22 22 21 20 18 16 15 14 14 13 14 15 15 14 15 14 14 14
1 2 1 2 2 4 7 11 13 18 20 21 24 27 19 21 16 16 20 14 9 16 20 23 25 24 24 24 23 20 18 16 15 15 15 14 15 15 15 15 14 13 11 9
2 4 3 1 1 3 9 18 17 11 12 14 18 20 14 13 16 16 19 19 20 21 21 24 28 27 25 24 21 20 18 17 17 17 17 16 15 15 15 15 13 12 9 8
5 4 2 1 3 5 1 1 2 13 13 14 18 18 19 19 21 19 20 19 19 20 21 23 26 26 25 22 21 20 19 18 17 17 18 17 16 15 14 13 12 12 9 9
2 4 3 3 5 8 5 2 3 5 4 4 13 13 15 14 14 24 22 19 15 14 13 17 23 23 23 22 21 19 18 17 17 18 18 17 16 15 14 12 12 12 11 12
1 1 4 3 3 4 2 2 3 2 4 3 4 8 10 6 6 5 6 11 20 16 12 14 18 19 20 20 19 17 17 17 18 17 17 17 16 17 15 14 14 13 13 13
4 3 8 7 5 6 5 6 4 4 3 2 5 8 9 4 6 10 13 7 9 11 13 15 16 16 17 17 17 16 15 15 14 15 16 16 16 15 13 14 14 14 15 15
6 5 4 5 5 7 8 6 5 1 1 4 6 7 7 7 7 7 5 1 4 7 10 12 14 15 15 15 14 14 13 12 14 14 14 15 15 13 13 14 14 16 17 18
4 4 2 6 4 2 11 8 9 8 6 5 8 8 6 5 4 1 2 4 5 5 7 8 9 10 12 13 13 13 11 12 12 13 13 13 12 13 13 15 17 18 20 19
5 6 3 1 6 14 16 16 18 15 16 13 10 8 5 5 4 3 4 5 6 7 6 5 3 6 8 10 11 11 12 13 13 12 12 11 13 14 15 17 18 20 21 21
0 7 4 8 11 16 18 17 16 14 12 11 9 7 6 5 6 6 5 6 5 4 5 5 7 8 7 8 9 10 11 13 13 13 13 12 12 15 17 19 20 21 20 20
8 8 7 8 7 6 6 8 8 9 10 11 11 10 8 9 8 7 7 7 7 6 6 7 8 10 10 11 11 9 12 13 14 16 15 13 13 16 18 20 21 22 22 22

GFSCGP_850_spd_081.txt.gz
Wind_Speed
4 2 4 22 21 16 17 17 20 16 11 14 14 13 15 14 15 26 32 25 20 13 8 6 8 9 11 16 15 15 17 17 16 15 14 14 13 12 13 13 13 13 12 13
3 2 8 10 14 7 16 14 9 6 7 10 14 16 16 17 22 25 30 33 29 20 13 7 6 8 12 13 17 15 14 16 18 16 14 12 12 11 10 11 14 13 15 17
6 2 5 10 12 17 13 15 15 13 10 12 7 14 15 18 22 22 25 28 33 31 22 14 9 9 11 14 16 17 17 16 19 17 18 19 17 16 15 17 16 20 19 21
2 6 6 10 11 12 14 11 15 13 12 6 15 6 18 19 19 20 24 22 28 35 26 18 16 13 12 13 19 20 20 19 20 20 20 18 16 13 12 15 18 18 19 21
3 2 7 12 12 8 11 5 10 9 11 5 13 6 12 4 15 17 19 24 25 25 28 24 22 16 14 17 18 19 20 21 21 20 20 19 18 18 18 18 19 20 22 23
9 7 1 3 4 2 8 11 5 5 6 7 14 10 9 7 5 9 16 23 24 24 21 27 21 25 17 15 18 18 19 20 19 19 18 17 16 16 16 18 18 19 21 22
4 2 3 3 7 4 14 15 5 4 4 5 3 9 13 5 5 6 7 12 21 22 23 26 20 24 19 15 15 19 19 19 18 18 17 16 15 16 16 18 18 18 18 19
2 2 6 7 6 6 14 14 4 5 6 9 4 6 4 2 2 1 5 9 9 16 19 25 22 20 19 18 18 19 20 19 18 17 16 15 16 17 18 18 18 18 18 19
3 3 4 4 2 4 10 10 3 3 3 1 6 8 8 2 6 6 5 6 9 7 12 15 24 17 16 18 20 21 22 21 19 16 14 15 16 16 16 16 17 18 19 19
4 4 3 4 3 1 4 8 3 2 4 4 4 6 3 6 6 4 1 4 6 8 9 9 16 15 16 17 19 21 21 19 16 15 14 15 15 15 15 16 17 17 18 18
1 3 3 6 3 8 4 4 4 3 3 3 1 3 7 9 6 7 8 4 2 5 8 7 9 15 19 18 19 19 19 18 16 15 14 14 14 14 15 16 17 17 18 18
2 4 3 4 4 6 8 10 13 4 5 3 5 1 8 7 5 5 8 6 3 2 5 7 10 14 16 19 21 21 20 17 16 14 13 13 14 15 16 16 16 16 17 16
2 3 4 4 5 5 7 10 8 9 3 6 6 3 3 3 5 4 3 7 4 2 6 9 12 14 16 18 21 21 18 16 14 13 14 14 15 16 17 16 15 15 16 16
3 3 4 3 3 1 7 13 14 9 4 11 15 15 5 5 8 9 9 9 8 6 7 10 14 15 16 16 18 18 17 17 15 14 14 14 14 15 15 15 16 16 17 17
3 2 1 3 1 3 4 9 15 15 17 13 14 18 15 15 14 17 12 7 6 8 10 13 15 17 18 18 18 18 18 17 15 14 15 15 15 15 16 16 16 15 15 16
3 2 1 3 5 5 8 12 14 16 20 21 22 23 19 25 27 23 18 18 20 13 15 17 18 19 20 19 19 20 19 18 16 16 16 16 16 16 16 16 16 15 14 14
3 2 2 2 2 5 10 18 18 17 15 14 17 17 16 15 16 16 16 17 17 18 18 18 21 22 21 20 21 21 20 19 18 17 17 17 16 16 17 16 16 16 14 11
4 5 2 3 3 4 2 2 2 6 13 15 14 16 16 16 19 19 20 21 18 15 15 19 22 23 22 19 19 18 18 18 17 17 17 16 16 17 17 16 16 15 13 11
3 5 3 3 6 12 15 2 2 3 7 5 8 6 8 9 12 18 11 17 22 19 14 14 19 21 20 19 19 19 19 18 18 18 18 18 18 18 17 16 16 14 13 12
2 5 5 2 4 4 6 4 2 0 6 6 2 3 5 7 6 3 10 11 7 12 10 8 10 17 19 19 20 19 19 18 18 16 17 17 18 18 18 17 16 14 13 13
4 6 10 9 6 7 2 7 4 4 3 1 2 5 7 6 8 13 14 9 8 7 8 10 14 16 17 18 17 18 17 17 15 15 16 16 17 17 18 17 16 14 13 14
7 5 6 7 6 8 10 7 5 3 2 2 5 7 8 9 8 8 8 5 3 3 6 9 11 15 15 14 15 16 16 15 15 14 15 16 17 17 16 14 13 14 14 15
4 8 5 5 3 4 9 10 8 9 8 7 8 8 7 7 5 4 3 1 1 3 4 5 6 7 8 10 12 13 14 14 13 13 13 14 15 15 13 13 14 15 16 17
5 8 4 3 6 10 14 15 16 15 16 13 12 10 8 6 5 2 0 1 2 2 3 4 4 3 5 7 9 12 13 13 13 12 12 14 14 13 13 14 15 16 19 20
7 4 6 12 15 20 24 20 17 16 12 13 11 11 8 7 6 5 4 3 2 0 1 2 4 5 6 7 8 10 12 13 13 13 14 15 13 13 13 15 16 17 18 20
12 10 10 11 14 11 15 9 10 11 11 12 11 11 12 9 10 8 6 5 6 8 7 7 7 7 8 9 10 10 11 11 12 13 15 16 13 14 13 15 17 19 20 21

GFSCGP_850_spd_084.txt.gz
Wind_Speed
6 2 6 16 18 12 12 10 13 10 9 11 8 9 7 10 12 16 15 19 13 12 10 13 10 12 19 19 22 20 20 18 17 19 18 17 15 14 15 13 12 14 12 11
4 2 3 3 11 16 14 16 7 7 4 9 10 11 12 13 17 22 24 28 27 20 19 12 10 11 16 20 18 19 19 20 20 19 18 17 17 15 13 16 16 16 16 17
3 3 3 4 3 12 17 15 12 10 13 6 5 10 11 9 17 25 24 27 28 35 20 19 15 12 14 17 18 21 20 17 20 19 20 19 17 15 17 16 16 17 16 17
5 1 5 7 13 8 9 12 12 14 7 4 7 4 12 14 10 11 20 23 24 30 32 24 21 18 19 17 22 22 24 24 20 23 20 18 20 17 16 17 18 16 15 16
5 7 4 11 6 8 3 8 8 11 9 5 5 2 6 11 11 12 16 20 23 24 25 31 28 21 17 21 21 21 22 22 21 21 21 20 18 17 16 16 16 17 17 18
5 6 6 9 6 6 8 11 4 5 0 1 7 6 5 6 6 6 16 25 25 24 23 23 30 26 26 24 20 19 20 20 19 18 18 18 18 17 16 16 16 16 18 19
5 6 8 6 3 5 2 6 3 2 2 3 1 5 8 6 6 5 1 5 18 26 24 21 22 28 28 27 23 17 18 18 19 18 18 18 17 16 16 15 15 17 18 20
3 1 3 2 3 2 5 5 3 4 4 4 2 3 4 3 12 9 3 6 6 6 25 23 25 30 27 22 20 18 18 19 19 18 17 16 15 15 15 15 16 17 17 19
3 3 3 2 5 5 5 3 1 3 2 4 4 6 1 5 4 8 8 5 6 6 5 18 23 23 22 23 19 17 19 19 19 18 17 17 15 14 14 14 15 16 16 17
2 5 2 3 6 3 3 1 1 2 2 1 3 3 3 7 6 4 4 4 5 6 7 10 13 21 22 21 19 18 19 19 19 18 17 16 14 13 14 14 14 15 17 17
4 4 2 2 2 3 2 0 1 2 3 1 1 3 8 10 7 7 8 5 1 5 9 10 12 17 21 22 21 19 19 20 19 18 15 13 12 13 14 15 16 17 18 19
2 4 3 1 5 3 4 4 4 3 3 1 1 4 8 9 6 9 8 6 5 2 5 10 14 18 22 22 23 25 22 16 15 13 14 13 11 13 14 15 15 16 17 17
3 2 3 1 2 5 5 6 6 2 4 3 2 4 3 9 6 6 6 2 1 3 2 6 12 18 19 21 20 22 26 28 26 25 26 21 16 15 15 15 15 15 15 16
2 2 2 2 1 1 5 7 7 5 2 4 7 7 3 4 5 9 11 6 4 5 4 7 10 15 18 20 21 22 23 22 19 18 18 16 14 14 14 14 15 15 15 16
2 2 3 2 3 2 2 4 8 7 9 5 7 12 10 7 4 9 13 3 1 1 6 9 13 15 15 17 20 21 21 20 18 16 14 13 14 14 14 14 15 15 16 16
3 2 3 3 7 6 6 7 9 10 13 12 16 17 15 23 27 21 19 14 9 10 11 14 17 17 19 20 21 20 20 19 16 14 13 13 14 14 15 16 16 15 15 16
3 3 1 2 2 5 6 14 14 9 8 8 14 13 9 8 7 9 11 11 15 17 15 18 20 20 22 23 22 22 21 19 17 15 14 14 15 16 16 16 16 15 15 16
2 2 1 2 1 3 6 2 4 2 6 11 11 8 7 8 8 13 16 17 19 20 15 14 16 20 21 23 22 22 22 20 19 17 16 16 16 17 17 17 17 16 15 14
1 3 1 1 3 8 6 4 1 2 5 6 5 3 4 5 8 9 2 5 12 16 20 18 18 14 23 25 23 23 22 21 19 17 17 16 16 16 17 17 15 15 15 12
2 2 2 3 1 3 2 3 3 2 4 6 3 0 2 4 2 2 12 15 15 10 9 15 15 17 20 26 26 25 24 22 19 17 15 15 15 16 17 16 15 14 14 13
2 2 5 5 3 7 1 8 2 2 2 2 2 4 5 3 7 13 16 12 12 9 12 12 10 10 20 24 25 25 23 20 17 15 15 15 15 15 16 15 13 14 12 13
5 4 4 4 4 6 8 4 3 1 1 3 5 7 7 9 11 10 12 8 7 5 4 8 13 17 18 20 21 21 20 17 16 14 14 13 14 14 14 13 14 12 12 13
1 3 2 2 1 3 8 12 9 14 11 12 10 11 10 11 8 8 7 5 4 3 2 5 7 11 12 14 14 16 16 15 13 13 13 13 13 13 13 14 12 12 13 13
5 7 1 6 4 8 19 21 18 19 17 20 17 16 15 13 8 8 4 2 1 1 2 3 4 5 6 7 8 9 10 10 12 13 14 14 13 11 13 13 12 13 14 15
3 7 5 6 9 15 15 15 14 13 16 17 18 16 15 13 10 9 8 6 3 2 1 1 1 2 2 4 6 7 8 9 11 13 14 15 13 12 13 13 11 13 14 15
2 5 4 3 17 10 15 21 25 23 21 19 17 15 15 14 12 11 10 8 6 5 4 5 4 5 5 6 6 7 7 8 9 11 13 14 13 12 13 12 12 13 14 15

GFSCGP_850_spd_087.txt.gz
Wind_Speed
4 3 6 8 5 10 7 13 16 5 11 11 10 6 7 8 9 10 11 11 8 12 15 12 16 18 17 20 19 19 21 16 16 30 25 21 22 19 18 16 14 12 11 11
4 2 4 5 11 9 13 10 8 6 15 8 8 7 11 10 9 17 20 18 21 17 16 17 13 17 21 20 22 21 20 19 19 22 21 21 22 21 17 14 14 16 17 15
3 4 4 8 5 7 2 8 5 9 6 6 11 8 16 8 20 23 24 28 30 28 19 23 20 14 16 23 24 25 23 21 21 23 24 23 21 20 21 19 20 20 18 19
3 5 6 6 3 5 6 9 11 7 7 2 5 3 12 14 11 8 25 25 23 25 27 26 23 20 17 19 25 27 26 26 25 26 26 23 23 22 19 18 19 20 22 20
6 9 8 9 2 6 2 15 17 11 5 7 8 2 6 10 9 11 18 30 28 24 27 27 30 26 21 20 23 26 29 29 26 27 26 25 24 23 22 22 22 22 20 18
7 7 4 2 4 6 5 5 9 4 2 2 5 5 5 5 16 7 9 28 26 25 25 25 21 30 28 23 23 24 27 27 27 28 28 27 25 25 24 22 21 20 20 19
1 3 4 2 4 9 3 4 2 3 3 4 3 4 7 3 5 8 9 24 30 29 27 23 23 28 31 28 26 26 27 26 24 24 26 25 24 23 21 20 20 20 19 19
5 6 8 8 4 4 7 2 4 4 3 3 1 5 5 6 7 9 8 9 8 6 22 27 25 26 32 29 25 24 23 22 22 23 22 22 21 20 19 18 17 17 18 18
4 3 5 3 3 3 4 3 4 4 3 4 3 5 6 3 4 4 4 2 4 5 5 21 27 24 27 30 27 25 24 23 23 23 21 20 19 18 18 17 16 17 17 17
3 4 4 4 5 2 2 3 4 3 2 3 3 3 4 5 5 4 4 2 3 2 1 3 19 23 24 28 27 25 24 23 22 21 21 19 17 16 16 16 14 15 15 15
2 4 2 2 2 2 4 3 2 2 4 3 1 5 5 8 7 7 5 5 2 2 3 4 8 19 24 24 24 25 24 24 23 20 20 16 16 15 12 13 13 13 13 14
2 4 3 1 2 1 0 1 1 3 3 1 3 4 2 7 8 12 8 5 5 3 3 7 10 13 20 23 24 24 24 22 21 20 16 14 14 11 11 12 14 14 15 16
2 1 3 3 5 3 3 4 3 2 3 2 4 4 2 5 7 9 10 7 4 2 2 4 9 12 18 23 23 24 24 25 25 24 22 18 21 26 28 24 22 20 20 18
2 2 5 5 4 4 4 5 5 4 3 4 5 4 3 5 6 9 13 7 7 9 6 6 7 11 18 21 22 23 24 24 24 25 24 25 27 25 20 15 16 16 16 17
3 2 4 2 3 3 2 3 6 6 7 5 8 10 13 6 1 4 12 14 12 9 12 10 9 10 13 19 21 21 22 22 22 22 19 17 17 15 15 14 13 14 15 15
2 3 4 4 4 4 3 6 7 7 6 8 10 12 9 18 26 15 10 7 15 15 15 15 16 16 17 19 22 22 22 22 21 20 18 17 17 15 13 14 14 14 14 15
3 3 2 4 3 4 6 7 9 4 6 6 9 16 2 6 10 11 10 10 10 11 13 15 16 20 22 21 22 24 23 22 22 20 19 18 16 15 14 14 14 14 14 15
3 5 4 3 2 0 6 0 1 7 7 8 8 9 7 4 2 4 10 13 16 16 19 18 16 15 25 20 21 20 21 22 22 22 21 19 17 15 15 15 14 14 14 13
2 2 1 2 2 6 2 2 1 2 5 4 2 3 5 5 7 8 6 8 14 17 18 20 20 16 16 25 24 24 23 23 23 23 21 18 16 15 15 16 15 15 14 14
1 5 3 2 1 3 2 3 1 2 4 4 5 5 4 8 4 4 13 20 20 17 16 15 15 19 18 22 30 28 26 24 25 23 20 17 16 15 16 15 15 14 14 14
1 1 4 2 2 6 5 2 3 1 5 3 1 3 5 3 7 14 16 17 17 15 14 13 14 16 20 19 31 32 27 23 20 19 18 17 15 15 15 15 14 12 13 12
5 4 3 2 2 5 4 2 1 4 4 7 8 9 10 11 13 13 12 13 12 10 8 6 7 7 8 15 27 26 24 18 18 18 17 15 13 15 15 14 12 12 11 10
0 5 3 6 5 4 5 9 10 13 21 20 18 19 18 17 18 14 13 11 9 6 5 4 4 6 9 12 15 17 18 18 17 15 14 13 14 14 13 12 12 12 10 11
5 6 1 3 2 7 8 10 14 16 17 21 19 16 19 20 20 16 14 11 7 3 1 1 1 4 7 9 11 11 11 11 12 13 14 14 15 14 13 12 11 11 11 13
3 4 4 4 6 18 5 27 19 24 25 24 26 24 24 25 23 17 16 14 9 6 3 2 1 1 2 4 5 7 8 9 11 12 13 14 14 14 13 12 9 11 11 12
0 1 1 3 8 11 20 20 18 19 17 21 22 25 22 18 22 17 16 15 13 10 9 9 5 4 2 4 5 6 7 8 10 12 13 14 14 13 13 13 11 10 10 12

GFSCGP_850_spd_090.txt.gz
Wind_Speed
2 3 5 7 8 1 11 13 10 11 10 5 8 4 8 8 8 17 17 14 15 15 12 12 18 22 23 22 22 26 32 28 24 26 28 29 27 25 23 20 23 16 13 10
3 2 8 5 8 4 8 14 7 11 15 5 8 6 6 4 10 19 26 18 17 15 16 16 15 16 21 21 20 23 25 23 27 29 35 34 27 28 21 18 21 22 16 15
1 3 10 5 4 4 5 13 11 9 7 6 7 4 9 8 23 30 28 25 25 24 18 17 19 19 19 22 23 23 23 24 23 20 26 31 24 23 23 23 21 20 18 16
4 4 9 9 2 4 6 7 13 15 7 2 1 2 8 13 12 12 26 29 30 31 26 22 20 22 23 20 24 25 25 24 25 24 26 28 30 29 27 22 20 19 20 19
1 9 9 4 4 3 4 10 11 17 9 5 2 2 6 4 15 14 18 34 33 26 25 30 29 25 22 22 22 27 28 28 27 28 29 29 26 23 25 26 25 26 26 27
7 3 4 4 4 4 7 10 11 9 3 1 7 6 4 5 11 15 11 29 33 30 25 23 26 22 28 26 25 25 26 30 29 29 31 29 27 27 28 26 28 28 26 25
6 6 6 6 6 10 12 6 3 2 2 3 7 8 9 8 6 9 12 28 30 30 29 27 25 24 24 31 29 28 27 27 28 29 32 29 29 27 27 27 28 28 26 23
3 4 6 7 4 4 4 4 3 4 4 3 5 5 6 4 5 4 6 10 18 24 27 27 28 26 26 29 33 30 28 27 27 28 32 29 25 25 22 24 25 23 22 20
4 5 4 3 3 2 3 4 3 6 4 4 3 5 5 3 4 5 7 6 4 6 8 10 20 28 24 29 34 31 29 27 27 26 21 20 19 22 20 21 22 20 18 18
3 4 2 3 1 1 2 2 3 4 3 2 3 4 3 2 5 1 2 1 1 2 3 7 10 23 24 28 31 30 28 26 26 25 24 22 23 18 22 20 19 18 15 15
3 4 4 4 4 2 4 3 4 3 3 4 3 5 5 8 7 8 5 3 1 1 3 5 4 8 21 26 28 26 25 24 24 23 23 21 18 21 15 13 12 13 14 17
3 3 3 1 3 1 1 2 3 4 3 1 2 5 5 4 6 10 7 6 6 4 0 3 6 8 12 19 22 23 23 24 23 22 22 21 28 25 23 24 22 20 17 16
1 2 3 7 5 4 2 1 3 4 3 2 3 4 4 3 3 7 6 3 2 2 3 5 6 6 10 15 19 20 21 23 22 22 21 21 23 24 23 17 17 19 23 23
3 3 5 5 5 2 2 2 3 4 3 3 5 3 3 4 5 6 4 6 9 9 9 7 8 8 7 10 16 20 21 22 23 23 24 25 26 22 18 18 21 23 20 18
3 3 2 3 4 4 3 3 3 5 5 4 2 6 7 6 6 6 16 20 14 18 17 15 13 12 11 12 14 19 22 23 24 25 25 27 25 23 21 17 17 16 15 16
2 1 2 3 3 4 3 5 6 6 3 7 9 13 9 19 15 16 12 5 8 12 17 18 19 18 18 17 18 20 23 23 24 24 25 25 25 20 17 16 14 13 15 17
2 3 2 3 4 5 5 5 4 3 3 4 7 9 6 6 9 15 12 7 9 11 14 16 17 19 23 24 23 23 23 22 23 22 21 22 21 19 17 15 15 15 16 17
4 3 2 1 4 2 5 3 3 5 6 5 8 10 8 7 6 4 6 7 8 9 12 15 17 20 19 18 26 23 22 22 23 22 22 21 21 20 18 17 15 16 16 16
2 4 2 2 2 5 1 2 0 1 5 1 3 4 3 5 4 6 5 7 14 18 19 21 21 20 19 18 18 24 23 22 23 24 25 24 23 20 18 17 16 16 15 16
4 5 3 2 2 4 4 3 2 2 4 4 2 3 3 6 4 4 10 15 17 17 19 20 20 19 18 17 17 25 25 26 24 25 25 23 22 20 18 16 16 16 15 15
2 2 4 2 2 6 5 4 1 1 5 4 5 8 9 4 9 16 18 19 18 19 17 18 17 17 18 17 20 25 30 28 24 22 21 22 22 19 17 16 16 16 15 15
5 5 3 2 2 5 1 1 3 4 9 12 19 19 19 20 19 19 19 21 19 18 16 15 13 12 13 15 20 26 30 28 24 20 20 21 20 19 18 17 16 16 14 14
1 4 3 6 4 2 7 3 12 16 16 18 22 22 21 20 20 22 21 20 19 16 13 11 9 8 7 6 6 14 24 28 23 21 19 19 19 18 17 16 15 15 14 13
2 3 1 2 1 4 8 6 23 20 22 25 26 24 23 24 27 29 25 21 21 16 12 8 5 6 9 8 8 9 13 16 16 16 17 18 18 17 16 16 15 16 14 12
4 2 1 4 5 17 3 24 25 27 21 24 26 25 26 25 30 29 31 24 21 17 12 8 6 5 4 5 8 10 12 13 14 14 15 16 16 16 15 15 15 14 13 12
2 3 3 4 3 6 16 21 22 19 25 26 27 29 31 29 30 30 30 22 19 18 16 13 10 7 6 6 5 7 10 11 12 14 15 16 15 15 15 15 14 14 13 12

GFSCGP_850_spd_093.txt.gz
Wind_Speed
4 3 6 5 4 3 13 5 10 4 11 10 7 14 3 8 9 4 3 4 8 10 15 21 22 25 26 26 29 32 33 33 34 35 38 34 30 28 34 28 24 21 22 13
3 2 7 7 2 3 12 9 12 14 16 6 5 7 4 5 4 6 7 7 12 12 12 12 16 23 26 24 29 31 35 38 38 40 36 35 33 32 28 25 24 25 24 21
3 6 9 5 3 8 4 13 8 14 7 5 7 4 5 5 12 18 16 16 15 19 17 14 12 13 19 25 25 26 27 31 37 36 34 34 30 28 31 29 28 26 27 24
3 8 9 5 7 8 4 4 17 19 4 3 4 1 7 7 9 11 22 22 24 24 21 17 15 16 16 18 23 26 25 26 28 30 29 32 38 38 35 33 31 28 28 22
2 8 6 6 3 1 3 14 14 13 7 3 3 2 4 3 14 11 13 29 29 29 26 25 22 19 20 19 20 22 22 23 25 26 28 27 29 33 31 29 33 32 27 26
5 2 4 4 3 7 9 18 13 6 3 1 5 2 3 5 7 6 20 27 32 29 28 24 21 23 27 24 21 21 21 21 23 25 28 28 27 27 28 30 29 30 27 25
7 6 5 5 8 11 14 5 3 2 1 3 6 4 8 7 8 7 9 25 29 25 25 25 24 22 22 23 25 25 24 21 21 24 28 29 28 27 27 27 26 27 27 20
5 5 9 9 3 4 3 1 3 4 4 2 3 4 5 3 10 7 6 7 12 19 20 22 22 22 23 22 22 27 28 25 24 23 25 27 28 30 28 26 20 18 16 18
3 4 5 7 4 3 3 5 0 5 2 4 3 6 8 4 5 6 9 7 7 3 3 6 9 14 23 24 20 26 27 27 25 22 22 24 26 29 27 22 20 23 19 23
2 5 4 4 3 6 2 3 1 2 3 1 4 4 4 2 2 3 4 5 4 3 2 4 8 13 13 19 18 21 26 25 24 24 23 23 21 21 24 22 18 14 13 15
3 4 3 2 4 3 4 3 5 4 3 3 2 5 3 6 3 2 1 2 3 4 4 5 6 7 6 11 15 17 22 23 23 22 21 20 18 17 17 17 19 17 12 8
1 4 3 1 3 1 0 3 3 4 2 2 3 4 3 4 2 2 1 6 6 6 6 7 9 9 6 6 10 15 19 21 20 20 19 18 18 20 19 17 16 17 25 30
1 2 3 6 5 5 3 2 4 4 3 2 4 4 3 5 5 2 1 3 6 6 7 8 10 11 10 7 10 13 17 19 20 20 19 19 20 22 22 20 21 22 20 17
3 3 4 5 3 3 2 0 1 4 3 2 4 4 4 3 2 4 3 4 13 13 12 12 11 9 10 8 7 11 16 19 20 21 21 21 22 21 23 23 21 19 17 20
3 3 3 2 1 2 1 2 4 4 4 4 2 5 5 6 5 10 11 17 21 16 15 17 16 14 12 13 11 13 15 18 21 22 22 22 22 21 23 21 18 22 22 18
3 1 2 4 6 1 2 4 4 4 4 6 5 9 7 17 13 13 17 11 9 11 11 13 13 16 17 17 17 17 18 19 20 22 23 22 24 24 24 23 21 17 15 14
3 3 2 2 4 4 3 2 3 2 2 3 3 7 3 6 9 14 15 10 11 11 13 16 17 18 19 19 21 23 22 22 20 22 22 22 23 23 24 22 19 16 15 15
3 3 2 1 4 2 5 3 4 5 4 5 6 6 7 7 9 9 9 9 9 9 11 14 17 18 19 19 22 21 24 25 22 22 22 22 23 23 22 20 18 16 15 14
2 3 3 2 1 5 1 1 1 2 5 3 3 5 5 7 7 10 7 8 11 15 17 18 19 20 22 21 20 22 22 25 24 22 22 22 22 22 22 21 17 15 15 15
4 5 3 1 2 3 4 2 2 2 4 4 4 6 8 10 4 4 12 12 17 18 19 20 20 20 21 20 19 22 22 24 24 23 23 23 21 21 21 18 16 17 17 17
2 3 3 2 2 6 4 4 1 1 4 17 14 17 18 5 12 27 29 28 25 25 24 21 21 21 19 17 19 21 22 25 22 22 21 22 22 21 19 18 19 18 18 17
5 5 3 2 2 6 5 2 0 4 12 17 20 24 24 26 27 27 28 28 28 28 27 24 22 20 18 16 16 20 25 21 26 25 22 22 21 21 21 20 19 19 18 17
1 4 4 6 4 1 4 4 8 12 16 19 22 22 25 28 29 30 35 37 36 30 29 27 23 20 16 14 13 15 22 24 24 26 24 23 22 22 21 20 19 19 17 17
1 2 2 1 3 3 10 3 18 21 22 22 23 27 29 29 29 34 36 34 36 34 31 28 24 19 15 13 10 6 6 11 15 20 23 21 21 21 20 20 19 18 17 16
4 3 3 3 3 6 4 12 20 23 23 27 28 26 28 28 30 31 32 33 33 33 28 28 24 15 11 10 9 9 4 8 12 15 16 17 17 18 18 18 17 16 16 16
6 5 4 4 2 3 9 16 19 21 26 23 26 29 28 30 33 34 34 31 31 32 31 28 23 17 11 9 7 7 8 10 12 14 16 16 17 18 18 17 16 16 15 16

GFSCGP_850_spd_096.txt.gz
Wind_Speed
3 3 6 15 12 9 5 4 7 3 12 6 9 8 14 18 8 6 3 5 9 13 21 24 25 26 28 32 30 34 32 26 24 34 30 25 28 33 32 30 25 22 21 21
4 6 7 8 9 11 11 9 10 14 13 5 6 6 12 11 6 4 2 3 6 10 11 16 22 24 28 33 33 30 33 33 35 30 34 35 37 34 33 31 26 27 27 22
6 2 11 7 7 10 5 13 9 9 10 4 5 4 4 6 9 12 8 7 5 6 10 10 10 17 26 28 30 31 32 35 34 34 31 34 38 35 34 35 31 31 28 26
5 4 6 7 5 9 6 9 13 18 9 4 2 2 4 4 11 6 11 9 8 9 10 9 9 9 9 19 25 25 25 29 29 32 35 38 33 36 38 38 36 34 30 29
1 5 6 2 3 8 3 13 12 10 5 5 4 2 4 3 8 9 7 14 15 16 14 14 12 9 9 10 12 20 21 23 23 26 28 31 35 35 36 33 34 33 31 28
4 3 3 3 3 8 12 15 7 3 2 3 4 2 5 2 6 2 6 20 22 22 21 17 16 17 18 16 14 16 16 18 20 22 23 25 25 25 26 25 27 31 32 31
7 14 3 6 10 7 7 5 3 3 3 2 1 1 6 3 7 3 8 15 21 24 21 20 21 21 17 19 21 24 19 16 16 18 20 21 23 22 23 23 24 24 26 25
5 5 10 12 5 4 4 3 3 4 3 2 5 3 4 2 8 4 1 2 4 12 17 17 18 21 19 19 17 22 23 24 22 20 20 20 19 22 23 25 24 24 24 22
4 5 4 5 2 2 4 4 2 6 4 4 1 5 6 4 6 8 12 17 16 14 9 6 4 8 14 16 17 17 20 21 22 21 19 19 18 19 21 23 24 22 21 17
2 5 4 5 3 4 3 1 2 3 4 2 1 3 3 8 7 6 8 13 12 10 8 6 3 3 7 13 17 21 19 21 20 19 17 16 16 16 15 16 18 18 17 17
2 3 2 2 4 3 5 3 4 5 4 3 2 3 3 6 6 3 6 11 13 13 12 10 8 6 5 3 9 15 15 15 18 18 17 16 15 13 12 10 14 14 14 14
4 4 4 2 4 2 2 2 3 4 1 2 2 3 2 4 2 6 7 10 9 10 9 9 10 12 11 6 2 7 10 13 15 15 16 15 13 12 13 15 16 16 15 15
1 3 3 6 5 4 4 3 3 5 4 1 3 4 3 3 5 7 5 6 9 12 11 10 9 8 8 7 4 2 5 9 12 13 14 13 13 14 16 18 18 18 17 16
4 3 3 5 3 2 2 3 3 4 3 3 4 3 4 7 6 8 10 5 10 18 18 16 15 13 11 10 8 5 4 6 10 12 13 14 15 16 18 19 19 18 18 16
4 4 3 3 1 3 2 3 2 2 2 4 3 5 6 7 6 11 14 14 17 17 12 14 17 18 16 13 12 12 10 9 11 13 15 15 15 17 21 24 23 20 16 18
3 1 2 5 7 5 1 1 2 3 3 4 4 7 5 7 11 12 15 16 18 17 15 12 12 12 14 15 17 17 15 14 16 15 16 18 18 20 22 22 20 20 18 19
3 3 3 3 4 3 3 1 0 2 1 1 2 5 5 7 9 12 14 13 13 13 14 17 18 19 19 19 20 20 20 21 22 21 18 20 21 23 23 22 23 23 19 17
3 3 2 1 4 3 5 3 4 4 4 3 4 6 7 8 15 18 15 13 14 13 16 20 21 22 21 22 22 23 22 24 25 26 22 21 24 25 24 24 23 22 19 16
4 4 3 2 1 4 1 2 2 3 3 7 5 8 13 20 12 11 16 19 21 22 27 26 26 25 25 24 23 25 25 24 26 28 27 24 26 26 25 24 23 20 17 16
4 6 4 1 2 2 4 1 1 2 1 8 11 9 11 17 5 4 24 22 23 23 23 26 27 27 27 26 26 27 26 26 28 28 28 26 26 25 24 22 21 20 18 17
2 3 3 2 2 6 3 5 0 2 3 12 11 14 14 2 9 24 28 29 30 31 29 26 26 27 28 26 26 26 25 28 25 26 27 25 25 25 23 22 22 22 19 17
5 4 2 2 1 5 3 1 1 1 5 12 14 16 18 22 29 31 34 34 34 35 34 32 30 27 26 27 26 25 25 23 25 23 26 25 26 26 24 23 23 22 20 17
2 5 4 7 4 3 3 10 5 7 11 12 17 21 24 28 28 30 32 33 34 36 35 35 33 30 25 25 25 24 21 21 23 23 24 26 26 25 24 25 24 22 21 19
2 3 2 1 3 5 2 6 6 12 12 17 20 21 22 24 27 30 31 32 33 37 37 35 35 32 29 23 24 21 17 15 17 19 21 26 28 27 26 25 23 22 21 19
4 5 4 3 4 3 3 2 12 15 17 21 21 21 24 26 31 31 34 34 35 36 32 35 33 34 30 22 21 17 14 8 10 15 19 24 25 24 23 23 22 20 17 15
9 6 5 5 7 3 2 7 14 16 20 19 19 22 25 25 28 29 33 33 34 31 31 34 34 32 26 20 18 13 12 9 8 12 17 19 21 19 17 17 16 16 17 16

GFSCGP_850_spd_099.txt.gz
Wind_Speed
5 4 6 11 11 2 2 9 11 4 11 8 7 1 5 15 17 23 15 9 19 29 25 14 12 23 32 30 29 24 29 28 28 24 31 29 24 21 22 21 21 19 21 20
4 8 8 11 10 9 2 10 6 9 11 4 6 2 5 6 14 19 14 7 12 23 27 28 27 21 30 31 45 32 31 28 30 27 32 32 29 22 31 23 25 24 24 22
10 4 10 8 9 10 7 12 7 13 10 8 5 6 7 8 14 12 17 9 5 16 24 30 30 29 29 28 28 32 31 32 34 37 30 27 31 35 31 26 27 29 27 26
6 5 8 10 7 10 9 7 14 16 6 5 2 1 5 3 5 9 10 6 3 7 13 15 19 23 26 26 26 28 29 35 37 36 28 26 27 29 32 30 33 32 26 27
5 5 3 5 7 13 3 9 16 8 9 10 1 2 4 2 1 8 7 2 4 3 8 10 10 9 7 17 24 26 27 27 30 33 30 35 31 27 31 31 37 35 30 29
3 2 1 2 1 4 10 7 5 3 0 4 1 2 2 2 1 6 6 7 8 8 8 8 7 7 6 6 9 11 21 25 22 23 24 25 25 26 28 31 33 32 31 32
3 3 3 3 7 3 5 4 2 4 4 2 4 1 3 2 2 4 7 14 12 18 16 11 9 9 9 8 11 14 14 14 16 19 19 21 20 20 20 24 24 22 22 23
5 5 8 8 3 3 3 2 3 5 4 3 3 4 2 3 9 8 7 6 8 14 15 13 12 14 16 15 14 14 16 20 19 15 17 16 17 17 19 21 19 18 17 17
2 5 3 5 4 3 6 4 1 6 2 3 2 2 1 4 9 10 12 13 14 14 7 4 4 7 12 16 17 19 18 17 19 20 18 18 17 18 19 19 18 19 17 18
2 4 3 3 3 6 1 0 1 3 4 4 3 2 2 7 7 5 7 12 14 13 11 7 3 2 2 7 11 14 18 15 16 16 15 15 14 14 13 14 14 16 16 17
2 3 2 2 4 2 3 2 5 4 2 4 3 2 2 5 4 3 5 11 13 14 13 12 10 8 5 4 4 10 14 15 14 15 14 13 12 12 11 10 10 12 15 16
3 3 4 1 4 3 2 3 3 3 3 4 3 1 2 2 1 5 6 9 13 14 12 11 11 11 11 10 5 1 5 8 9 10 10 11 11 10 10 10 12 17 19 19
1 3 3 6 3 2 5 4 4 4 2 2 4 2 2 3 4 8 9 5 6 9 13 10 9 8 8 8 8 5 2 4 7 8 9 11 11 11 11 12 16 18 19 19
4 4 3 4 2 1 4 4 3 3 3 2 1 0 1 6 6 12 12 10 12 15 13 9 9 9 9 9 7 6 6 5 7 10 12 13 13 13 13 15 18 20 21 20
3 4 3 4 3 3 3 4 3 4 2 3 1 2 4 6 6 11 15 15 14 13 12 13 13 13 10 8 10 10 11 11 12 12 13 14 15 16 18 20 21 22 22 20
4 1 2 4 5 5 2 2 3 3 2 0 1 2 2 10 12 16 17 16 17 18 17 17 17 18 16 14 13 11 11 14 15 16 15 17 19 20 21 22 24 26 25 23
3 3 3 2 4 3 4 2 1 1 2 2 2 2 4 5 10 17 19 19 19 18 17 19 19 19 19 19 19 18 17 17 18 19 21 22 21 23 25 26 27 27 26 23
3 3 2 1 3 3 4 3 2 4 5 6 4 5 6 8 15 4 12 18 20 21 23 25 24 23 22 22 21 22 21 21 22 22 24 25 26 25 27 28 28 27 27 24
4 3 3 3 1 3 1 2 1 2 1 4 3 4 8 19 13 4 11 23 24 24 25 26 26 27 28 26 24 25 24 23 24 24 25 26 29 28 29 28 27 28 27 23
4 5 4 1 2 2 4 2 1 2 3 1 2 4 8 15 6 5 27 32 32 31 30 32 32 32 31 29 29 29 26 25 25 23 24 26 29 30 28 27 28 27 24 23
2 3 3 2 1 5 4 3 1 2 2 2 4 8 9 4 9 24 31 33 34 37 38 36 36 35 35 31 28 31 30 28 23 24 24 24 25 28 27 27 27 26 25 24
5 5 3 2 2 5 4 2 5 2 2 4 6 11 15 19 24 28 31 33 33 35 33 34 38 37 34 31 30 32 31 26 26 24 24 24 23 28 28 27 26 26 26 25
2 5 4 6 5 2 3 4 8 3 2 4 11 15 16 20 24 26 27 29 31 31 32 34 36 35 32 31 30 32 31 26 26 25 23 23 22 27 27 27 28 28 28 26
3 4 2 1 3 6 7 9 4 2 5 10 13 14 16 21 22 26 27 28 30 31 33 36 31 33 35 36 32 29 28 28 25 24 22 22 24 28 28 29 29 29 29 28
4 6 4 3 3 3 6 12 4 4 8 13 14 16 17 19 24 25 29 31 33 36 36 36 32 40 40 38 38 27 24 25 23 21 20 23 25 30 32 32 32 31 29 25
10 7 5 5 11 5 6 14 5 5 9 11 14 17 16 16 21 24 27 29 33 35 34 33 39 39 35 29 26 25 22 21 20 17 17 21 24 28 30 29 29 26 23 22

GFSCGP_850_spd_102.txt.gz
Wind_Speed
6 5 10 11 16 6 2 12 14 15 19 17 12 8 9 6 4 12 17 17 16 21 30 31 25 24 30 34 32 31 27 24 23 28 18 21 21 18 16 17 18 19 18 17
5 10 13 13 14 13 2 13 15 9 19 11 10 10 6 8 5 10 16 14 12 9 17 25 23 19 17 38 35 34 31 24 22 16 18 19 22 19 18 18 16 14 16 18
11 5 9 8 7 8 8 12 12 11 14 5 11 5 4 3 2 8 10 11 9 7 15 16 13 8 11 22 24 21 17 23 30 21 17 18 20 22 22 21 19 16 14 18
7 5 6 8 11 9 9 15 10 16 15 5 7 4 9 13 7 4 7 7 5 8 14 18 21 25 15 22 19 29 23 24 26 23 29 26 23 20 28 33 27 25 21 22
2 3 6 5 7 13 3 14 16 19 10 7 9 4 6 10 4 6 5 10 8 10 12 14 19 24 23 24 30 38 32 26 25 34 29 31 30 27 23 27 27 34 39 35
2 1 3 3 7 15 7 8 3 1 3 5 4 6 2 6 5 0 1 12 11 14 13 13 14 13 10 23 28 32 35 30 32 27 29 31 34 38 31 30 34 41 36 31
2 2 2 2 6 8 7 11 3 3 3 4 2 2 4 5 6 4 10 10 3 12 12 11 10 10 9 10 13 17 21 28 30 29 28 29 30 28 28 26 29 38 37 31
3 3 3 1 2 3 4 2 2 5 4 4 3 5 5 9 9 10 6 6 3 7 8 8 6 4 5 8 10 12 14 15 18 22 24 24 26 23 25 22 22 22 22 22
2 4 6 7 4 2 1 3 2 5 3 5 3 5 5 6 11 11 11 13 15 11 8 7 3 2 4 7 12 13 13 15 18 22 21 20 20 20 20 19 19 19 19 18
3 4 6 6 5 3 5 1 1 1 4 5 5 8 6 7 9 9 13 17 17 17 14 11 7 3 0 4 7 11 16 18 19 20 20 20 19 18 18 18 17 17 18 18
3 3 4 3 7 8 4 2 4 1 3 4 5 5 6 3 5 10 11 12 12 13 12 13 13 13 10 5 3 8 11 15 18 16 16 16 16 15 15 16 16 16 17 19
4 3 4 4 2 4 3 5 3 2 4 4 8 5 5 5 7 10 9 8 10 12 12 10 10 10 10 10 6 3 4 8 12 13 14 16 15 15 15 16 16 17 18 21
3 3 2 4 4 2 5 6 4 2 1 3 3 6 4 7 7 12 10 9 8 11 12 11 11 9 9 8 6 5 3 4 6 9 11 13 14 15 16 17 17 18 20 24
1 4 5 3 4 2 2 7 9 5 3 7 10 15 5 8 8 9 10 10 12 14 12 11 11 11 11 10 10 10 9 8 8 10 12 14 15 15 16 16 17 20 23 25
2 4 4 7 6 3 6 7 8 5 3 5 7 8 9 9 9 12 12 14 14 15 15 15 14 12 13 14 12 10 11 12 13 14 14 15 16 17 17 18 19 21 23 25
2 4 2 3 5 4 6 4 3 5 3 5 4 9 6 6 9 12 13 13 14 14 13 13 14 17 17 15 16 17 18 17 17 17 18 18 18 19 20 21 23 25 28 29
2 2 1 2 5 1 4 5 5 3 5 3 3 5 7 8 9 6 8 10 11 13 16 17 18 17 18 19 21 22 21 20 21 23 22 23 23 24 24 26 27 28 29 30
3 3 2 2 1 1 3 3 1 6 5 5 6 4 4 6 10 6 1 11 17 18 19 20 20 21 22 23 23 24 24 25 25 24 24 26 27 30 30 30 30 30 31 31
5 2 3 1 1 1 1 2 3 2 3 3 3 1 4 9 9 6 6 15 20 22 23 24 25 25 26 26 26 25 26 25 27 27 26 26 28 30 34 35 33 32 33 33
2 5 0 1 1 3 3 3 1 1 3 5 2 1 6 11 7 7 13 22 23 22 22 24 26 27 28 30 29 28 28 32 29 28 26 27 28 31 33 36 35 35 34 32
0 1 1 2 2 3 4 4 4 3 3 7 4 2 4 4 9 17 21 23 25 24 26 26 26 26 27 26 27 30 29 30 32 31 29 28 28 30 32 33 37 37 36 34
3 3 3 2 3 3 9 5 5 5 7 5 4 3 7 11 14 16 19 20 22 24 26 25 27 28 30 28 27 29 32 30 31 32 31 30 28 29 31 34 37 37 36 36
3 2 2 5 1 3 9 2 6 7 5 4 4 6 9 12 14 16 19 21 22 25 26 28 30 33 36 32 29 34 41 32 29 30 29 29 28 29 32 35 40 38 39 38
4 4 3 2 5 7 7 7 10 7 3 3 8 9 9 11 14 18 19 21 24 24 26 26 30 34 36 34 42 43 39 33 29 30 29 27 29 29 33 36 39 40 41 40
0 8 5 5 5 3 11 14 12 8 5 6 7 7 8 11 15 17 20 22 25 28 29 31 32 35 42 43 43 41 32 29 29 30 27 26 27 28 32 36 40 41 40 41
12 7 7 5 8 4 3 18 16 9 6 7 8 8 10 14 15 16 19 21 25 29 30 29 30 35 37 38 40 29 23 23 25 26 24 27 25 27 30 35 38 40 40 40

GFSCGP_850_spd_105.txt.gz
Wind_Speed
10 6 12 15 16 20 17 16 14 16 19 21 20 17 15 13 11 16 13 11 12 16 12 25 25 22 25 23 25 41 30 31 27 24 22 22 22 21 21 18 19 20 20 19
5 15 15 11 15 15 16 13 17 17 14 18 18 15 12 12 14 18 15 13 14 12 8 21 21 19 15 15 26 26 35 35 24 18 16 17 18 20 17 18 17 15 16 15
11 6 3 7 12 12 14 18 17 6 20 19 14 11 10 7 8 12 12 15 12 7 14 17 13 11 9 10 30 29 30 34 24 14 17 13 11 15 15 14 16 17 16 16
7 6 8 11 13 13 14 14 9 17 18 9 16 6 5 5 6 10 12 10 7 6 14 18 6 5 4 6 27 33 28 29 23 18 18 15 14 11 16 14 17 19 19 15
3 2 5 8 10 10 8 14 10 15 8 14 6 3 5 6 2 4 2 6 7 10 16 15 9 6 2 4 8 25 17 16 33 32 31 21 18 16 16 17 17 22 22 23
3 3 3 6 7 10 9 4 7 3 5 5 5 3 10 7 6 1 9 7 11 13 14 12 11 15 13 11 11 20 23 20 22 19 23 25 25 24 21 24 21 23 26 30
2 1 4 6 2 6 3 5 2 1 3 4 8 6 6 11 10 3 5 5 11 13 17 15 13 15 15 19 22 24 28 31 27 25 22 22 27 25 26 26 21 23 30 33
4 3 5 3 4 3 6 5 3 3 2 5 11 8 5 10 8 7 4 6 13 13 16 13 11 11 11 10 12 22 24 27 27 31 28 30 32 29 29 32 32 38 38 32
1 3 5 1 7 6 4 2 4 1 11 5 3 1 3 9 10 12 5 20 19 14 13 11 11 11 10 12 15 16 17 20 19 19 19 28 28 27 29 27 26 30 28 27
3 2 4 7 7 3 2 2 3 1 2 6 5 5 5 11 14 13 13 21 19 13 12 10 9 7 6 3 5 10 16 17 18 19 21 22 21 21 24 23 23 23 23 22
1 3 5 3 8 9 8 6 4 4 3 3 5 6 6 9 12 14 15 19 17 14 13 13 14 15 13 9 6 1 3 8 13 14 17 19 19 20 21 23 22 23 23 23
5 3 3 2 4 2 5 7 6 4 3 4 8 6 6 9 11 12 14 15 16 17 16 18 16 14 13 13 13 10 7 3 6 11 13 14 16 18 19 20 20 22 23 23
6 3 1 3 4 4 4 10 9 3 4 5 1 7 7 8 11 15 15 15 15 15 16 16 15 14 15 14 13 13 12 9 6 7 9 11 14 17 19 19 20 21 22 23
4 5 5 5 5 5 7 12 13 5 5 12 12 15 10 9 10 11 14 13 13 15 17 17 14 14 14 13 12 12 13 13 13 11 10 11 14 16 17 19 20 20 21 21
3 4 5 8 6 5 7 10 13 11 6 9 13 12 9 9 9 10 10 12 16 17 18 16 16 16 14 14 13 13 14 15 15 16 16 16 15 17 18 20 20 20 19 22
1 3 1 4 6 4 7 10 7 10 9 8 10 8 5 7 8 9 11 12 13 14 15 17 19 19 19 19 18 19 16 16 18 20 20 19 21 21 20 20 21 22 23 25
4 2 0 2 3 1 1 8 7 5 8 5 1 4 3 4 5 3 5 6 7 7 10 11 12 15 18 21 23 24 25 25 24 22 22 22 24 25 25 25 24 25 25 26
2 2 2 2 3 2 4 3 2 4 3 4 6 3 2 4 7 6 3 6 11 13 10 8 9 13 16 19 21 24 26 28 30 30 30 27 25 27 28 29 31 30 29 29
4 1 1 2 3 3 1 3 3 2 1 2 3 1 3 8 12 2 1 12 20 22 22 21 20 21 20 18 18 20 22 25 29 30 29 29 29 30 30 32 34 35 34 33
2 2 3 1 2 2 5 7 4 1 4 8 5 2 3 9 6 3 12 17 19 18 19 21 24 25 24 24 24 24 24 24 26 29 32 33 34 34 34 33 36 35 38 37
1 2 4 2 2 0 8 10 6 4 3 12 8 3 2 4 7 16 19 20 19 19 21 24 23 23 24 25 26 29 31 30 29 30 32 35 35 37 37 36 34 36 38 40
3 2 3 1 2 2 12 6 4 6 10 8 5 1 5 9 12 15 16 18 18 20 21 20 22 25 27 29 30 32 33 32 32 34 37 37 36 35 35 35 34 37 39 39
3 2 3 4 1 2 17 1 5 5 7 5 4 3 6 10 12 13 16 17 17 18 18 19 21 25 28 28 27 33 37 37 39 39 38 35 35 33 33 34 34 35 41 42
4 4 3 3 3 7 11 8 8 7 6 6 5 6 6 10 12 14 15 16 17 17 19 21 24 24 28 28 29 32 34 36 33 32 33 34 32 31 32 33 32 35 42 44
3 7 5 9 10 3 12 14 12 10 8 6 6 6 7 9 13 14 16 17 17 18 19 22 22 25 31 32 33 31 32 33 32 28 27 27 30 32 33 36 33 38 41 44
11 9 6 4 2 6 1 15 14 12 10 7 5 7 7 10 13 14 16 17 18 20 23 24 26 31 33 32 32 31 31 32 30 28 25 27 29 29 30 29 37 36 34 38

GFSCGP_850_spd_108.txt.gz
Wind_Speed
15 4 9 12 14 16 16 17 18 20 12 11 15 13 27 18 13 12 18 16 11 16 17 19 14 22 21 22 18 18 19 20 23 25 32 33 30 27 26 27 26 23 24 21
4 12 13 13 10 14 16 15 16 19 8 10 6 14 21 14 10 18 20 22 15 11 14 17 12 16 15 14 17 20 23 26 26 24 23 25 28 24 25 25 25 23 22 21
8 4 3 7 11 16 13 15 13 9 11 9 14 16 19 16 12 15 20 14 10 9 8 10 13 9 8 14 4 19 30 30 27 28 25 22 21 21 21 20 21 21 20 21
7 9 9 9 13 13 13 7 9 9 7 7 12 5 12 8 6 7 12 16 11 8 16 19 15 11 1 9 11 10 27 39 27 20 24 22 15 19 22 17 16 15 17 18
2 3 3 6 8 8 8 6 14 12 6 11 13 1 4 4 7 5 2 5 9 3 22 17 8 5 8 6 5 22 26 36 36 21 14 14 12 11 7 12 13 16 17 21
6 4 3 4 12 8 6 6 1 3 5 4 3 2 2 4 5 3 8 10 11 15 21 17 14 11 14 8 15 24 22 19 28 39 28 24 19 19 16 7 17 19 19 22
3 3 3 8 7 1 4 2 3 0 2 2 6 6 1 9 8 4 3 5 12 20 19 18 17 16 13 12 13 14 18 15 20 29 41 32 34 30 33 24 28 25 24 24
4 3 4 3 3 3 4 3 3 3 2 2 6 5 5 8 6 4 5 3 11 16 15 11 11 13 9 8 14 13 13 16 16 20 28 24 25 27 27 33 27 28 28 29
3 4 4 10 9 5 4 3 2 3 5 3 4 1 10 13 16 13 13 15 16 16 7 4 6 6 4 6 7 10 19 23 21 26 27 30 31 26 27 37 30 29 33 37
5 4 4 6 4 5 6 6 1 2 3 4 3 5 4 10 11 12 13 17 20 13 14 15 13 10 9 5 2 4 8 10 12 16 18 23 25 24 27 30 28 28 26 28
3 3 3 3 5 5 5 5 4 1 2 1 3 4 7 14 10 11 13 19 21 23 21 20 18 17 17 15 14 9 2 4 10 11 14 16 17 19 21 22 23 24 25 25
3 4 2 2 3 2 5 6 5 3 7 5 5 5 6 10 10 16 18 19 24 23 22 20 19 20 19 18 16 16 13 9 6 6 10 14 15 18 18 19 21 20 23 24
5 4 3 3 2 2 5 9 6 2 2 6 4 3 7 10 10 18 20 23 22 20 20 20 21 20 19 18 17 15 12 10 9 7 6 9 12 15 16 17 20 19 21 23
4 5 4 2 2 3 5 10 10 4 5 10 7 9 7 8 8 12 18 19 19 20 20 19 18 17 15 14 14 13 14 14 13 11 10 10 11 14 16 18 20 20 21 22
4 3 4 3 4 1 5 7 12 11 7 7 9 11 6 6 7 13 15 16 17 17 15 15 15 14 13 13 13 13 13 13 15 15 15 14 14 16 16 18 20 22 22 23
3 1 1 1 6 3 6 8 8 9 11 12 11 7 6 8 8 10 11 12 14 14 17 18 16 17 18 20 20 20 19 20 21 19 19 19 18 18 18 20 22 23 23 23
4 1 2 2 4 6 1 4 6 5 5 1 5 5 6 5 4 5 7 10 14 15 21 23 23 24 23 23 24 24 24 24 25 24 25 26 24 22 22 23 23 26 26 26
4 2 1 3 4 2 3 2 1 6 5 6 7 5 6 4 4 5 6 2 8 15 21 20 21 23 25 27 27 28 28 29 29 30 29 26 25 28 28 25 27 26 28 30
4 2 1 2 1 2 4 4 4 1 4 4 7 6 5 2 7 14 11 1 7 10 14 16 19 21 22 20 22 27 31 33 34 33 31 32 30 27 25 28 30 29 28 30
5 3 1 1 1 2 2 4 4 3 0 7 7 6 3 5 3 3 8 9 4 5 5 11 14 15 16 16 18 21 23 26 29 32 35 35 32 34 36 34 29 30 32 32
1 2 3 4 3 2 5 7 4 2 5 11 8 8 4 1 2 10 15 12 12 10 11 11 11 13 13 14 16 16 19 22 24 29 32 36 40 42 38 37 35 33 32 35
2 1 4 1 2 4 12 4 4 5 12 12 8 5 3 6 10 11 12 14 14 16 17 20 22 23 24 22 22 22 24 25 27 26 30 33 36 38 42 38 39 35 33 36
2 3 2 2 4 1 20 4 8 8 10 9 7 6 5 9 11 12 14 15 16 18 20 23 25 27 27 26 27 33 33 33 31 31 34 33 32 33 33 34 37 34 32 34
4 4 2 3 2 6 14 10 10 9 9 9 7 6 8 10 11 12 14 16 19 20 23 25 28 28 28 28 30 30 31 32 34 36 36 34 32 33 30 30 33 33 34 33
3 7 6 5 7 4 12 19 16 13 13 11 8 8 8 8 10 13 15 16 18 21 24 26 29 28 27 32 32 32 32 33 37 37 37 35 31 29 30 27 30 32 35 35
12 7 5 5 9 9 2 19 19 19 17 12 9 7 8 8 12 13 14 16 19 21 24 26 28 26 26 30 31 33 31 32 37 38 37 37 36 33 32 27 31 30 31 33

GFSCGP_850_spd_111.txt.gz
Wind_Speed
1 1 7 9 8 7 9 13 17 18 20 17 15 14 18 21 12 19 30 30 27 20 16 18 23 25 21 21 21 23 20 17 28 40 41 44 40 39 36 34 37 36 31 28
3 9 10 9 10 13 12 16 18 16 15 11 12 16 9 10 6 19 22 27 18 10 12 19 24 21 20 21 16 17 17 15 14 36 35 32 35 34 33 29 28 30 28 27
7 3 9 5 11 12 12 13 14 12 12 8 2 7 11 5 18 31 31 23 23 20 14 14 12 14 15 14 9 11 15 17 21 24 23 22 23 27 29 31 30 29 28 27
6 6 9 8 11 12 11 9 7 8 5 3 5 5 3 4 11 14 23 19 14 17 14 12 11 7 2 11 15 27 20 22 27 28 24 21 24 23 21 26 26 26 26 26
2 3 6 6 7 8 9 7 3 14 6 4 6 4 5 8 5 4 6 17 16 16 14 19 9 4 9 6 14 19 18 19 28 29 25 27 29 26 21 21 21 20 21 23
7 5 3 5 8 11 9 4 8 1 2 4 4 9 2 3 5 6 7 1 17 15 21 15 12 15 4 4 2 21 21 32 35 32 30 25 25 24 17 14 19 17 17 22
5 5 4 6 6 2 3 2 3 3 4 3 8 5 0 9 7 7 6 11 8 17 21 17 15 17 10 14 21 19 17 26 33 24 21 18 11 11 14 15 14 13 15 17
5 6 3 4 5 4 2 3 2 4 3 2 3 4 6 13 11 6 6 8 16 20 14 10 6 5 4 1 6 12 16 20 28 26 29 29 23 24 18 22 25 26 28 25
4 4 3 7 5 3 2 2 2 2 1 3 4 2 2 16 14 13 14 14 23 27 22 15 9 6 5 3 1 5 7 10 13 8 8 23 18 23 36 37 38 34 37 32
3 4 5 3 5 7 5 2 3 2 3 4 3 3 5 10 9 10 11 25 34 28 23 20 18 19 15 14 10 5 1 2 8 10 12 22 27 23 23 29 35 27 42 34
3 2 6 2 3 4 5 4 3 1 4 1 1 4 1 5 12 17 19 18 23 22 22 20 22 22 21 21 20 16 12 5 1 5 8 11 14 19 22 19 19 23 31 34
1 2 3 2 4 3 3 5 2 3 5 3 3 4 4 10 6 12 17 22 24 22 21 23 22 23 23 22 19 18 16 13 11 5 2 8 13 17 19 21 22 25 26 27
4 3 3 8 6 6 4 11 3 3 3 4 4 3 4 11 11 14 17 20 21 20 20 20 20 22 19 16 16 16 16 15 11 9 7 6 7 10 13 15 17 21 22 22
1 3 3 5 5 5 6 12 8 5 4 3 4 6 4 5 6 10 17 17 17 18 18 17 16 14 12 10 11 10 9 9 9 8 8 8 9 11 12 13 17 20 21 23
3 2 3 2 3 2 4 5 10 6 5 5 7 5 3 3 4 8 12 11 13 16 18 18 19 15 15 15 14 13 13 12 13 14 15 15 15 15 15 16 18 19 20 22
4 1 2 2 3 2 3 7 7 8 11 7 8 4 5 8 10 8 8 7 10 11 14 17 22 22 19 20 22 20 20 20 20 20 20 21 22 22 22 22 22 21 23 24
2 3 2 3 2 2 4 2 2 2 3 6 4 5 6 4 6 5 5 2 3 6 12 17 15 16 20 22 23 22 22 23 25 25 24 24 23 24 25 24 25 26 25 25
1 2 2 3 3 2 5 1 2 4 2 3 5 4 5 3 1 4 3 2 7 14 20 21 21 23 24 24 24 26 27 27 30 30 30 28 26 26 26 27 28 28 26 26
2 3 1 2 2 3 0 3 5 5 5 5 6 4 2 4 6 3 3 7 14 22 25 23 22 23 23 23 23 24 25 27 29 31 33 34 36 37 34 33 32 30 30 31
1 3 3 1 1 4 4 4 5 3 4 9 10 7 6 3 1 4 5 9 16 15 16 18 17 17 18 19 21 22 23 24 26 28 30 32 37 37 38 37 36 34 34 33
2 2 3 1 2 6 4 7 6 3 5 14 17 16 13 5 8 5 7 10 9 9 13 16 19 21 22 21 20 18 20 22 24 26 29 30 32 34 37 40 38 38 32 34
5 4 4 2 2 6 13 6 7 4 11 20 16 15 13 8 7 5 5 5 5 8 12 16 17 16 15 12 12 17 20 20 22 26 27 30 32 33 35 37 39 38 37 30
3 6 3 7 5 4 24 6 11 12 18 19 18 16 12 10 7 6 5 5 7 10 11 13 15 16 17 14 12 15 18 20 22 25 25 31 31 30 30 33 35 37 36 32
4 6 3 2 3 8 23 13 15 16 16 16 16 14 12 9 7 6 6 7 9 11 13 15 17 19 20 20 17 16 21 22 23 23 27 31 31 33 31 30 30 35 36 33
6 6 4 5 7 3 15 26 22 18 15 17 14 12 8 7 6 6 7 8 10 13 14 17 20 23 25 26 22 23 28 30 29 30 32 32 32 32 35 34 33 32 33 35
11 8 6 6 11 6 5 18 24 23 21 17 15 11 8 7 7 8 10 11 13 14 16 19 22 25 27 28 24 25 29 31 32 34 35 35 35 34 37 38 40 35 30 32

GFSCGP_850_spd_114.txt.gz
Wind_Speed
2 3 5 8 8 3 2 7 14 17 18 15 18 23 20 25 18 20 29 32 30 28 30 26 23 24 23 29 28 26 26 24 25 29 31 37 43 43 46 43 42 39 34 35
3 7 8 7 8 7 8 15 19 15 13 7 13 20 22 19 13 23 26 29 29 29 25 20 20 24 28 27 26 26 24 20 20 24 30 36 41 48 36 34 39 39 38 36
6 5 6 4 9 12 14 14 15 14 13 13 13 11 7 3 9 16 21 20 17 18 21 17 20 23 25 22 20 23 22 17 17 20 25 40 46 42 35 32 36 40 39 37
6 5 8 7 10 9 13 8 14 14 7 3 3 5 5 6 6 6 15 21 24 18 23 17 17 15 15 15 19 17 16 14 14 18 9 42 43 40 38 38 41 42 40 37
3 3 6 5 6 6 10 4 9 7 10 4 2 2 5 8 8 8 7 11 18 22 18 18 15 12 7 8 13 16 20 21 17 23 11 25 26 24 32 34 36 35 35 36
8 6 4 4 7 12 11 7 9 2 2 2 5 4 1 5 9 13 8 18 10 19 17 12 13 7 2 6 7 16 18 13 6 19 18 18 17 14 13 17 23 24 23 25
1 3 3 6 7 4 4 2 3 2 1 3 3 3 3 12 17 7 7 16 15 9 14 14 9 8 6 17 19 10 16 15 16 25 17 18 17 16 16 19 17 19 21 23
5 7 3 5 5 3 4 2 2 4 3 3 2 3 3 10 9 8 12 19 18 16 19 18 14 7 11 7 13 21 15 20 30 21 22 19 22 19 11 15 23 24 25 23
4 5 4 8 6 7 2 2 2 3 2 3 3 3 4 14 16 18 23 20 11 26 28 22 17 13 12 13 14 10 16 21 15 12 9 14 20 8 14 13 21 24 20 24
2 4 6 5 2 7 6 3 1 2 4 3 4 3 5 12 10 10 10 8 19 31 30 25 21 20 17 16 15 12 12 6 2 4 5 1 19 17 14 21 21 28 39 35
1 2 6 2 1 3 3 4 2 3 2 3 3 3 5 6 5 5 8 16 21 23 24 24 24 22 22 22 22 20 16 11 7 2 3 6 10 13 18 22 23 23 27 36
2 2 4 7 3 3 3 4 2 3 1 2 3 1 8 9 4 3 11 21 28 28 26 23 20 19 21 21 19 18 16 15 13 11 6 1 6 10 14 16 18 21 22 22
1 2 4 8 6 6 4 6 4 2 3 1 3 1 4 5 4 12 16 22 23 21 19 17 16 17 16 16 15 14 13 12 11 10 8 5 2 3 7 10 14 17 19 20
0 2 3 4 5 3 7 13 7 3 4 2 1 5 2 3 6 8 13 15 18 17 17 16 16 16 15 15 15 14 13 13 13 12 12 11 10 10 11 12 14 16 17 19
2 1 2 4 5 3 2 6 10 6 3 3 6 6 5 5 5 5 7 8 9 12 15 16 15 15 14 14 14 13 14 15 16 16 16 18 19 19 20 20 21 21 20 22
3 1 2 3 5 4 3 4 6 6 5 6 4 1 4 6 8 6 4 3 5 7 10 14 15 15 18 19 19 19 19 19 19 19 18 19 20 21 23 25 27 28 27 26
2 3 2 3 5 5 6 4 2 1 2 6 4 6 5 5 5 5 4 1 4 8 12 14 14 17 16 17 19 20 21 21 22 22 21 21 21 21 22 25 28 30 31 32
1 2 1 2 3 3 5 2 3 4 4 5 2 5 8 6 3 4 4 3 3 7 13 15 17 16 18 21 23 25 25 26 27 28 29 30 31 33 34 32 28 25 27 32
2 3 1 1 2 5 3 4 5 5 6 8 7 5 7 7 5 4 4 1 5 10 13 15 18 20 21 23 25 26 26 27 27 27 28 30 32 33 33 32 33 34 32 29
3 4 3 2 1 5 4 2 5 3 6 11 15 10 9 7 2 3 4 5 10 14 21 22 20 20 21 21 23 24 25 26 28 28 28 29 30 31 34 36 37 37 35 33
1 2 3 1 2 7 5 7 7 4 6 12 21 15 11 4 4 3 8 13 18 21 17 17 18 20 21 23 25 25 24 24 26 26 28 29 31 33 34 36 37 39 38 33
5 4 4 2 3 7 10 6 7 6 2 18 19 17 15 11 6 8 11 12 12 13 14 15 18 19 19 19 20 19 20 21 21 22 23 24 28 33 37 37 37 36 37 38
3 6 3 7 5 4 27 6 20 5 12 17 19 18 15 13 11 10 10 10 11 11 13 14 16 18 17 18 17 19 21 19 23 27 29 31 33 33 32 35 37 38 37 35
4 5 4 2 3 10 18 29 13 15 12 17 17 17 16 14 12 11 11 11 11 11 12 14 15 16 17 18 18 16 21 20 26 25 27 30 32 34 33 34 34 35 38 37
7 5 5 6 9 12 17 23 28 19 17 17 18 17 16 14 12 11 10 10 10 10 11 12 15 17 19 19 20 18 21 23 25 25 28 29 30 32 35 35 35 35 36 36
13 8 6 7 13 7 7 8 26 24 22 20 20 19 17 14 12 10 10 9 10 11 12 14 16 18 17 19 22 20 20 21 24 25 25 27 26 30 32 35 39 37 36 36

GFSCGP_850_spd_117.txt.gz
Wind_Speed
3 4 4 4 4 3 3 4 12 15 13 11 13 17 23 25 20 23 28 34 33 33 29 23 24 28 24 24 25 26 27 28 26 27 28 31 33 36 41 45 46 40 49 44
3 6 7 7 6 5 5 12 15 17 13 5 14 21 24 20 19 24 23 29 31 29 27 29 24 22 24 24 23 27 27 27 25 27 29 31 36 39 41 43 50 45 51 48
4 5 4 4 8 9 9 11 14 13 8 12 11 9 4 5 6 8 19 24 21 22 24 23 18 20 19 25 28 30 28 26 25 27 29 36 35 37 36 39 44 48 44 46
6 4 4 6 10 7 9 7 13 15 8 4 2 6 5 7 6 7 12 9 16 19 16 12 14 17 16 19 23 22 20 20 24 23 25 27 31 36 36 40 43 41 41 35
5 3 5 9 7 7 8 4 7 13 8 5 3 3 6 7 10 17 13 24 20 6 6 9 16 13 12 12 15 16 21 24 23 24 23 24 25 35 34 37 37 35 37 37
9 8 5 6 4 10 10 11 10 5 1 3 3 5 4 8 12 14 11 19 15 9 4 5 7 5 5 4 10 17 24 23 20 18 20 17 3 27 30 31 27 28 29 29
4 5 5 7 4 4 5 2 3 3 3 4 4 4 2 14 17 10 6 9 17 13 4 3 4 6 3 7 12 9 14 23 17 13 12 13 12 11 11 17 19 24 29 29
3 6 6 6 6 3 2 1 2 3 2 4 2 6 4 12 20 13 10 16 14 20 19 13 19 12 12 12 19 13 11 17 14 11 10 5 9 9 8 8 8 8 15 19
2 6 4 6 4 3 2 1 1 3 2 3 3 2 3 14 15 18 21 24 18 20 26 26 27 24 19 13 20 30 21 21 19 9 15 7 6 9 11 5 11 16 13 14
3 6 3 5 4 5 3 1 2 3 4 3 4 3 5 12 13 11 13 16 22 27 29 29 27 24 23 21 21 23 21 17 13 5 3 1 10 11 2 16 15 13 17 23
3 1 6 2 1 2 3 3 3 3 1 2 3 3 4 6 8 9 9 7 12 18 23 23 22 22 22 23 23 23 21 18 15 13 11 9 10 9 7 7 15 20 20 20
1 1 5 7 2 2 3 3 2 2 3 2 2 3 3 5 6 3 5 10 17 19 19 19 18 17 18 19 19 19 18 17 17 14 11 6 3 5 7 8 10 14 18 21
0 2 5 9 5 4 4 3 3 1 3 1 3 3 1 3 6 4 10 12 14 15 16 17 17 19 19 18 17 17 17 17 15 12 9 6 4 3 6 9 12 14 16 19
1 2 3 4 6 3 5 5 3 1 2 3 4 2 1 3 5 5 7 8 10 14 16 17 18 18 18 19 19 18 17 17 16 15 15 13 12 11 13 15 16 17 18 20
2 2 1 5 7 5 4 4 6 2 3 2 4 5 6 6 6 6 4 3 6 11 15 18 18 18 17 17 16 16 16 16 16 17 16 16 16 17 18 19 20 22 23 24
3 2 3 4 4 6 5 7 4 2 1 4 5 5 6 7 6 6 4 0 4 8 12 15 15 15 15 16 16 17 17 18 19 19 19 20 20 22 23 24 26 27 28 28
2 1 3 4 6 8 7 6 5 3 4 6 5 5 5 5 7 8 7 4 3 4 8 11 12 12 13 15 18 20 21 22 22 23 27 29 29 31 31 29 26 25 27 29
0 2 1 3 5 3 5 2 2 5 7 8 4 4 9 7 8 7 7 7 4 4 8 9 9 11 14 18 22 25 26 27 27 27 28 30 31 33 34 34 34 35 35 32
3 3 0 0 2 7 2 4 5 5 7 10 8 4 10 8 5 7 8 6 4 6 8 8 10 15 19 21 23 24 25 25 25 28 30 31 31 32 34 35 37 38 38 39
4 3 3 1 1 5 4 3 5 3 5 5 14 10 10 8 1 4 11 7 5 5 7 11 14 17 19 21 24 25 26 26 27 28 30 31 32 34 35 36 36 38 38 39
1 1 3 3 4 8 4 5 7 2 6 4 19 19 20 6 10 4 6 4 5 8 10 13 15 17 21 22 23 23 24 24 25 26 26 27 29 31 32 35 37 39 38 39
4 4 4 1 3 7 7 4 6 5 3 5 20 17 20 16 8 5 4 5 6 8 11 15 17 17 18 20 21 22 23 22 23 23 24 25 26 27 30 31 33 35 38 37
3 6 3 8 6 5 17 11 14 4 5 5 16 17 15 14 11 8 8 10 11 13 14 16 18 20 19 21 21 21 21 20 24 25 28 28 29 30 32 33 33 34 33 32
5 6 4 0 4 10 25 30 31 15 18 12 13 14 15 14 11 10 11 12 12 13 15 17 18 18 19 18 19 19 22 21 24 26 26 26 28 30 34 36 35 34 36 36
8 8 5 7 14 21 29 28 26 32 27 18 16 17 16 15 14 12 12 11 11 12 14 16 17 18 19 19 20 19 21 22 24 24 28 29 31 34 36 37 37 37 35 34
15 8 7 8 12 11 15 15 10 21 29 26 21 20 19 18 17 15 13 12 12 13 14 15 16 17 18 19 20 20 21 22 23 27 28 29 31 34 35 38 42 37 34 36